Date StartTime U_cm/s V_cm/s W_cm/s Ustd_cm/s Vstd_cm/s Wstd_cm/s Uvar_(cm/s)^2 Vvar_(cm/s)^2 Wvar_(cm/s)^2 KE_(m/s)^2 TurbulentKE_(m/s)^2 HorizWindSpeed_cm/s FrictionSpeec_cm/s DragCoef SpeedOfSound_m/s SonicTemperature_C Pressure_mb 
05/22/2013  00:00:00     -393.190     -173.090      -19.120      190.563      147.287       92.986    36314.222    21693.542     8646.430       12.578        3.333      429.603       83.775        0.038      339.214       12.390      854.787
05/22/2013  00:01:00     -431.668     -119.022       -9.446      203.372      176.235       89.305    41360.084    31058.795     7975.450       14.048        4.020      447.776       98.896        0.049      339.200       12.369      854.770
05/22/2013  00:02:00     -556.341     -111.576      -41.210      222.029      178.032       88.568    49296.810    31695.230     7844.285       20.623        4.442      567.419       93.110        0.027      339.191       12.354      854.788
05/22/2013  00:03:00     -164.717     -100.306        6.741      141.255      141.568       73.666    19952.927    20041.463     5426.732        4.132        2.271      192.855       73.174        0.144      339.185       12.342      854.747
05/22/2013  00:04:00     -332.344     -163.269       -6.196      245.098      169.476       90.593    60073.017    28722.052     8207.140       11.705        4.850      370.283      100.462        0.074      339.175       12.325      854.685
05/22/2013  00:05:00     -390.844     -194.135      -14.775      182.656      175.239       96.678    33363.086    30708.688     9346.695       13.203        3.671      436.403       93.070        0.045      339.154       12.291      854.693
05/22/2013  00:06:00     -416.627     -183.984       -6.989      233.832      194.418      105.343    54677.540    37798.186    11097.118       15.550        5.179      455.443      112.148        0.061      339.158       12.297      854.731
05/22/2013  00:07:00     -476.216     -255.329      -18.823      190.162      172.122       93.353    36161.711    29626.089     8714.769       18.340        3.725      540.346       93.223        0.030      339.161       12.302      854.675
05/22/2013  00:08:00     -528.855     -154.093      -36.965      204.269      130.863       86.797    41725.634    17125.245     7533.741       18.558        3.319      550.846       86.735        0.025      339.148       12.279      854.660
05/22/2013  00:09:00     -376.065      -11.492        4.587      199.338      152.781       99.421    39735.472    23342.177     9884.442       10.726        3.648      376.241       95.826        0.065      339.153       12.287      854.681
05/22/2013  00:10:00     -440.437     -179.932      -35.210      191.881      151.196       86.037    36818.451    22860.247     7402.296       14.733        3.354      475.774       87.394        0.034      339.166       12.310      854.696
05/22/2013  00:11:00     -327.721     -118.760       11.331      220.281      169.441      102.534    48523.550    28710.161    10513.150       10.467        4.387      348.575      120.785        0.120      339.156       12.294      854.671
05/22/2013  00:12:00     -456.946     -109.130       -7.392      191.301      190.721       94.063    36596.048    36374.644     8847.802       15.127        4.091      469.797       86.498        0.034      339.144       12.273      854.631
05/22/2013  00:13:00     -399.519      -94.930       -5.891      240.429      147.319       91.682    57806.085    21702.829     8405.617       12.827        4.396      410.642      113.552        0.076      339.174       12.323      854.630
05/22/2013  00:14:00     -453.964      -80.676      -12.457      217.158      149.612       88.660    47157.597    22383.667     7860.526       14.506        3.870      461.077      104.207        0.051      339.143       12.272      854.613
05/22/2013  00:15:00     -463.870     -102.254      -14.737      184.246      211.756       95.741    33946.691    44840.535     9166.299       15.688        4.398      475.007       88.534        0.035      339.132       12.253      854.592
05/22/2013  00:16:00     -234.820      -99.270        3.743      222.981      157.140      104.256    49720.566    24692.924    10869.226        7.513        4.264      254.941       84.495        0.110      339.164       12.306      854.607
05/22/2013  00:17:00     -243.463     -112.579       16.448      191.474      151.874       85.073    36662.291    23065.691     7237.486        6.958        3.348      268.231       70.233        0.069      339.168       12.316      854.661
05/22/2013  00:18:00     -392.593     -205.470      -21.208      185.747      183.984       86.172    34502.080    33850.103     7425.551       13.627        3.789      443.111       82.535        0.035      339.165       12.308      854.683
05/22/2013  00:19:00     -368.913      -52.274      -15.762      193.907      135.581       82.430    37599.789    18382.075     6794.774       10.091        3.139      372.598       85.251        0.052      339.118       12.230      854.684
05/22/2013  00:20:00     -241.330     -152.042        5.515      228.593      159.654       92.393    52254.617    25489.416     8536.419        8.382        4.314      285.232      109.591        0.148      339.140       12.267      854.693
05/22/2013  00:21:00     -368.694     -189.856        8.552      240.158      210.337      121.372    57675.748    44241.552    14731.195       14.433        5.832      414.706      127.174        0.094      339.141       12.268      854.655
05/22/2013  00:22:00     -280.640     -139.832        0.575      208.091      164.185       88.283    43302.049    26956.779     7793.969        8.817        3.903      313.547       90.436        0.083      339.126       12.242      854.673
05/22/2013  00:23:00     -334.099      -93.669      -11.050      239.099      158.461       85.761    57168.120    25110.038     7354.875       10.506        4.482      346.981       95.692        0.076      339.131       12.251      854.636
05/22/2013  00:24:00     -399.778      -59.708       -0.087      151.164      181.747       80.074    22850.503    33031.932     6411.822       11.283        3.115      404.212       47.733        0.014      339.096       12.192      854.616
05/22/2013  00:25:00     -436.151      -19.532      -15.675      210.346      189.063       84.212    44245.348    35744.869     7091.601       13.895        4.354      436.588       83.802        0.037      339.088       12.180      854.610
05/22/2013  00:26:00     -328.668      -74.477      -11.253      225.056      160.706      100.403    50650.057    25826.514    10080.850       10.011        4.328      337.001      106.470        0.100      339.059       12.131      854.603
05/22/2013  00:27:00     -388.732     -170.637      -22.712      177.174      183.957       82.985    31390.493    33840.308     6886.468       12.642        3.606      424.534       86.963        0.042      339.059       12.130      854.587
05/22/2013  00:28:00     -289.294     -244.943       11.306      257.177      227.805      121.373    66140.165    51894.961    14731.516       13.826        6.638      379.062      140.734        0.138      339.054       12.124      854.589
05/22/2013  00:29:00     -519.531     -201.265      -23.990      231.007      182.778      102.010    53364.262    33407.729    10406.116       20.407        4.859      557.154      107.091        0.037      339.066       12.141      854.631
05/22/2013  00:30:00     -287.270     -118.917        2.464      203.770      149.149       93.620    41522.415    22245.416     8764.693        8.459        3.627      310.910      104.993        0.114      339.071       12.150      854.647
05/22/2013  00:31:00     -496.286     -296.880      -30.073      225.209      172.784      106.607    50719.197    29854.417    11365.115       21.362        4.597      578.306       96.677        0.028      339.085       12.173      854.623
05/22/2013  00:32:00     -473.603     -116.572      -23.071      240.376      243.606      107.851    57780.552    59344.058    11631.838       18.356        6.438      487.739      119.622        0.060      339.095       12.191      854.608
05/22/2013  00:33:00     -555.908     -169.996      -28.198      292.363      168.534      120.436    85476.182    28403.652    14504.921       23.353        6.419      581.319      142.136        0.060      339.088       12.178      854.558
05/22/2013  00:34:00     -510.621      -86.641       -9.115      233.702      154.501      115.551    54616.639    23870.541    13351.997       18.006        4.592      517.919      121.806        0.055      339.090       12.182      854.577
05/22/2013  00:35:00     -251.111     -120.174       13.481      236.929      188.998       88.431    56135.403    35720.254     7820.061        8.866        4.984      278.386      114.842        0.170      339.114       12.224      854.589
05/22/2013  00:36:00     -445.160     -243.093      -21.253      176.026      150.308       91.935    30985.012    22592.498     8452.094       15.986        3.101      507.209       85.907        0.029      339.070       12.148      854.544
05/22/2013  00:37:00     -228.891     -110.471       27.998      204.932      168.020       87.179    41997.222    28230.620     7600.165        7.159        3.891      254.156      110.350        0.189      339.066       12.144      854.541
05/22/2013  00:38:00     -224.705     -100.145        5.350      208.145      141.050       97.155    43324.139    19895.140     9439.089        6.659        3.633      246.011      100.075        0.165      339.040       12.098      854.527
05/22/2013  00:39:00     -298.554     -136.858        6.397      249.461      149.864      100.807    62230.777    22459.292    10161.988       10.136        4.743      328.428      127.421        0.151      339.051       12.117      854.564
05/22/2013  00:40:00     -477.508     -172.545      -20.875      211.814      215.959      112.507    44865.160    46638.143    12657.717       18.117        5.208      507.726      101.615        0.040      339.014       12.055      854.546
05/22/2013  00:41:00     -578.549      -43.258      -34.911      201.708      169.986       86.081    40686.055    28895.265     7409.918       20.738        3.850      580.164       84.154        0.021      338.968       11.978      854.609
05/22/2013  00:42:00     -464.252     -167.450      -16.092      193.221      133.136       82.537    37334.510    17725.108     6812.320       15.284        3.094      493.528       90.128        0.033      338.962       11.968      854.656
05/22/2013  00:43:00     -451.395      -64.705      -27.017      197.894      164.901       72.749    39161.881    27192.215     5292.367       14.015        3.582      456.009       90.002        0.039      338.938       11.928      854.603
05/22/2013  00:44:00     -284.093     -137.822        0.661      160.681      115.885       74.815    25818.534    13429.381     5597.347        7.227        2.242      315.759       83.583        0.070      338.907       11.875      854.562
05/22/2013  00:45:00     -461.656     -172.481      -26.819      260.075      193.638       99.232    67639.130    37495.694     9846.978       17.927        5.749      492.825      105.850        0.046      338.916       11.891      854.523
05/22/2013  00:46:00     -374.180     -166.301      -12.481      202.177      164.162       92.929    40875.415    26949.068     8635.804       12.213        3.823      409.471      104.535        0.065      338.895       11.852      854.563
05/22/2013  00:47:00     -389.153     -183.152      -17.512      201.431      160.871       99.138    40574.410    25879.565     9828.423       13.077        3.814      430.099      101.086        0.055      338.932       11.917      854.575
05/22/2013  00:48:00     -307.377      -88.918        3.388      218.514      143.342       95.709    47748.373    20546.915     9160.231        8.991        3.873      319.980       97.587        0.093      338.941       11.932      854.587
05/22/2013  00:49:00     -446.978      -98.464      -12.965      162.813      145.245       75.785    26508.023    21096.048     5743.370       13.149        2.667      457.695       84.998        0.034      338.904       11.868      854.571
05/22/2013  00:50:00     -296.276      -27.959      -14.863      185.542       83.681       63.702    34425.668     7002.444     4057.906        6.712        2.274      297.593       90.250        0.092      338.877       11.823      854.564
05/22/2013  00:51:00     -427.487      -34.509      -26.209      247.528      169.965       90.239    61269.988    28888.214     8143.065       14.144        4.915      428.877       96.857        0.051      338.831       11.747      854.536
05/22/2013  00:52:00     -621.902      -89.276      -17.272      303.908      201.201      111.134    92360.238    40481.823    12350.696       27.008        7.260      628.277      125.958        0.040      338.851       11.780      854.534
05/22/2013  00:53:00     -568.424      -60.140       -7.274      295.925      156.244      112.505    87571.432    24412.112    12657.453       22.568        6.232      571.596      140.514        0.060      338.896       11.856      854.564
05/22/2013  00:54:00     -230.297     -130.489       -5.934      126.784      102.008       71.631    16074.125    10405.664     5131.054        5.085        1.581      264.696       70.084        0.070      338.957       11.958      854.589
05/22/2013  00:55:00     -293.010      -96.861        1.334      184.378      110.317       75.636    33995.284    12169.814     5720.782        7.355        2.594      308.605       91.111        0.087      338.898       11.859      854.537
05/22/2013  00:56:00     -347.850      -66.122        4.081      241.689      142.815       94.752    58413.527    20396.032     8978.030       10.657        4.389      354.079      111.185        0.099      338.876       11.823      854.503
05/22/2013  00:57:00     -408.059     -132.063       -7.982      201.123      162.774      100.537    40450.412    26495.286    10107.648       13.052        3.853      428.897      113.707        0.070      338.870       11.812      854.520
05/22/2013  00:58:00     -356.015     -149.576       -8.605      147.742      103.498       68.000    21827.587    10711.938     4624.038        9.317        1.858      386.160       75.877        0.039      338.864       11.804      854.565
05/22/2013  00:59:00     -270.220     -128.266      -12.577      197.533      176.551       85.442    39019.414    31170.325     7300.265        8.354        3.875      299.117      105.778        0.125      338.856       11.790      854.564
05/22/2013  01:00:00     -411.301     -173.562      -18.467      187.754      199.510       91.896    35251.728    39804.262     8444.912       14.155        4.175      446.421       84.912        0.036      338.845       11.770      854.525
05/22/2013  01:01:00     -445.117      -66.675       -4.115      272.327      184.685       81.208    74162.130    34108.546     6594.714       15.870        5.743      450.083       93.742        0.043      338.820       11.728      854.526
05/22/2013  01:02:00     -412.035     -109.212      -16.012      259.914      201.433      107.680    67555.483    40575.370    11594.896       15.082        5.986      426.263      125.887        0.087      338.844       11.768      854.540
05/22/2013  01:03:00     -465.426      -93.478      -11.808      259.377      191.026      101.280    67276.449    36490.951    10257.562       16.974        5.701      474.720      130.400        0.075      338.830       11.745      854.458
05/22/2013  01:04:00     -442.912      -76.065      -29.033      274.203      140.842       88.112    75187.055    19836.411     7763.748       15.277        5.139      449.396      118.711        0.070      338.810       11.713      854.509
05/22/2013  01:05:00     -369.990     -105.549       -7.869      230.277      181.737       87.619    53027.340    33028.380     7677.173       12.089        4.687      384.750      103.436        0.072      338.794       11.685      854.419
05/22/2013  01:06:00     -494.861      -49.265      -29.071      206.418      162.208       94.047    42608.447    26311.462     8844.806       16.295        3.888      497.307      109.350        0.048      338.790       11.678      854.500
05/22/2013  01:07:00     -538.734      -86.752       -3.570      320.593      213.692      110.525   102780.035    45664.279    12215.849       22.918        8.033      545.674      113.811        0.044      338.791       11.678      854.518
05/22/2013  01:08:00     -533.468     -134.280      -26.850      228.300      134.600       89.885    52121.038    18117.162     8079.338       19.081        3.916      550.108      107.409        0.038      338.802       11.699      854.533
05/22/2013  01:09:00     -416.583     -134.057      -21.593      173.170      152.478       79.456    29987.726    23249.648     6313.312       12.575        2.978      437.622       85.032        0.038      338.786       11.673      854.521
05/22/2013  01:10:00     -351.833     -114.283       -4.586      219.328      186.049      101.183    48104.629    34614.369    10237.957       11.489        4.648      369.929      109.879        0.088      338.779       11.660      854.512
05/22/2013  01:11:00     -227.691     -141.444       11.880      191.654      174.097       95.230    36731.442    30309.669     9068.755        7.403        3.805      268.048      107.217        0.160      338.823       11.733      854.538
05/22/2013  01:12:00     -375.355     -172.571        1.875      227.552      177.857       95.906    51779.759    31633.169     9197.917       13.162        4.631      413.125       83.633        0.041      338.788       11.675      854.477
05/22/2013  01:13:00     -435.567     -123.097       -6.116      230.894      143.536       87.180    53312.154    20602.562     7600.406       14.320        4.076      452.627       98.464        0.047      338.774       11.653      854.485
05/22/2013  01:14:00     -314.134      -68.115       -4.034      102.911      110.365       52.199    10590.753    12180.341     2724.739        6.441        1.275      321.434       51.228        0.025      338.747       11.605      854.510
05/22/2013  01:15:00     -254.450     -102.044        2.413      209.809      185.063       77.313    44019.938    34248.397     5977.341        7.969        4.212      274.149      100.838        0.135      338.731       11.580      854.536
05/22/2013  01:16:00     -222.803      -22.751        3.734      132.078      103.950       64.529    17444.498    10805.527     4164.049        4.129        1.621      223.961       69.135        0.095      338.721       11.562      854.522
05/22/2013  01:17:00     -371.269      -74.193      -17.075      269.817      132.457       90.315    72801.143    17544.862     8156.863       12.105        4.925      378.610      117.942        0.097      338.733       11.582      854.485
05/22/2013  01:18:00     -197.722     -170.986        4.757      182.281      157.123       97.191    33226.520    24687.719     9446.130        6.784        3.368      261.400       89.116        0.116      338.720       11.561      854.440
05/22/2013  01:19:00     -360.471      -90.699      -10.358      237.833      190.974      105.048    56564.701    36471.252    11035.178       12.115        5.204      371.706      118.145        0.101      338.687       11.506      854.455
05/22/2013  01:20:00     -361.974      -89.407      -22.427      168.547      119.916       88.836    28408.081    14379.751     7891.748        9.509        2.534      372.852       99.708        0.072      338.759       11.626      854.518
05/22/2013  01:21:00     -222.373     -138.987       -1.475      205.013      144.277       82.389    42030.464    20815.918     6787.974        6.919        3.482      262.235      103.590        0.156      338.765       11.637      854.502
05/22/2013  01:22:00     -324.621     -136.373       -2.214      181.587      145.015       90.946    32973.915    21029.463     8271.228        9.312        3.114      352.103       93.062        0.070      338.729       11.576      854.484
05/22/2013  01:23:00     -492.441     -200.332      -23.813      306.664      204.853      111.748    94043.079    41964.737    12487.668       21.582        7.425      531.631      145.455        0.075      338.769       11.643      854.494
05/22/2013  01:24:00     -357.578     -210.236      -10.405      264.403      167.578       97.995    69908.698    28082.280     9602.991       13.986        5.380      414.803      125.783        0.092      338.749       11.610      854.514
05/22/2013  01:25:00     -389.072     -260.043       -8.346      170.995      146.296       83.993    29239.317    21402.592     7054.854       13.837        2.885      467.974       90.151        0.037      338.727       11.572      854.501
05/22/2013  01:26:00     -302.667     -157.913      -10.869      147.766       99.135       55.490    21834.694     9827.663     3079.187        7.569        1.737      341.385       56.732        0.028      338.718       11.558      854.458
05/22/2013  01:27:00     -434.407     -295.841      -31.172      214.040      154.018       94.755    45813.289    23721.613     8978.418       17.784        3.926      525.577       58.867        0.013      338.736       11.588      854.461
05/22/2013  01:28:00     -373.203     -135.889      -15.519      240.031       87.884       77.450    57614.881     7723.523     5998.554       11.465        3.567      397.173      104.612        0.069      338.724       11.567      854.453
05/22/2013  01:29:00     -383.987     -121.186        2.609      205.342      149.833       93.873    42165.253    22449.782     8812.141       11.777        3.671      402.656       95.691        0.056      338.709       11.541      854.490
05/22/2013  01:30:00     -319.581     -116.979      -13.460      206.899      132.332       81.668    42807.086    17511.794     6669.585        9.148        3.349      340.318       96.959        0.081      338.714       11.552      854.511
05/22/2013  01:31:00     -302.043      -69.385      -11.036      188.389      142.477       82.077    35490.465    20299.697     6736.710        7.933        3.126      309.910       97.837        0.100      338.718       11.558      854.518
05/22/2013  01:32:00     -210.195     -100.069       -0.651      139.775      124.646       73.748    19536.915    15536.611     5438.833        4.735        2.026      232.800       76.788        0.109      338.695       11.519      854.510
05/22/2013  01:33:00     -321.786     -134.745       -5.419      175.055      123.735       72.396    30644.207    15310.228     5241.114        8.645        2.560      348.859       84.316        0.058      338.709       11.541      854.498
05/22/2013  01:34:00     -340.701      -70.219      -14.699      115.948      100.260       58.309    13443.895    10052.012     3399.931        7.405        1.345      347.862       50.620        0.021      338.693       11.515      854.483
05/22/2013  01:35:00     -196.070      -47.700        1.612      152.458       95.630       48.393    23243.566     9145.121     2341.887        3.772        1.737      201.788       56.555        0.079      338.652       11.447      854.479
05/22/2013  01:36:00     -287.606      -86.196       -9.314      175.015      108.919       56.081    30630.201    11863.245     3145.044        6.793        2.282      300.245       53.642        0.032      338.656       11.451      854.452
05/22/2013  01:37:00     -433.993     -123.496      -27.875      194.510      103.366       66.922    37834.141    10684.621     4478.607       12.868        2.650      451.222       83.731        0.034      338.656       11.453      854.453
05/22/2013  01:38:00     -266.591      -95.710       -0.530      126.923      104.853       62.218    16109.468    10994.221     3871.041        5.560        1.549      283.251       67.035        0.056      338.627       11.406      854.449
05/22/2013  01:39:00     -307.422      -15.036        5.486      180.105      140.290       76.387    32437.793    19681.221     5834.926        7.635        2.898      307.790       86.419        0.079      338.603       11.364      854.428
05/22/2013  01:40:00     -347.977     -146.682       -7.256      223.662      155.567       80.727    50024.496    24201.061     6516.831       11.168        4.037      377.629       96.654        0.066      338.692       11.514      854.433
05/22/2013  01:41:00     -172.118     -186.736       33.271      162.291      148.226       87.083    26338.459    21970.811     7583.456        6.074        2.795      253.958       97.487        0.147      338.674       11.483      854.417
05/22/2013  01:42:00     -320.899     -165.443      -10.072      203.123      144.994       72.239    41259.008    21023.140     5218.541        9.896        3.375      361.037       87.347        0.059      338.642       11.428      854.415
05/22/2013  01:43:00     -244.698     -144.937       -3.014      138.972      130.136       72.994    19313.247    16935.314     5328.128        6.123        2.079      284.401       79.231        0.078      338.630       11.409      854.368
05/22/2013  01:44:00     -238.924     -111.939        5.960      175.262      132.633       75.503    30716.919    17591.590     5700.774        6.182        2.700      263.847       74.220        0.079      338.620       11.392      854.388
05/22/2013  01:45:00     -257.368     -148.411       -6.478      188.562      120.428       73.777    35555.521    14502.930     5443.029        7.189        2.775      297.093       86.327        0.084      338.641       11.428      854.384
05/22/2013  01:46:00     -231.699     -177.819       -1.973      121.112       94.367       64.160    14668.031     8905.092     4116.511        5.649        1.384      292.068       69.431        0.057      338.634       11.415      854.371
05/22/2013  01:47:00     -292.359     -122.693       -5.491      151.718      143.602       76.206    23018.205    20621.652     5807.359        7.499        2.472      317.060       69.542        0.048      338.647       11.438      854.369
05/22/2013  01:48:00     -397.767      -60.343      -15.330      232.904      135.517       95.158    54244.416    18364.760     9055.122       12.186        4.083      402.318      111.595        0.077      338.643       11.430      854.329
05/22/2013  01:49:00     -367.914     -188.792      -12.136      241.438      174.195      111.375    58292.455    30344.039    12404.466       13.607        5.052      413.525      117.047        0.080      338.662       11.462      854.284
05/22/2013  01:50:00     -319.378     -241.396       -0.954      223.381      171.946      108.151    49899.160    29565.438    11696.645       12.570        4.558      400.343      117.632        0.086      338.654       11.448      854.314
05/22/2013  01:51:00     -307.612     -130.118       -2.049      189.686      124.742       71.215    35980.657    15560.471     5071.550        8.407        2.831      334.000       91.137        0.074      338.674       11.483      854.386
05/22/2013  01:52:00     -240.432     -160.400        4.349      149.626       99.964       66.575    22387.998     9992.770     4432.219        6.018        1.841      289.026       63.014        0.048      338.657       11.455      854.369
05/22/2013  01:53:00     -434.663     -126.902      -28.648      250.881      120.703       79.809    62941.234    14569.212     6369.544       14.485        4.194      452.809      106.758        0.056      338.666       11.469      854.358
05/22/2013  01:54:00     -397.327      -87.301      -15.612      124.970      139.406       63.184    15617.567    19434.066     3992.184       10.238        1.952      406.805       46.932        0.013      338.629       11.407      854.350
05/22/2013  01:55:00     -287.262      -89.210       -3.585      156.620      181.860       69.484    24529.903    33073.221     4828.094        7.645        3.122      300.795       71.228        0.056      338.622       11.394      854.350
05/22/2013  01:56:00     -332.966      -70.762       -6.692      212.460      147.493       74.935    45139.048    21754.110     5615.200        9.420        3.625      340.402       83.759        0.061      338.670       11.475      854.344
05/22/2013  01:57:00     -291.163     -219.323       -4.136      168.218      140.963       98.128    28297.384    19870.651     9629.045        9.533        2.890      364.526      100.162        0.076      338.633       11.413      854.300
05/22/2013  01:58:00     -358.959      -66.639      -13.102      179.214      112.388       72.334    32117.831    12630.985     5232.175        9.171        2.499      365.092       80.675        0.049      338.644       11.433      854.309
05/22/2013  01:59:00     -365.891     -124.282      -26.375      176.305      164.847       78.948    31083.288    27174.592     6232.737       10.724        3.225      386.422       81.191        0.044      338.641       11.427      854.298
05/22/2013  02:00:00     -318.757     -116.230       -7.310      158.063      115.457       64.103    24983.949    13330.433     4109.208        7.879        2.121      339.287       80.891        0.057      338.617       11.388      854.243
05/22/2013  02:01:00     -335.152      -79.185      -13.270      182.108      106.167       78.841    33163.443    11271.365     6215.891        8.470        2.533      344.379       83.767        0.059      338.570       11.309      854.311
05/22/2013  02:02:00     -296.155     -159.817       -5.521      183.894      145.032       73.008    33816.821    21034.418     5330.203        8.672        3.009      336.525       84.474        0.063      338.584       11.332      854.275
05/22/2013  02:03:00     -398.889     -140.074      -18.906      204.210      142.034       78.527    41701.858    20173.618     6166.527       12.355        3.402      422.769       84.970        0.040      338.577       11.321      854.245
05/22/2013  02:04:00     -252.457     -129.235      -14.821      158.674      177.144       77.619    25177.449    31379.842     6024.647        7.161        3.129      283.612       88.023        0.096      338.576       11.318      854.250
05/22/2013  02:05:00     -196.194      -35.865       12.862      196.024      161.923       93.102    38425.318    26219.111     8668.068        5.661        3.666      199.446      110.239        0.306      338.550       11.275      854.213
05/22/2013  02:06:00     -260.185      -81.258        5.912      181.083      192.207       83.973    32791.019    36943.718     7051.408        7.554        3.839      272.578       84.675        0.096      338.570       11.309      854.263
05/22/2013  02:07:00     -311.064     -177.248       -2.380      184.571      132.104       94.975    34066.303    17451.490     9020.176        9.435        3.027      358.019      100.160        0.078      338.588       11.339      854.254
05/22/2013  02:08:00     -354.264     -165.053      -19.221      195.005      155.129       82.077    38026.982    24064.909     6736.581       11.096        3.441      390.827       77.453        0.039      338.592       11.346      854.248
05/22/2013  02:09:00     -337.082     -103.735       -2.708      187.992      153.731       83.772    35340.922    23633.246     7017.802        9.518        3.300      352.683       81.571        0.053      338.608       11.373      854.251
05/22/2013  02:10:00     -355.683     -237.515      -19.018      215.744      154.932       83.367    46545.463    24004.045     6950.084       13.038        3.875      427.696      100.202        0.055      338.645       11.435      854.223
05/22/2013  02:11:00     -348.135     -154.525      -10.939      195.281      133.052       83.256    38134.736    17702.883     6931.560       10.397        3.138      380.888       96.391        0.064      338.611       11.377      854.178
05/22/2013  02:12:00     -343.162     -193.482        6.222      141.374      131.852       69.399    19986.559    17384.970     4816.257        9.870        2.109      393.948       71.457        0.033      338.577       11.321      854.177
05/22/2013  02:13:00     -387.871      -84.379      -15.287      210.212      115.672       64.172    44188.895    13379.986     4117.991       10.973        3.084      396.943       72.878        0.034      338.564       11.299      854.174
05/22/2013  02:14:00     -380.161      -16.561        0.572      215.008      124.948       76.861    46228.594    15612.100     5907.668       10.626        3.387      380.522       99.417        0.068      338.554       11.280      854.157
05/22/2013  02:15:00     -263.766     -111.339        2.508      129.074      141.969       65.338    16660.222    20155.064     4269.067        6.152        2.054      286.301       67.309        0.055      338.530       11.241      854.184
05/22/2013  02:16:00     -332.068     -173.129      -22.039      153.372      125.641       68.373    23523.034    15785.724     4674.930        9.235        2.199      374.490       67.609        0.033      338.571       11.311      854.186
05/22/2013  02:17:00     -313.997     -160.950        0.831      183.292      114.784       79.790    33595.990    13175.461     6366.366        8.881        2.657      352.844       88.985        0.064      338.582       11.329      854.180
05/22/2013  02:18:00     -197.175      -62.579       10.431      106.504      107.810       64.242    11343.163    11622.953     4127.047        3.499        1.355      206.867       64.767        0.098      338.540       11.258      854.185
05/22/2013  02:19:00     -244.870     -130.299       -4.201      157.687      158.610       71.415    24865.133    25156.975     5100.044        6.603        2.756      277.380       75.965        0.075      338.550       11.275      854.161
05/22/2013  02:20:00     -188.691     -107.793       -2.123      151.771       84.094       64.127    23034.286     7071.759     4112.237        4.072        1.711      217.310       72.167        0.110      338.533       11.247      854.137
05/22/2013  02:21:00     -177.171      -86.507        2.481      122.529      104.796       67.247    15013.407    10982.158     4522.123        3.469        1.526      197.162       66.826        0.115      338.542       11.261      854.098
05/22/2013  02:22:00     -245.483      -68.908       -2.882      163.151      119.710       59.919    26618.240    14330.395     3590.253        5.477        2.227      254.971       58.045        0.052      338.513       11.214      854.099
05/22/2013  02:23:00     -232.973     -192.629       -4.180      166.215      123.880       77.618    27627.321    15346.240     6024.535        7.019        2.450      302.295       86.129        0.081      338.551       11.275      854.112
05/22/2013  02:24:00     -287.634      -57.678      -24.551      120.508      128.987       61.555    14522.076    16637.571     3789.076        6.080        1.747      293.360       56.073        0.037      338.543       11.264      854.111
05/22/2013  02:25:00     -334.381     -155.337        2.959      187.695      168.993       81.652    35229.264    28558.620     6666.997       10.319        3.523      368.701       90.074        0.060      338.573       11.314      854.097
05/22/2013  02:26:00     -305.784     -142.936      -10.451      152.181      141.365       78.968    23158.921    19984.140     6235.956        8.170        2.469      337.542       75.753        0.050      338.602       11.362      854.074
05/22/2013  02:27:00     -289.520     -108.030       -6.275      142.694      121.792       61.487    20361.561    14833.227     3780.608        6.725        1.949      309.018       61.671        0.040      338.581       11.326      854.030
05/22/2013  02:28:00     -249.266     -145.016       23.672      200.332      160.887       98.774    40132.953    25884.640     9756.380        7.973        3.789      288.381      110.645        0.147      338.580       11.326      854.025
05/22/2013  02:29:00     -148.446     -101.340        0.870      180.200       94.471       67.660    32472.046     8924.846     4577.837        3.913        2.299      179.739       67.680        0.142      338.594       11.349      854.048
05/22/2013  02:30:00     -282.377     -175.905       -6.832      159.463      125.879       76.016    25428.522    15845.630     5778.494        7.888        2.353      332.685       73.416        0.049      338.602       11.363      854.058
05/22/2013  02:31:00     -442.979      -68.907      -31.351      248.269      147.270       94.545    61637.679    21688.363     8938.777       14.709        4.613      448.307      107.572        0.058      338.607       11.370      854.050
05/22/2013  02:32:00     -419.155     -126.932      -23.102      157.000      170.979       79.099    24649.111    29233.955     6256.615       12.623        3.007      437.953       77.041        0.031      338.608       11.372      854.045
05/22/2013  02:33:00     -407.633     -244.929      -26.626      205.624      144.511       79.396    42281.156    20883.464     6303.662       14.815        3.473      475.558       98.066        0.043      338.603       11.365      854.036
05/22/2013  02:34:00     -347.902     -180.498      -15.761      177.006      187.872       88.462    31331.171    35296.035     7825.540       11.414        3.723      391.938       80.297        0.042      338.618       11.388      854.034
05/22/2013  02:35:00     -484.998     -228.249      -23.649      226.174      178.973       96.306    51154.707    32031.168     9274.811       19.015        4.623      536.023       98.684        0.034      338.635       11.418      854.031
05/22/2013  02:36:00     -278.232     -131.626       -5.742      194.670      188.750       90.757    37896.424    35626.514     8236.844        8.825        4.088      307.796       97.133        0.100      338.635       11.419      854.023
05/22/2013  02:37:00     -491.715     -189.611      -31.028      234.716      127.736       77.452    55091.774    16316.566     5998.739       17.804        3.870      527.007      104.015        0.039      338.639       11.424      853.976
05/22/2013  02:38:00     -294.805      -12.880       14.059      186.969      133.399       71.786    34957.435    17795.270     5153.164        7.258        2.895      295.086       75.365        0.065      338.562       11.296      853.979
05/22/2013  02:39:00     -250.724     -145.108       19.836      203.235      170.812       84.996    41304.364    29176.907     7224.272        8.099        3.885      289.688      105.599        0.133      338.569       11.307      853.976
05/22/2013  02:40:00     -352.995      -52.244       -8.993      270.421      120.446       81.757    73127.620    14507.355     6684.202       11.085        4.716      356.840      113.945        0.102      338.584       11.332      853.941
05/22/2013  02:41:00     -376.187      -59.574       -8.215      220.047      179.131       85.693    48420.610    32087.943     7343.350       11.647        4.393      380.875       95.871        0.063      338.565       11.299      853.911
05/22/2013  02:42:00     -422.303     -158.179        7.057      275.581      203.793      109.963    75945.015    41531.394    12091.751       16.646        6.478      450.955      139.715        0.096      338.601       11.362      853.882
05/22/2013  02:43:00     -477.194     -239.864      -10.741      298.962      250.853      129.067    89378.378    62927.060    16658.233       22.713        8.448      534.088      166.921        0.098      338.618       11.389      853.841
05/22/2013  02:44:00     -462.621     -104.629      -20.111      214.953      175.407       93.825    46204.750    30767.530     8803.198       15.555        4.289      474.305       97.762        0.042      338.597       11.354      853.854
05/22/2013  02:45:00     -524.902     -187.890        5.619      285.047      237.430      111.905    81251.590    56373.122    12522.675       23.047        7.507      557.517      139.603        0.063      338.594       11.348      853.875
05/22/2013  02:46:00     -498.894     -126.717       -7.604      260.402      177.784       97.408    67808.989    31607.048     9488.410       18.693        5.445      514.735      124.276        0.058      338.582       11.331      853.905
05/22/2013  02:47:00     -491.480     -171.445      -19.345      261.922      214.721      120.420    68602.986    46105.137    14500.994       20.024        6.460      520.525      124.238        0.057      338.588       11.338      853.945
05/22/2013  02:48:00     -438.404      -83.875      -26.074      231.281      193.763       90.960    53490.737    37544.098     8273.694       14.959        4.965      446.356       88.532        0.039      338.581       11.328      853.957
05/22/2013  02:49:00     -477.204     -113.114      -14.321      213.144      187.464      102.331    45430.167    35142.911    10471.657       16.587        4.552      490.426      100.817        0.042      338.582       11.327      853.938
05/22/2013  02:50:00     -393.462     -119.130      -34.535      231.204      180.833      104.467    53455.437    32700.514    10913.284       13.361        4.853      411.101       98.783        0.058      338.636       11.418      853.951
05/22/2013  02:51:00     -524.109     -123.730      -19.392      303.616      227.918      117.755    92182.700    51946.491    13866.278       22.415        7.900      538.516      151.707        0.079      338.659       11.457      853.992
05/22/2013  02:52:00     -428.280     -213.944       -5.373      260.683      181.316      110.079    67955.381    32875.562    12117.349       17.106        5.647      478.744      127.135        0.071      338.650       11.441      854.005
05/22/2013  02:53:00     -392.756      -97.348      -13.929      202.856      212.521       96.822    41150.498    45165.159     9374.566       12.979        4.785      404.641       94.519        0.055      338.649       11.439      854.013
05/22/2013  02:54:00     -461.310     -162.063      -22.899      178.326      165.729       79.248    31800.185    27466.115     6280.170       15.256        3.277      488.949       67.816        0.019      338.650       11.443      854.014
05/22/2013  02:55:00     -356.723     -302.363       -1.822      290.077      210.759      112.259    84144.847    44419.361    12602.022       17.989        7.058      467.627      146.798        0.099      338.657       11.453      853.988
05/22/2013  02:56:00     -533.761     -201.023      -42.820      240.468      195.571       98.614    57824.663    38247.992     9724.661       21.645        5.290      570.361       99.474        0.030      338.653       11.447      853.999
05/22/2013  02:57:00     -604.302     -167.791      -12.926      277.916      227.938      101.604    77237.500    51955.849    10323.284       26.648        6.976      627.164      100.406        0.026      338.657       11.453      853.952
05/22/2013  02:58:00     -396.394     -255.977       -6.789      242.889      156.063       92.596    58995.117    24355.689     8573.977       15.729        4.596      471.861      124.246        0.069      338.656       11.452      853.983
05/22/2013  02:59:00     -203.840     -163.414        6.162      153.521      132.921       78.548    23568.759    17667.991     6169.716        5.784        2.370      261.256       87.198        0.111      338.630       11.410      853.985
05/22/2013  03:00:00     -325.277     -178.655       -3.549      219.423      141.972       99.354    48146.476    20155.929     9871.131       10.794        3.909      371.110      108.982        0.086      338.623       11.398      853.996
05/22/2013  03:01:00     -305.638     -169.448        8.272      177.134      172.376       95.408    31376.618    29713.415     9102.643        9.618        3.510      349.467       84.349        0.058      338.636       11.418      854.003
05/22/2013  03:02:00     -433.396     -173.284      -11.049      221.161      151.171       93.333    48912.284    22852.811     8711.003       14.921        4.024      466.754      108.310        0.054      338.615       11.384      854.003
05/22/2013  03:03:00     -338.001      -97.017       -0.292      199.752      114.100       72.584    39900.954    13018.726     5268.447        9.091        2.909      351.649       77.875        0.049      338.598       11.356      854.003
05/22/2013  03:04:00     -224.220      -98.784       -1.701      204.518      134.753       81.929    41827.635    18158.370     6712.424        6.335        3.335      245.016       96.792        0.156      338.597       11.354      853.989
05/22/2013  03:05:00     -265.909     -145.354        5.093      203.962      142.897       78.555    41600.453    20419.469     6170.864        8.001        3.410      303.044      100.248        0.109      338.604       11.365      853.961
05/22/2013  03:06:00     -361.683     -173.856      -15.456      200.639      139.732       81.869    40255.957    19524.987     6702.538       11.387        3.324      401.298       91.196        0.052      338.594       11.348      853.989
05/22/2013  03:07:00     -457.423     -179.045      -19.207      203.955      197.286       87.547    41597.548    38921.779     7664.523       16.491        4.409      491.216      103.812        0.045      338.594       11.349      854.000
05/22/2013  03:08:00     -312.498     -147.717       -6.725      195.347      120.712       73.152    38160.571    14571.327     5351.229        8.879        2.904      345.652       93.038        0.072      338.580       11.324      854.014
05/22/2013  03:09:00     -351.800     -221.152        2.672      246.290      154.210      104.100    60658.952    23780.615    10836.706       13.396        4.764      415.537      129.550        0.097      338.587       11.336      854.017
05/22/2013  03:10:00     -315.612     -181.189        8.831      246.974      187.146      100.337    60995.978    35023.670    10067.456       11.928        5.304      363.923      127.694        0.123      338.578       11.322      854.051
05/22/2013  03:11:00     -475.038     -233.739      -10.463      204.955      193.305       89.807    42006.600    37366.868     8065.305       18.390        4.372      529.429       99.636        0.035      338.615       11.385      854.018
05/22/2013  03:12:00     -417.518     -258.822      -15.511      201.359      192.050      101.073    40545.593    36883.185    10215.767       16.458        4.382      491.233      103.341        0.044      338.615       11.383      854.033
05/22/2013  03:13:00     -410.926     -148.570        0.636      253.480      177.335       95.525    64252.086    31447.597     9125.011       14.786        5.241      436.959      103.743        0.056      338.578       11.323      854.042
05/22/2013  03:14:00     -336.406       16.026        0.838      200.854      153.777       89.431    40342.360    23647.314     7997.835        9.269        3.599      336.788       91.388        0.074      338.562       11.296      854.065
05/22/2013  03:15:00     -438.722     -223.755      -26.630      175.484      161.657       87.042    30794.808    26133.090     7576.241       15.387        3.225      492.487       89.441        0.033      338.585       11.333      854.036
05/22/2013  03:16:00     -334.201      -92.125       -2.225      194.262      162.107       79.636    37737.841    26278.771     6341.970        9.526        3.518      346.666       92.519        0.071      338.569       11.307      854.014
05/22/2013  03:17:00     -306.687     -279.516        0.733      208.119      177.714      123.169    43313.606    31582.392    15170.519       13.111        4.503      414.953      135.044        0.106      338.576       11.319      854.022
05/22/2013  03:18:00     -447.419     -317.939       -6.139      280.758      197.405      122.513    78824.825    38968.684    15009.404       21.703        6.640      548.880      142.596        0.067      338.592       11.346      854.070
05/22/2013  03:19:00     -483.434     -312.575      -12.869      222.669      197.241      105.860    49581.555    38904.155    11206.442       21.561        4.985      575.683      111.013        0.037      338.636       11.418      854.102
05/22/2013  03:20:00     -345.368     -165.291      -11.284      215.132      152.526       85.123    46281.785    23264.194     7245.978       11.174        3.840      382.884       99.926        0.068      338.618       11.389      854.106
05/22/2013  03:21:00     -310.662     -218.155       -8.775      179.237      141.774       97.331    32125.731    20099.866     9473.240       10.293        3.085      379.608      105.865        0.078      338.594       11.348      854.100
05/22/2013  03:22:00     -451.560     -117.297      -22.656      310.802      182.282       99.323    96597.928    33226.692     9865.052       17.890        6.984      466.546      114.488        0.060      338.584       11.332      854.090
05/22/2013  03:23:00     -426.310     -106.570       -3.834      228.820      149.719       81.454    52358.752    22415.918     6634.828       13.724        4.070      439.428       93.525        0.045      338.567       11.303      854.033
05/22/2013  03:24:00     -164.012     -127.453       28.398      164.953      151.505       89.610    27209.368    22953.823     8029.961        5.106        2.910      207.712       89.122        0.184      338.557       11.288      854.048
05/22/2013  03:25:00     -257.717     -131.044      -16.289      156.497      130.605       72.945    24491.295    17057.745     5320.982        6.535        2.344      289.121       70.451        0.059      338.551       11.276      854.056
05/22/2013  03:26:00     -397.413     -179.216      -10.309      244.561      186.641      100.193    59810.259    34834.913    10038.608       14.740        5.234      435.954      129.412        0.088      338.565       11.300      854.037
05/22/2013  03:27:00     -372.282     -196.898      -20.120      230.154      174.389      103.739    52970.848    30411.432    10761.837       13.594        4.707      421.145      120.725        0.082      338.566       11.302      854.020
05/22/2013  03:28:00     -385.289     -222.572       -0.721      262.522      226.097      116.713    68917.783    51119.793    13621.905       16.580        6.683      444.956      134.140        0.091      338.560       11.292      853.991
05/22/2013  03:29:00     -466.701     -285.583       -4.663      221.078      175.437      108.306    48875.344    30778.236    11730.083       19.537        4.569      547.145      110.839        0.041      338.550       11.276      853.983
05/22/2013  03:30:00     -284.459      -49.795       -7.859      174.005      154.983       71.998    30277.853    24019.834     5183.772        7.146        2.974      288.785       77.741        0.072      338.537       11.254      854.003
05/22/2013  03:31:00     -427.864      -58.509      -25.700      230.687      154.735       78.894    53216.640    23942.812     6224.233       13.525        4.169      431.846       81.977        0.036      338.533       11.246      853.997
05/22/2013  03:32:00     -267.490     -127.860       24.740      241.131      176.902       90.472    58144.338    31294.313     8185.187        9.305        4.881      296.478      116.693        0.155      338.555       11.284      853.970
05/22/2013  03:33:00     -320.391     -182.745       -0.792      238.144      159.175       98.943    56712.723    25336.828     9789.638       11.392        4.592      368.844      107.510        0.085      338.554       11.282      853.935
05/22/2013  03:34:00     -400.813      -83.590      -11.730      194.783      188.420      102.426    37940.555    35502.057    10491.152       12.584        4.197      409.436      111.532        0.074      338.487       11.170      853.952
05/22/2013  03:35:00     -299.594      -15.971       -2.361      169.774      124.516       75.040    28823.321    15504.134     5631.013        6.998        2.498      300.020       72.368        0.058      338.444       11.096      853.992
05/22/2013  03:36:00     -443.905     -140.981      -29.022      158.522      130.717       74.607    25129.367    17087.045     5566.178       13.277        2.389      465.754       72.976        0.025      338.471       11.141      854.013
05/22/2013  03:37:00     -340.598     -109.417      -11.817      169.191      121.317       67.789    28625.468    14717.821     4595.410        8.802        2.397      357.742       77.089        0.046      338.426       11.065      854.043
05/22/2013  03:38:00     -152.487      -62.545       20.912      159.821       79.649       67.821    25542.906     6343.966     4599.679        3.204        1.824      164.815       88.463        0.288      338.438       11.087      854.048
05/22/2013  03:39:00     -348.367     -142.840      -24.917      232.229      131.798       85.969    53930.122    17370.694     7390.648       11.052        3.935      376.514       99.825        0.070      338.463       11.127      854.022
05/22/2013  03:40:00     -468.455     -234.416      -12.373      216.799      213.366      109.755    47001.973    45525.187    12046.268       18.954        5.229      523.833      102.236        0.038      338.464       11.129      853.995
05/22/2013  03:41:00     -366.225     -126.820      -14.158      243.328      172.165       88.043    59208.451    29640.769     7751.550       12.348        4.830      387.562       80.498        0.043      338.454       11.112      854.011
05/22/2013  03:42:00     -298.417      -71.197      -19.374      137.894       86.402       62.234    19014.831     7465.254     3873.035        6.242        1.518      306.793       59.804        0.038      338.457       11.118      854.045
05/22/2013  03:43:00     -258.301      -61.432       10.772      185.785       98.571       74.151    34516.100     9716.167     5498.395        6.016        2.487      265.506       87.089        0.108      338.444       11.097      854.062
05/22/2013  03:44:00     -337.615     -115.233      -16.915      188.638      124.072       81.211    35584.370    15393.913     6595.268        9.255        2.879      356.739       88.735        0.062      338.480       11.157      854.038
05/22/2013  03:45:00     -414.583     -161.729        2.467      239.485      225.427      105.319    57352.976    50817.352    11092.090       15.863        5.963      445.011      118.302        0.071      338.494       11.179      854.044
05/22/2013  03:46:00     -275.756     -144.783      -23.699      139.523      140.523       65.659    19466.750    19746.672     4311.104        7.054        2.176      311.454       52.334        0.028      338.496       11.182      854.047
05/22/2013  03:47:00     -338.184      -50.456      -11.326      175.176      115.334       78.198    30686.735    13301.855     6114.871        8.356        2.505      341.927       89.994        0.069      338.451       11.107      854.066
05/22/2013  03:48:00     -443.181     -175.007       -7.906      206.537      203.910       89.311    42657.579    41579.422     7976.410       15.964        4.611      476.483       98.689        0.043      338.443       11.093      854.026
05/22/2013  03:49:00     -369.571     -177.945      -25.813      207.146      163.620       88.641    42909.635    26771.533     7857.229       12.321        3.877      410.180       99.036        0.058      338.483       11.160      854.039
05/22/2013  03:50:00     -457.600     -169.199      -32.135      295.600      166.519       98.889    87379.606    27728.553     9779.064       18.195        6.244      487.879      119.042        0.060      338.505       11.200      854.038
05/22/2013  03:51:00     -611.895     -234.169      -25.042      250.267      232.043      107.332    62633.670    53843.831    11520.149       27.891        6.400      655.172      105.067        0.026      338.538       11.254      854.045
05/22/2013  03:52:00     -298.583     -123.463       -5.930      185.818      154.238       64.759    34528.421    23789.372     4193.670        8.346        3.126      323.102       79.983        0.061      338.495       11.182      854.076
05/22/2013  03:53:00     -272.704      -46.827      -11.858      141.829      109.861       69.165    20115.333    12069.365     4783.779        5.683        1.848      276.695       72.830        0.069      338.440       11.089      854.120
05/22/2013  03:54:00     -296.277     -202.150      -23.271      219.295      159.916       80.840    48090.412    25573.098     6535.106       10.468        4.010      358.671      106.486        0.088      338.478       11.153      854.096
05/22/2013  03:55:00     -215.742      -80.381       16.961      167.363      169.499       78.734    28010.499    28729.945     6199.028        5.810        3.147      230.230       80.860        0.123      338.448       11.104      854.071
05/22/2013  03:56:00     -230.632      -76.433        6.845      126.165       90.126       63.337    15917.506     8122.714     4011.566        4.356        1.403      242.967       61.494        0.064      338.421       11.057      854.090
05/22/2013  03:57:00     -149.061      -74.069        2.721      109.573       79.594       57.253    12006.140     6335.156     3277.909        2.466        1.081      166.449       66.186        0.158      338.408       11.037      854.096
05/22/2013  03:58:00     -343.528     -130.260      -14.264      123.812      112.290       62.192    15329.384    12608.957     3867.835        8.349        1.590      367.395       45.826        0.016      338.364       10.961      854.083
05/22/2013  03:59:00     -442.127      -52.434      -29.363      145.478      139.197       69.947    21163.736    19375.678     4892.553       12.225        2.272      445.225       75.678        0.029      338.346       10.932      854.100
05/22/2013  04:00:00     -277.846      -45.542       -3.291      166.251      120.764       69.547    27639.546    14584.008     4836.794        6.316        2.353      281.554       57.910        0.042      338.318       10.886      854.100
05/22/2013  04:01:00     -334.237     -138.150      -19.353      129.655      115.731       66.950    16810.546    13393.745     4482.321        8.292        1.734      361.663       59.283        0.027      338.310       10.872      854.105
05/22/2013  04:02:00     -241.499      -51.376        4.737       90.937       95.715       50.707     8269.601     9161.396     2571.222        4.049        1.000      246.904       50.383        0.042      338.273       10.809      854.120
05/22/2013  04:03:00     -206.163        2.446        7.320      125.566       90.787       58.407    15766.899     8242.356     3411.331        3.499        1.371      206.178       71.602        0.121      338.285       10.829      854.104
05/22/2013  04:04:00     -339.272     -113.653       -7.609      129.274      113.630       60.035    16711.891    12911.708     3604.163        8.065        1.661      357.803       61.974        0.030      338.286       10.831      854.127
05/22/2013  04:05:00     -268.427      -44.901      -13.095      149.837       81.999       49.932    22451.200     6723.777     2493.166        5.295        1.583      272.157       54.960        0.041      338.290       10.838      854.121
05/22/2013  04:06:00     -408.305     -185.254      -17.130      147.119      121.771       71.023    21644.095    14828.140     5044.293       12.141        2.076      448.366       67.865        0.023      338.291       10.840      854.112
05/22/2013  04:07:00     -283.595      -25.729      -13.077      105.161      111.970       48.099    11058.806    12537.309     2313.553        5.358        1.295      284.760       52.254        0.034      338.254       10.778      854.133
05/22/2013  04:08:00     -274.288      -51.991      -15.387      113.179       88.879       47.198    12809.508     7899.533     2227.654        5.055        1.147      279.172       50.850        0.033      338.213       10.707      854.151
05/22/2013  04:09:00     -177.953      -57.782        2.520      101.857       83.031       61.644    10374.875     6894.124     3799.931        2.804        1.053      187.099       59.218        0.100      338.234       10.744      854.166
05/22/2013  04:10:00     -177.114        8.472        2.928      111.650       72.873       52.214    12465.778     5310.446     2726.336        2.597        1.025      177.316       56.833        0.103      338.187       10.666      854.193
05/22/2013  04:11:00     -166.469      -20.995       -4.691      118.621       72.112       55.476    14070.901     5200.078     3077.534        2.526        1.117      167.788       49.891        0.088      338.174       10.644      854.216
05/22/2013  04:12:00     -294.215       47.216      -26.487      106.755       86.122       42.438    11396.639     7416.994     1801.002        5.505        1.031      297.979       42.999        0.021      338.182       10.655      854.230
05/22/2013  04:13:00     -388.486       17.058      -37.792      181.172       80.116       51.554    32823.445     6418.625     2657.792        9.726        2.095      388.860       74.171        0.036      338.203       10.691      854.236
05/22/2013  04:14:00     -366.234      -94.116      -25.903      168.324       91.017       68.933    28332.860     8284.005     4751.766        9.250        2.068      378.134       88.864        0.055      338.205       10.696      854.271
05/22/2013  04:15:00     -337.735      -38.631      -35.621      140.565      117.694       56.671    19758.573    13851.895     3211.569        7.682        1.841      339.937       49.044        0.021      338.254       10.777      854.274
05/22/2013  04:16:00     -336.536     -109.463      -22.456      162.794      145.229       56.596    26501.785    21091.590     3203.093        8.826        2.540      353.890       55.260        0.024      338.277       10.816      854.302
05/22/2013  04:17:00     -154.523      -15.106      -11.175      100.475       72.426       51.604    10095.286     5245.470     2662.934        2.111        0.900      155.259       59.171        0.145      338.228       10.735      854.361
05/22/2013  04:18:00     -172.100       48.011      -26.072       87.509       86.093       37.898     7657.863     7411.927     1436.289        2.455        0.825      178.671       31.110        0.030      338.211       10.705      854.400
05/22/2013  04:19:00     -194.291       26.518      -11.332      111.484      109.522       57.756    12428.733    11995.151     3335.792        3.316        1.388      196.093       65.859        0.113      338.182       10.659      854.480
05/22/2013  04:20:00     -180.861      166.100      -21.061      132.225      136.704       69.802    17483.473    18688.017     4872.342        5.089        2.052      245.560       67.983        0.077      337.994       10.342      854.584
05/22/2013  04:21:00     -266.662      286.229      -30.133      170.243      182.726       91.804    28982.729    33388.815     8428.065       11.236        3.540      391.198      103.522        0.070      336.867        8.456      854.662
05/22/2013  04:22:00     -299.945      337.550      -68.515      153.439      131.259       85.298    23543.467    17228.811     7275.753       12.832        2.402      451.561       73.452        0.026      336.349        7.587      854.722
05/22/2013  04:23:00     -199.789      264.495      -42.106      126.888      114.507       75.617    16100.494    13111.863     5717.884        7.328        1.747      331.471       70.822        0.046      336.187        7.316      854.709
05/22/2013  04:24:00     -192.745      211.794      -42.746       92.328       90.340       47.382     8524.496     8161.396     2245.029        5.138        0.947      286.369       44.014        0.024      336.077        7.133      854.711
05/22/2013  04:25:00     -271.244      337.883      -60.295      143.248      169.308       83.604    20520.050    28665.298     6989.573       12.376        2.809      433.288       86.501        0.040      335.823        6.710      854.757
05/22/2013  04:26:00     -287.432      237.462      -52.727      153.640      136.957       78.486    23605.381    18757.240     6160.111        9.514        2.426      372.835       68.288        0.034      335.717        6.533      854.803
05/22/2013  04:27:00     -235.248      310.715      -48.303      127.677      143.896       87.512    16301.377    20706.012     7658.342        9.943        2.233      389.725       83.021        0.045      335.659        6.436      854.824
05/22/2013  04:28:00     -267.300      337.901      -69.069      143.733      146.715       76.010    20659.245    21525.270     5777.486       11.917        2.398      430.844       80.802        0.035      335.603        6.344      854.829
05/22/2013  04:29:00     -239.782      130.410      -43.931      115.969      125.289       64.252    13448.720    15697.223     4128.280        5.485        1.664      272.951       42.250        0.024      335.580        6.304      854.828
05/22/2013  04:30:00     -210.408      221.226      -47.413      102.035      107.590       61.801    10411.099    11575.706     3819.325        6.063        1.290      305.307       60.123        0.039      335.550        6.256      854.822
05/22/2013  04:31:00     -199.509       79.970      -19.640      111.041      141.175       61.572    12330.204    19930.247     3791.061        4.131        1.803      214.940       50.133        0.054      335.522        6.208      854.844
05/22/2013  04:32:00     -181.615      368.411      -48.044      135.479      145.624       89.289    18354.617    21206.347     7972.557       10.927        2.377      410.744       94.523        0.053      335.462        6.109      854.844
05/22/2013  04:33:00     -104.333      354.695      -50.931      108.462      142.968       59.836    11764.017    20439.714     3580.296        8.753        1.789      369.721       61.876        0.028      335.523        6.209      854.838
05/22/2013  04:34:00      -70.446      238.791      -32.428       88.389      128.589       56.223     7812.689    16535.018     3161.037        4.527        1.375      248.966       51.159        0.042      335.509        6.187      854.854
05/22/2013  04:35:00     -128.253      215.464      -23.885      107.564       85.952       54.692    11570.112     7387.810     2991.211        4.269        1.097      250.746       34.485        0.019      335.529        6.220      854.863
05/22/2013  04:36:00     -134.259      178.204      -24.125      138.598      197.935       75.110    19209.528    39178.440     5641.581        5.718        3.201      223.119       76.519        0.118      335.444        6.080      854.866
05/22/2013  04:37:00     -153.057      265.727      -37.437      120.349      158.374       64.207    14483.982    25082.180     4122.478        6.955        2.184      306.655       63.550        0.043      335.376        5.965      854.919
05/22/2013  04:38:00     -142.590      474.039      -56.359      168.862      216.059      106.272    28514.516    46681.545    11293.814       16.734        4.324      495.020      113.362        0.052      335.125        5.550      854.925
05/22/2013  04:39:00     -178.963      457.826      -62.706      177.800      220.201      114.377    31613.001    48488.264    13082.151       16.935        4.659      491.561      110.768        0.051      335.014        5.365      854.914
05/22/2013  04:40:00     -118.012      555.806      -57.921      132.873      241.176       97.920    17655.315    58165.771     9588.254       20.579        4.270      568.197      109.724        0.037      334.837        5.069      854.921
05/22/2013  04:41:00     -153.003      572.077      -74.081      145.229      289.878       91.225    21091.528    84029.086     8321.993       23.478        5.672      592.184      111.861        0.036      334.779        4.974      854.929
05/22/2013  04:42:00     -127.883      533.349      -66.215      136.446      243.119       94.376    18617.530    59106.872     8906.777       19.590        4.332      548.466      101.907        0.035      334.712        4.861      854.978
05/22/2013  04:43:00     -171.844      462.351      -68.897      185.600      213.121       90.727    34447.533    45420.497     8231.300       16.805        4.405      493.254       97.799        0.039      334.638        4.739      854.984
05/22/2013  04:44:00      -94.365      567.636      -53.274      162.648      204.570       99.239    26454.490    41848.979     9848.360       20.604        3.908      575.426       97.190        0.029      334.629        4.724      854.911
05/22/2013  04:45:00     -115.884      270.207      -16.590      134.112      178.995       89.548    17986.044    32039.120     8018.765        7.237        2.902      294.009       94.581        0.103      334.674        4.799      854.939
05/22/2013  04:46:00     -113.982      430.787      -47.344      132.600      300.259       81.654    17582.666    90155.592     6667.349       15.758        5.720      445.611      107.351        0.058      334.583        4.648      854.943
05/22/2013  04:47:00     -235.254      535.756      -78.371      154.640      213.233       92.811    23913.432    45468.155     8613.822       21.324        3.900      585.132      102.232        0.031      334.441        4.412      855.007
05/22/2013  04:48:00     -248.112      433.348      -61.756      204.958      179.605       83.392    42007.917    32257.796     6954.156       16.718        4.061      499.349       95.665        0.037      334.395        4.336      855.050
05/22/2013  04:49:00     -174.156      422.205      -44.571      144.707      156.875       77.770    20940.176    24609.700     6048.188       13.108        2.580      456.714       70.071        0.024      334.387        4.323      855.045
05/22/2013  04:50:00     -218.551      470.206      -62.826      229.837      256.501       88.731    52825.151    65792.945     7873.237       19.962        6.325      518.515      110.842        0.046      334.355        4.269      855.059
05/22/2013  04:51:00     -267.260      645.179      -68.968      149.056      201.395      114.801    22217.660    40559.937    13179.292       28.418        3.798      698.343       99.653        0.020      334.262        4.113      855.094
05/22/2013  04:52:00     -185.596      594.578      -63.097      160.054      198.397      102.992    25617.221    39361.191    10607.420       23.375        3.779      622.871      106.637        0.029      334.231        4.062      855.093
05/22/2013  04:53:00     -178.254      492.149      -51.533      136.336      206.994       89.714    18587.598    42846.482     8048.621       17.305        3.474      523.436       96.436        0.034      334.217        4.041      855.109
05/22/2013  04:54:00     -337.617      526.655      -60.057      204.533      240.684      124.657    41833.776    57928.672    15539.400       25.511        5.765      625.580      118.919        0.036      334.154        3.936      855.099
05/22/2013  04:55:00     -379.748      640.555     -119.103      193.462      308.079      118.797    37427.370    94912.504    14112.699       35.755        7.323      744.660      143.524        0.037      334.102        3.849      855.116
05/22/2013  04:56:00     -396.153      602.172      -95.830      216.140      247.283      136.802    46716.316    61148.940    18714.715       32.763        6.329      720.797      148.087        0.042      334.052        3.766      855.130
05/22/2013  04:57:00     -311.128      672.666      -93.314      220.363      268.148      121.294    48559.954    71903.396    14712.254       34.655        6.759      741.134      138.468        0.035      333.987        3.658      855.140
05/22/2013  04:58:00     -230.519      436.713      -51.166      161.046      221.979      116.083    25935.967    49274.833    13475.236       16.756        4.434      493.819      120.627        0.060      333.991        3.664      855.108
05/22/2013  04:59:00     -267.514      558.801      -61.557      165.649      226.401      103.401    27439.691    51257.358    10691.699       23.848        4.469      619.534      108.150        0.030      333.958        3.612      855.130
05/22/2013  05:00:00     -194.390      356.428      -23.588      170.455      197.636      109.404    29054.740    39060.046    11969.142       12.272        4.004      405.990      103.014        0.064      334.000        3.681      855.172
05/22/2013  05:01:00     -232.540      364.333      -51.182      132.058      158.243       67.487    17439.429    25040.822     4554.543       11.822        2.352      432.220       65.383        0.023      334.021        3.716      855.183
05/22/2013  05:02:00     -187.276      452.275      -46.434      170.977      201.359      100.342    29232.968    40545.560    10068.520       16.080        3.992      489.515      107.440        0.048      333.986        3.658      855.137
05/22/2013  05:03:00     -303.748      502.972      -75.194      163.509      250.930       99.332    26735.253    62965.716     9866.924       22.521        4.978      587.574      106.351        0.033      333.911        3.534      855.139
05/22/2013  05:04:00     -149.673      365.566      -39.926      135.551      211.893       97.360    18374.030    44898.679     9479.008       11.518        3.638      395.019       94.271        0.057      333.924        3.555      855.152
05/22/2013  05:05:00     -182.502      429.905      -41.664      147.585      231.683       91.175    21781.424    53676.800     8312.897       15.180        4.189      467.039       90.664        0.038      333.891        3.500      855.150
05/22/2013  05:06:00     -164.995      316.002      -35.932      163.721      221.537       94.858    26804.723    49078.612     8998.055       10.661        4.244      356.484       65.095        0.033      333.842        3.419      855.116
05/22/2013  05:07:00     -258.592      455.199      -66.394      185.532      252.720      117.227    34422.052    63867.645    13742.164       19.523        5.602      523.522      137.148        0.069      333.796        3.342      855.095
05/22/2013  05:08:00     -179.466      421.768      -44.779      151.737      223.763       91.880    23024.049    50069.868     8442.011       14.680        4.077      458.362       98.265        0.046      333.805        3.356      855.105
05/22/2013  05:09:00     -220.663      473.804      -51.417      187.349      219.368      119.703    35099.489    48122.406    14328.756       18.667        4.878      522.668      130.658        0.062      333.815        3.373      855.065
05/22/2013  05:10:00     -274.318      487.307      -78.263      161.438      236.224      106.534    26062.259    55801.676    11349.449       20.601        4.661      559.213      103.415        0.034      333.832        3.400      855.008
05/22/2013  05:11:00     -309.857      512.746      -80.367      203.587      281.089      116.928    41447.606    79011.066    13672.044       24.973        6.707      599.099      139.016        0.054      333.795        3.341      854.988
05/22/2013  05:12:00     -355.419      444.690      -74.929      208.367      217.705      107.659    43416.835    47395.358    11590.530       21.602        5.120      569.273      113.618        0.040      333.769        3.297      854.967
05/22/2013  05:13:00     -229.960      322.864      -46.601      152.957      191.631       98.767    23395.729    36722.406     9754.978       11.457        3.494      396.387      103.877        0.069      333.785        3.323      854.960
05/22/2013  05:14:00     -279.381      456.489      -81.597      155.184      165.578       84.171    24082.136    27415.954     7084.829       17.583        2.929      535.197       90.781        0.029      333.775        3.305      854.930
05/22/2013  05:15:00     -247.212      361.409      -44.533      164.426      217.300      116.309    27035.782    47219.285    13527.671       14.073        4.389      437.870       82.784        0.036      333.795        3.339      854.919
05/22/2013  05:16:00     -266.721      332.440      -36.692      169.187      180.125       86.368    28624.121    32445.070     7459.476       12.575        3.426      426.212       94.040        0.049      333.809        3.362      854.942
05/22/2013  05:17:00     -290.634      377.235      -63.164      171.003      172.410      116.395    29242.012    29725.159    13547.804       15.162        3.626      476.208      104.775        0.048      333.716        3.209      854.957
05/22/2013  05:18:00     -294.040      434.276      -39.486      213.834      205.783      124.770    45724.776    42346.832    15567.588       19.011        5.182      524.457      127.072        0.059      333.719        3.213      854.935
05/22/2013  05:19:00     -233.810      493.399      -63.751      150.883      180.476      102.490    22765.823    32571.691    10504.298       18.399        3.292      545.994      106.595        0.038      333.689        3.166      854.902
05/22/2013  05:20:00     -283.524      387.335      -46.647      144.431      284.489      105.125    20860.310    80933.883    11051.365       17.269        5.642      480.015      109.029        0.052      333.691        3.169      854.895
05/22/2013  05:21:00     -316.086      412.207      -58.984      193.762      219.032      107.280    37543.519    47974.975    11509.061       18.515        4.851      519.447      126.890        0.060      333.678        3.147      854.907
05/22/2013  05:22:00     -379.430      485.247      -90.152      150.920      201.726       88.845    22776.792    40693.548     7893.444       22.945        3.568      615.981       95.014        0.024      333.627        3.063      854.901
05/22/2013  05:23:00     -295.048      377.358      -59.153      187.392      207.380      115.420    35115.905    43006.400    13321.863       16.218        4.572      479.012      118.643        0.061      333.634        3.074      854.859
05/22/2013  05:24:00     -356.827      453.672      -89.680      160.461      224.229       97.991    25747.742    50278.852     9602.154       21.339        4.281      577.186       94.163        0.027      333.613        3.040      854.868
05/22/2013  05:25:00     -313.231      518.430      -80.443      174.861      189.374       98.768    30576.403    35862.655     9755.148       22.476        3.810      605.709      102.026        0.028      333.605        3.026      854.908
05/22/2013  05:26:00     -344.436      361.061      -68.319      169.857      179.549      101.354    28851.421    32237.994    10272.562       16.250        3.568      499.001       92.568        0.034      333.620        3.053      854.943
05/22/2013  05:27:00     -330.420      409.965      -84.046      184.278      184.573      105.857    33958.385    34067.081    11205.662       18.176        3.962      526.544      113.721        0.047      333.586        2.993      854.970
05/22/2013  05:28:00     -305.133      461.186      -45.932      193.087      242.200      134.304    37282.720    58660.931    18037.590       21.092        5.699      552.990      133.237        0.058      333.612        3.036      854.950
05/22/2013  05:29:00     -267.126      360.088      -58.992      125.148      207.186       85.115    15662.008    42926.074     7244.560       13.515        3.292      448.352       98.814        0.049      333.593        3.006      854.972
05/22/2013  05:30:00     -183.254      352.736      -52.223      107.961      220.022       89.455    11655.639    48409.763     8002.255       11.439        3.403      397.497       84.288        0.045      333.603        3.025      854.927
05/22/2013  05:31:00     -294.684      370.691      -75.124      157.736      171.141       92.526    24880.653    29289.281     8561.020       14.630        3.137      473.551       84.162        0.032      333.565        2.962      854.931
05/22/2013  05:32:00     -382.063      514.910      -97.655      222.617      256.791      127.917    49558.256    65941.849    16362.637       27.622        6.593      641.174      155.934        0.059      333.528        2.898      854.964
05/22/2013  05:33:00     -306.530      478.320      -71.537      208.729      206.622      108.721    43567.912    42692.494    11820.260       21.295        4.904      568.112      120.844        0.045      333.527        2.895      855.012
05/22/2013  05:34:00     -230.683      413.384      -37.666      178.886      212.609      107.396    32000.023    45202.413    11533.950       15.711        4.437      473.392      123.946        0.069      333.564        2.959      854.990
05/22/2013  05:35:00     -325.317      371.060      -39.508      187.857      224.990      105.019    35290.142    50620.588    11029.056       17.099        4.847      493.474      102.729        0.043      333.527        2.897      855.001
05/22/2013  05:36:00     -298.363      477.121      -77.580      217.991      216.442      104.277    47520.265    46847.286    10873.599       21.394        5.262      562.730      108.870        0.037      333.533        2.908      855.037
05/22/2013  05:37:00     -334.704      340.516      -58.900      196.332      220.642      110.501    38546.192    48682.958    12210.572       16.542        4.972      477.471      121.999        0.065      333.526        2.894      855.076
05/22/2013  05:38:00     -250.890      296.420      -40.876      183.960      201.777       87.879    33841.375    40713.800     7722.670       11.736        4.114      388.343      103.956        0.072      333.544        2.925      855.090
05/22/2013  05:39:00     -295.702      460.513      -57.237      211.670      236.709      115.091    44804.278    56031.159    13245.870       20.841        5.704      547.277      127.179        0.054      333.466        2.795      855.148
05/22/2013  05:40:00     -342.065      455.433      -73.815      218.885      235.592      110.716    47910.495    55503.455    12257.943       22.275        5.784      569.586      109.152        0.037      333.455        2.780      855.184
05/22/2013  05:41:00     -290.477      464.813      -70.131      183.997      220.987      109.149    33854.845    48835.075    11913.586       19.996        4.730      548.113      121.095        0.049      333.449        2.768      855.181
05/22/2013  05:42:00     -302.791      499.404      -48.118      208.868      253.075      122.866    43625.640    64047.154    15095.991       23.306        6.138      584.026      132.517        0.051      333.450        2.769      855.196
05/22/2013  05:43:00     -243.973      369.800      -53.443      188.918      199.891      100.719    35690.030    39956.473    10144.275       14.244        4.290      443.029      120.908        0.074      333.424        2.728      855.253
05/22/2013  05:44:00     -276.961      410.664      -56.444      168.435      243.331       98.384    28370.374    59210.071     9679.481       17.288        4.863      495.331      115.486        0.054      333.418        2.716      855.266
05/22/2013  05:45:00     -191.442      381.070      -54.769      151.817      175.439       91.218    23048.319    30778.963     8320.749       12.349        3.107      426.456       73.375        0.030      333.467        2.796      855.290
05/22/2013  05:46:00     -167.438      368.452      -42.618      182.046      253.012      109.210    33140.888    64015.304    11926.851       13.732        5.454      404.712      103.269        0.065      333.504        2.860      855.319
05/22/2013  05:47:00     -174.469      277.304      -36.909      173.652      164.214      100.939    30155.170    26966.126    10188.744        8.799        3.366      327.623      112.135        0.117      333.503        2.857      855.356
05/22/2013  05:48:00     -237.858      370.452      -57.362      227.199      225.081      104.827    51619.295    50661.272    10988.685       15.516        5.663      440.240      132.970        0.091      333.516        2.879      855.373
05/22/2013  05:49:00     -208.514      439.774      -43.364      144.414      212.803      106.132    20855.290    45285.001    11263.939       15.807        3.870      486.703       98.428        0.041      333.463        2.790      855.408
05/22/2013  05:50:00     -224.838      449.104      -48.848      161.126      168.438       96.305    25961.525    28371.396     9274.647       15.911        3.180      502.241       94.248        0.035      333.448        2.766      855.473
05/22/2013  05:51:00     -144.272      460.638      -60.544      141.041      168.243       86.772    19892.696    28305.874     7529.403       14.619        2.786      482.703       74.165        0.024      333.446        2.762      855.430
05/22/2013  05:52:00     -178.563      444.955      -55.396      177.821      232.112      103.600    31620.479    53875.924    10732.904       16.456        4.811      479.447      115.203        0.058      333.440        2.753      855.408
05/22/2013  05:53:00     -190.027      338.012      -28.828      148.753      219.953       93.901    22127.407    48379.362     8817.347       11.524        3.966      387.766      103.349        0.071      333.476        2.812      855.481
05/22/2013  05:54:00     -185.590      417.392      -42.825      140.702      215.802       98.203    19796.931    46570.318     9643.744       14.324        3.801      456.793      106.143        0.054      333.448        2.766      855.573
05/22/2013  05:55:00     -168.985      671.532      -67.179      181.236      171.018       96.690    32846.365    29247.168     9348.952       27.772        3.572      692.467       94.779        0.019      333.401        2.691      855.555
05/22/2013  05:56:00     -206.410      675.737      -91.636      195.523      171.280       91.921    38229.098    29336.908     8449.465       29.180        3.801      706.559       97.416        0.019      333.373        2.643      855.583
05/22/2013  05:57:00     -219.873      408.435      -57.404      167.100      178.340       79.360    27922.299    31805.159     6297.949       14.223        3.301      463.857       87.799        0.036      333.396        2.680      855.734
05/22/2013  05:58:00     -211.835       22.848      -37.514       95.982      119.194       80.054     9212.626    14207.176     6408.639        3.831        1.491      213.064       58.532        0.075      333.482        2.824      855.767
05/22/2013  05:59:00      -72.378      280.062      -21.283       89.098      134.820       61.945     7938.474    18176.423     3837.198        5.703        1.498      289.264       65.236        0.051      333.448        2.765      855.798
05/22/2013  06:00:00     -126.537      339.254      -44.687      111.130      196.275       73.730    12349.945    38523.789     5436.040        9.469        2.815      362.084       81.257        0.050      333.466        2.796      855.841
05/22/2013  06:01:00     -186.474      391.602      -72.739       99.977      202.866       65.676     9995.378    41154.707     4313.345       12.443        2.773      433.733       61.473        0.020      333.482        2.822      855.884
05/22/2013  06:02:00     -155.754       94.595      -14.479      122.047      104.280       69.524    14895.489    10874.399     4833.581        3.200        1.530      182.229       64.803        0.126      333.537        2.915      855.947
05/22/2013  06:03:00     -133.984      477.067      -53.006      137.891      221.705       93.477    19013.849    49152.986     8737.899       16.261        3.845      495.524      105.201        0.045      333.411        2.707      855.904
05/22/2013  06:04:00     -116.185      408.449      -41.267      130.301      233.285       83.747    16978.420    54422.007     7013.593       13.021        3.921      424.652      108.592        0.065      333.446        2.762      855.927
05/22/2013  06:05:00     -134.269      674.120      -79.590      177.578      187.887       94.825    31533.836    35301.497     8991.841       27.730        3.791      687.362       87.717        0.016      333.357        2.617      855.976
05/22/2013  06:06:00     -155.600      450.291      -53.613      162.180      162.624       71.789    26302.336    26446.704     5153.723       14.386        2.895      476.417       66.712        0.020      333.366        2.632      856.033
05/22/2013  06:07:00     -135.483      491.023      -60.279      129.898      155.331       70.970    16873.558    24127.605     5036.731       15.456        2.302      509.372       66.992        0.017      333.333        2.577      856.043
05/22/2013  06:08:00     -150.046      291.092      -33.268      128.784      146.198       75.885    16585.342    21373.727     5758.582        7.603        2.186      327.489       78.005        0.057      333.388        2.667      856.062
05/22/2013  06:09:00      -54.256      221.171       -4.568       91.870      166.138       81.420     8440.128    27601.926     6629.182        4.727        2.134      227.729       87.412        0.147      333.438        2.751      856.060
05/22/2013  06:10:00       17.115      329.198      -17.872      136.981      194.621       92.353    18763.825    37877.161     8529.100        8.706        3.259      329.642      105.122        0.102      333.392        2.675      855.988
05/22/2013  06:11:00     -125.063      479.460      -46.855      172.737      171.891       89.174    29838.217    29546.679     7951.958       15.751        3.367      495.503       87.365        0.031      333.369        2.635      856.015
05/22/2013  06:12:00     -156.828      500.198      -57.438      107.191      136.660       68.594    11489.867    18675.866     4705.098       15.647        1.744      524.207       60.631        0.013      333.301        2.525      856.075
05/22/2013  06:13:00      -13.863      421.725      -45.725      122.137      128.980       73.882    14917.329    16635.820     5458.607       10.857        1.851      421.953       75.367        0.032      333.287        2.501      856.061
05/22/2013  06:14:00      -31.648      162.171       -5.350       90.420      107.693       66.089     8175.780    11597.698     4367.771        2.573        1.207      165.230       59.754        0.131      333.337        2.584      856.063
05/22/2013  06:15:00     -126.793      361.868      -37.557      128.357      130.231       66.323    16475.646    16960.167     4398.774        9.313        1.892      383.439       59.199        0.024      333.309        2.536      856.130
05/22/2013  06:16:00      -62.504      504.269      -55.846       84.330      161.980       73.532     7111.564    26237.679     5406.908       15.003        1.938      508.128       80.198        0.025      333.242        2.425      856.174
05/22/2013  06:17:00     -108.147      362.388      -31.460      128.636      168.265       79.037    16547.121    28313.145     6246.861        9.755        2.555      378.181       81.091        0.046      333.288        2.501      856.211
05/22/2013  06:18:00      -95.485      338.636      -33.790      136.192      116.116       75.889    18548.395    13482.903     5759.079        8.135        1.890      351.841       73.510        0.044      333.352        2.607      856.264
05/22/2013  06:19:00      -19.649      487.713      -58.063      106.925      157.541       81.915    11433.062    24819.196     6710.090       14.228        2.148      488.109       85.832        0.031      333.246        2.432      856.259
05/22/2013  06:20:00      -37.073      349.715      -33.036      146.354      146.078       80.471    21419.356    21338.650     6475.509        8.699        2.462      351.674       78.538        0.050      333.293        2.510      856.283
05/22/2013  06:21:00     -106.688      526.901      -50.925      105.680      182.345       73.432    11168.261    33249.556     5392.226       17.070        2.491      537.594       81.933        0.023      333.253        2.443      856.354
05/22/2013  06:22:00      -16.370      478.168      -46.625      108.496      204.530       80.918    11771.399    41832.714     6547.748       14.561        3.008      478.448       93.438        0.038      333.235        2.414      856.336
05/22/2013  06:23:00      -96.979      581.759      -73.970      183.656      213.577       83.874    33729.513    45614.969     7034.832       21.983        4.319      589.787       93.704        0.025      333.244        2.429      856.354
05/22/2013  06:24:00     -149.508      419.687      -46.194      197.367      211.325       90.359    38953.876    44658.270     8164.713       14.618        4.589      445.522       93.645        0.044      333.295        2.513      856.363
05/22/2013  06:25:00      -56.478      580.732      -73.306      109.752      195.486       77.206    12045.456    38214.858     5960.768       20.101        2.811      583.472       92.766        0.025      333.249        2.436      856.381
05/22/2013  06:26:00     -104.556      521.872      -70.412       92.912      131.205       65.634     8632.726    17214.630     4307.769       15.919        1.508      532.243       48.047        0.008      333.282        2.491      856.441
05/22/2013  06:27:00     -102.772      467.190      -42.016       93.015      149.180       74.398     8651.862    22254.638     5535.065       13.351        1.822      478.360       68.470        0.020      333.288        2.501      856.464
05/22/2013  06:28:00     -127.007      268.917      -45.792      124.195      168.642       55.762    15424.444    28440.181     3109.378        6.875        2.349      297.401       48.233        0.026      333.358        2.617      856.457
05/22/2013  06:29:00      -93.749      172.008      -27.208      118.469      159.065       65.860    14034.958    25301.786     4337.488        4.139        2.184      195.897       84.343        0.185      333.409        2.702      856.477
05/22/2013  06:30:00      -76.122      415.123      -51.412      142.711      138.708       74.748    20366.298    19239.989     5587.189       11.297        2.260      422.045       77.563        0.034      333.309        2.537      856.515
05/22/2013  06:31:00      -15.130      277.710      -23.925      107.896      145.237       83.846    11641.575    21093.877     7030.141        5.884        1.988      278.122       74.153        0.071      333.322        2.557      856.453
05/22/2013  06:32:00     -202.812      355.015      -52.371      158.514      199.945       80.576    25126.619    39977.944     6492.443       12.074        3.580      408.862       98.362        0.058      333.373        2.643      856.543
05/22/2013  06:33:00     -171.578      318.436      -29.403      108.739      181.244       85.993    11824.146    32849.526     7394.747        9.188        2.603      361.718       85.115        0.055      333.346        2.597      856.598
05/22/2013  06:34:00     -161.152      205.320      -23.950      129.505      131.218       64.877    16771.435    17218.113     4209.018        5.344        1.910      261.010       58.628        0.050      333.346        2.599      856.635
05/22/2013  06:35:00      -94.611      383.217      -45.293      118.779      143.447       65.096    14108.536    20577.154     4237.453        9.838        1.946      394.723       59.100        0.022      333.337        2.583      856.603
05/22/2013  06:36:00     -190.218      401.326      -46.944      130.147      167.713       80.674    16938.133    28127.746     6508.353       12.550        2.579      444.123       82.119        0.034      333.309        2.536      856.635
05/22/2013  06:37:00     -112.928      333.873      -27.655      121.533      166.959       85.024    14770.167    27875.286     7229.064        8.742        2.494      352.454       87.685        0.062      333.377        2.649      856.631
05/22/2013  06:38:00     -128.501      254.931      -25.028      115.393      176.653       72.789    13315.568    31206.206     5298.230        6.596        2.491      285.486       81.020        0.081      333.434        2.744      856.653
05/22/2013  06:39:00     -143.344      344.687      -44.922       89.594      113.161       70.424     8027.167    12805.321     4959.482        8.358        1.290      373.305       65.642        0.031      333.340        2.587      856.656
05/22/2013  06:40:00     -211.817      414.499      -52.987      143.456      153.293       77.609    20579.530    23498.727     6023.082       13.478        2.505      465.484       75.890        0.027      333.334        2.578      856.656
05/22/2013  06:41:00     -136.805      332.136      -32.002      110.586      153.712       68.034    12229.158    23627.426     4628.559        8.526        2.024      359.208       79.196        0.049      333.479        2.818      856.673
05/22/2013  06:42:00      -41.475      382.426      -38.424       92.200      191.881       65.238     8500.832    36818.458     4256.017        9.950        2.479      384.669       76.335        0.039      333.403        2.691      856.636
05/22/2013  06:43:00     -199.108      578.405      -59.049      162.679      189.147       92.869    26464.569    35776.449     8624.656       22.426        3.543      611.716       92.444        0.023      333.303        2.525      856.646
05/22/2013  06:44:00     -177.362      361.995      -32.273      138.582      124.939       86.838    19205.071    15609.828     7540.778       10.294        2.118      403.110       80.151        0.040      333.381        2.656      856.701
05/22/2013  06:45:00     -105.026      422.277      -42.434      100.394      159.279       82.683    10078.999    25369.913     6836.456       11.671        2.114      435.142       84.801        0.038      333.321        2.555      856.747
05/22/2013  06:46:00     -104.510      508.723      -73.841      133.971      214.575       73.286    17948.135    46042.508     5370.818       17.225        3.468      519.347       96.995        0.035      333.291        2.508      856.718
05/22/2013  06:47:00     -154.230      453.165      -50.270      124.764      165.871       72.065    15566.111    27513.136     5193.299       13.996        2.414      478.692       54.677        0.013      333.377        2.649      856.732
05/22/2013  06:48:00     -104.570      298.923      -21.417      137.818      206.325       87.732    18993.906    42570.212     7696.944        8.499        3.463      316.686       97.584        0.095      333.475        2.811      856.767
05/22/2013  06:49:00     -142.352      328.274      -42.175      122.682      145.002       71.072    15050.778    21025.606     5051.185        8.546        2.056      357.810       74.709        0.044      333.402        2.691      856.775
05/22/2013  06:50:00     -119.211      310.055      -28.311      110.137      195.339       85.930    12130.088    38157.315     7383.889        8.440        2.884      332.183       96.217        0.084      333.462        2.789      856.783
05/22/2013  06:51:00     -105.774      341.838      -34.921      107.265      148.451       71.446    11505.768    22037.702     5104.485        8.395        1.932      357.829       76.983        0.046      333.460        2.786      856.819
05/22/2013  06:52:00     -184.110      479.896      -62.881      125.015      165.652       70.734    15628.825    27440.667     5003.255       15.810        2.404      514.001       59.403        0.013      333.359        2.620      856.815
05/22/2013  06:53:00      -87.900      421.451      -30.775      148.419      256.768       95.075    22028.286    65930.037     9039.333       14.163        4.850      430.520      126.309        0.086      333.471        2.805      856.792
05/22/2013  06:54:00     -160.838      500.311      -65.788      136.537      171.379       83.015    18642.471    29370.645     6891.512       16.769        2.745      525.528       83.498        0.025      333.354        2.612      856.797
05/22/2013  06:55:00     -168.789      404.234      -46.868      134.279      169.392       88.321    18030.947    28693.703     7800.585       12.430        2.726      438.058       80.133        0.033      333.412        2.707      856.806
05/22/2013  06:56:00      -89.829      262.298      -14.922       88.842      119.196       60.903     7892.836    14207.579     3709.183        5.145        1.290      277.254       67.317        0.059      333.596        3.011      856.818
05/22/2013  06:57:00       -0.650      519.231      -52.194      124.977      217.290       90.327    15619.284    47215.082     8159.001       17.165        3.550      519.232       99.364        0.037      333.461        2.789      856.796
05/22/2013  06:58:00     -139.827      418.991      -40.377      107.514      164.216       77.379    11559.189    26966.803     5987.483       12.062        2.226      441.707       80.217        0.033      333.459        2.786      856.829
05/22/2013  06:59:00      -89.909      576.837      -66.743      105.796      166.648       68.184    11192.878    27771.645     4649.060       19.444        2.181      583.801       73.017        0.016      333.422        2.723      856.847
05/22/2013  07:00:00     -141.232      549.701      -76.352      118.473      192.022       68.082    14035.810    36872.600     4635.206       19.173        2.777      567.554       76.952        0.018      333.374        2.644      856.854
05/22/2013  07:01:00      -73.633      432.484      -27.058      137.367      180.318      103.212    18869.612    32514.474    10652.645       12.760        3.102      438.708      111.676        0.065      333.507        2.863      856.827
05/22/2013  07:02:00     -133.043      538.138      -62.384      132.660      186.367       84.525    17598.755    34732.535     7144.407       18.532        2.974      554.340       92.231        0.028      333.443        2.757      856.819
05/22/2013  07:03:00      -72.482      383.423      -47.743       82.732      146.598       66.635     6844.552    21491.090     4440.193        9.365        1.639      390.213       65.485        0.028      333.600        3.018      856.824
05/22/2013  07:04:00     -108.840      428.238      -35.409      161.102      238.086       92.159    25953.883    56684.969     8493.211       14.379        4.557      441.853      112.565        0.065      333.612        3.039      856.836
05/22/2013  07:05:00      -79.414      501.394      -42.934       89.895      171.044       78.384     8081.198    29255.899     6143.980       15.150        2.174      507.644       85.244        0.028      333.545        2.925      856.835
05/22/2013  07:06:00      -74.911      456.058      -55.874      127.331      187.708       69.462    16213.132    35234.299     4824.940       13.649        2.814      462.169       69.455        0.023      333.571        2.970      856.872
05/22/2013  07:07:00     -109.850      483.017      -49.863      108.007      244.072       74.873    11665.489    59571.291     5606.030       16.234        3.842      495.351       94.137        0.036      333.580        2.985      856.864
05/22/2013  07:08:00     -120.096      486.819      -63.630      133.407      151.835       77.146    17797.365    23053.786     5951.471       15.112        2.340      501.413       64.024        0.016      333.596        3.011      856.878
05/22/2013  07:09:00     -174.801      432.342      -50.652      129.084      162.541       81.039    16662.755    26419.595     6567.386       13.483        2.482      466.342       81.462        0.031      333.614        3.041      856.914
05/22/2013  07:10:00     -146.718      402.529      -44.677      170.391      143.183       76.458    29033.205    20501.363     5845.825       12.045        2.769      428.434       64.859        0.023      333.663        3.122      856.899
05/22/2013  07:11:00      -54.437      469.311      -32.078      115.787      208.106       77.229    13406.532    43308.015     5964.245       14.345        3.134      472.458       92.490        0.038      333.704        3.190      856.866
05/22/2013  07:12:00      -68.643      600.907      -61.290       96.929      203.999       63.501     9395.240    41615.460     4032.361       21.229        2.752      604.815       77.191        0.016      333.594        3.008      856.878
05/22/2013  07:13:00      -67.122      684.100      -65.836      137.867      210.661       81.549    19007.274    44378.057     6650.258       27.342        3.502      687.385       88.184        0.016      333.510        2.869      856.866
05/22/2013  07:14:00     -112.836      644.584      -70.875      110.500      167.928       68.389    12210.215    28199.770     4677.025       23.916        2.254      654.385       53.985        0.007      333.535        2.910      856.885
05/22/2013  07:15:00     -132.344      612.250      -57.473      147.260      208.754       97.840    21685.394    43578.208     9572.697       23.524        3.742      626.391      105.678        0.028      333.571        2.969      856.930
05/22/2013  07:16:00      -98.782      584.467      -69.793       87.699      184.921       77.497     7691.086    34195.859     6005.806       20.205        2.395      592.756       88.463        0.022      333.593        3.006      856.943
05/22/2013  07:17:00      -21.082      410.302      -33.286      104.509      231.392       79.202    10922.072    53542.241     6272.991       12.030        3.537      410.843      106.926        0.068      333.747        3.261      856.918
05/22/2013  07:18:00     -114.246      309.112      -44.740      100.377      146.082       62.807    10075.515    21340.042     3944.712        7.297        1.768      329.549       68.940        0.044      333.831        3.400      856.933
05/22/2013  07:19:00     -110.786      367.411      -28.077      127.161      158.372       74.071    16170.038    25081.653     5486.457        9.739        2.337      383.750       84.837        0.049      333.899        3.514      856.963
05/22/2013  07:20:00      -61.247      308.911      -24.697      106.264      171.364       72.295    11292.055    29365.507     5226.552        7.283        2.294      314.925       82.349        0.068      333.971        3.633      856.987
05/22/2013  07:21:00      -29.660      583.743      -73.826       92.285      149.080       62.666     8516.469    22224.821     3927.073       19.087        1.733      584.496       64.788        0.012      333.833        3.403      857.005
05/22/2013  07:22:00      -80.801      486.511      -36.820       90.203      132.781       64.021     8136.610    17630.849     4098.714       13.722        1.493      493.175       64.377        0.017      333.903        3.518      857.010
05/22/2013  07:23:00      -71.301      347.913      -24.578       92.868      136.515       69.199     8624.545    18636.467     4788.491        7.938        1.602      355.144       72.213        0.041      334.042        3.750      857.012
05/22/2013  07:24:00      -18.403      394.902      -46.835      131.836      145.871       65.014    17380.759    21278.230     4226.859       10.067        2.144      395.331       64.806        0.027      333.996        3.673      856.989
05/22/2013  07:25:00      -93.110      519.773      -54.505      124.885      242.247       89.927    15596.170    58683.444     8086.845       18.207        4.118      528.047       97.801        0.034      333.936        3.575      856.969
05/22/2013  07:26:00      -70.468      566.949      -56.832      117.802      224.511       82.945    13877.219    50405.342     6879.860       20.038        3.558      571.312       89.616        0.025      333.895        3.506      856.960
05/22/2013  07:27:00     -119.897      664.522      -67.983      106.284      232.518       80.830    11296.305    54064.625     6533.537       26.623        3.595      675.252       97.228        0.021      333.884        3.488      856.962
05/22/2013  07:28:00     -171.232      512.010      -59.281      136.901      176.328       72.847    18741.774    31091.520     5306.675       17.505        2.757      539.884       69.523        0.017      333.963        3.620      857.001
05/22/2013  07:29:00      -92.867      336.990      -23.118      110.723      189.239       75.391    12259.513    35811.230     5683.821        8.823        2.688      349.552       70.408        0.041      334.172        3.966      856.968
05/22/2013  07:30:00      -51.749      283.007       -4.602      118.948      218.118       76.224    14148.648    47575.431     5810.150        7.515        3.377      287.699       83.692        0.085      334.309        4.195      856.961
05/22/2013  07:31:00      -63.376      320.416      -21.755       98.716      156.555       66.819     9744.865    24509.469     4464.764        7.293        1.936      326.624       76.616        0.055      334.268        4.125      856.959
05/22/2013  07:32:00      -35.517      235.453      -15.452      146.739      185.187       91.339    21532.375    34294.282     8342.781        6.054        3.208      238.116       99.448        0.174      334.384        4.318      856.954
05/22/2013  07:33:00      -72.280      405.015      -40.643      110.541      172.993       85.613    12219.413    29926.665     7329.535       11.018        2.474      411.414       89.374        0.047      334.225        4.053      856.972
05/22/2013  07:34:00     -111.795      262.143      -30.257      119.648      157.609       74.636    14315.739    24840.445     5570.584        6.342        2.236      284.986       80.633        0.080      334.356        4.269      856.996
05/22/2013  07:35:00      -40.003      484.066      -49.883      120.334      150.165       76.697    14480.318    22549.651     5882.379       14.065        2.146      485.716       83.528        0.030      334.169        3.961      857.005
05/22/2013  07:36:00      -75.900      271.440      -43.906      112.284      136.802       65.616    12607.712    18714.705     4305.462        5.849        1.781      281.852       56.267        0.040      334.381        4.314      857.005
05/22/2013  07:37:00      -65.120      431.305      -41.380      125.177      220.151       80.414    15669.401    48466.344     6466.362       13.128        3.530      436.194       94.648        0.047      334.231        4.063      857.018
05/22/2013  07:38:00     -112.514      437.234      -45.938      102.392      159.259       76.445    10484.104    25363.575     5843.806       12.381        2.085      451.478       80.443        0.032      334.160        3.945      857.040
05/22/2013  07:39:00     -171.290      473.367      -42.807      124.921      185.445       94.240    15605.349    34389.731     8881.192       15.705        2.944      503.405      100.703        0.040      334.093        3.834      857.064
05/22/2013  07:40:00     -160.833      480.955      -51.729      116.283      232.034       80.393    13521.828    53839.793     6463.111       16.683        3.691      507.134       95.976        0.036      334.106        3.855      857.070
05/22/2013  07:41:00     -198.806      396.133      -57.353      155.145      164.521       83.610    24069.890    27067.291     6990.607       12.892        2.906      443.221       82.069        0.034      334.203        4.017      857.070
05/22/2013  07:42:00     -222.583      494.492      -58.410      149.011      200.630       92.943    22204.383    40252.420     8638.410       18.427        3.555      542.279      102.524        0.036      334.113        3.868      857.091
05/22/2013  07:43:00     -146.143      369.214      -36.776      127.326      160.147       80.166    16211.975    25647.027     6426.656       10.365        2.414      397.086       84.084        0.045      334.209        4.027      857.116
05/22/2013  07:44:00     -240.150      485.047      -77.964      146.320      229.418       77.675    21409.545    52632.411     6033.350       18.953        4.004      541.242       87.879        0.026      334.120        3.880      857.095
05/22/2013  07:45:00     -200.089      514.940      -57.170      144.357      206.646       87.774    20838.860    42702.673     7704.294       18.984        3.562      552.448       96.419        0.030      334.078        3.808      857.128
05/22/2013  07:46:00     -210.663      524.109      -58.589      159.644      193.297       90.352    25486.139    37363.596     8163.485       19.674        3.551      564.862      100.227        0.031      334.043        3.752      857.148
05/22/2013  07:47:00     -219.377      434.623      -58.266      150.888      131.835       89.647    22767.299    17380.407     8036.619       14.429        2.409      486.850       82.815        0.029      334.122        3.883      857.159
05/22/2013  07:48:00     -137.744      496.828      -44.092      114.340      155.409       75.834    13073.581    24151.859     5750.808       15.536        2.149      515.569       83.157        0.026      334.139        3.909      857.158
05/22/2013  07:49:00     -189.908      254.809      -32.076      131.382      146.308       89.196    17261.174    21405.959     7955.871        7.431        2.331      317.794       88.082        0.077      334.339        4.242      857.161
05/22/2013  07:50:00     -170.086      297.757      -39.310       91.869      140.227       65.413     8439.865    19663.474     4278.889        7.575        1.619      342.911       49.793        0.021      334.341        4.246      857.144
05/22/2013  07:51:00     -198.981      337.206      -32.653      136.201      244.458       86.011    18550.714    59759.516     7397.857       12.002        4.285      391.537      101.735        0.068      334.377        4.306      857.168
05/22/2013  07:52:00     -194.954      446.430      -43.872      119.196      149.225       77.521    14207.717    22268.120     6009.534       14.085        2.124      487.141       80.853        0.028      334.250        4.095      857.187
05/22/2013  07:53:00     -215.205      420.978      -54.414      149.954      153.478       78.079    22486.180    23555.391     6096.313       13.931        2.607      472.795       78.641        0.028      334.247        4.089      857.184
05/22/2013  07:54:00      -74.101      412.423      -38.221       64.186      158.923       53.278     4119.791    25256.376     2838.543       10.462        1.611      419.027       65.161        0.024      334.283        4.150      857.171
05/22/2013  07:55:00     -135.088      361.929      -30.508      139.066      181.105       84.412    19339.365    32799.094     7125.336       10.471        2.963      386.317       89.325        0.053      334.474        4.466      857.183
05/22/2013  07:56:00      -91.804      293.835      -21.361      155.140      202.728       82.208    24068.275    41098.625     6758.124        8.356        3.596      307.842       97.050        0.099      334.400        4.344      857.186
05/22/2013  07:57:00      -42.338      511.321      -44.325      127.160      195.534       96.483    16169.712    38233.681     9308.907       16.445        3.186      513.070      104.075        0.041      334.372        4.298      857.169
05/22/2013  07:58:00     -241.734      442.016      -62.370      131.896      127.335       83.704    17396.487    16214.171     7006.318       14.915        2.031      503.799       75.910        0.023      334.329        4.227      857.199
05/22/2013  07:59:00       -7.115      551.057      -49.138      120.680      243.509      101.303    14563.712    59296.625    10262.272       19.511        4.206      551.103      126.082        0.052      334.347        4.255      857.208
05/22/2013  08:00:00     -106.946      490.729      -50.038      102.903      169.872       74.029    10588.964    28856.483     5480.271       14.983        2.246      502.247       83.632        0.028      334.389        4.326      857.224
05/22/2013  08:01:00      -80.597      424.764      -33.882      100.117      197.094       78.596    10023.463    38846.207     6177.281       12.155        2.752      432.343       88.879        0.042      334.621        4.710      857.247
05/22/2013  08:02:00     -190.393      280.489      -42.621      107.989      151.985       64.707    11661.562    23099.331     4186.955        7.784        1.947      339.004       68.999        0.041      334.524        4.550      857.246
05/22/2013  08:03:00      -83.658      432.013      -47.658       90.243      155.431       62.215     8143.726    24158.663     3870.722       11.603        1.809      440.039       61.250        0.019      334.528        4.556      857.263
05/22/2013  08:04:00     -116.048      270.938      -29.435       77.669      188.482       59.256     6032.518    35525.507     3511.329        6.640        2.253      294.745       70.591        0.057      334.661        4.777      857.254
05/22/2013  08:05:00     -182.404      269.213      -57.659       98.302      118.716       71.940     9663.293    14093.422     5175.330        6.900        1.447      325.187       75.269        0.054      334.562        4.612      857.257
05/22/2013  08:06:00       21.280      234.475      -30.150       76.044      151.403       49.065     5782.677    22922.743     2407.334        4.372        1.556      235.439       68.702        0.085      334.951        5.261      857.272
05/22/2013  08:07:00      -28.691      310.550      -28.199      116.908      138.884       72.731    13667.578    19288.764     5289.855        6.815        1.912      311.872       80.606        0.067      334.836        5.067      857.314
05/22/2013  08:08:00      -53.181      333.163      -33.551      125.853      151.388       78.492    15838.898    22918.470     6160.993        7.993        2.246      337.381       78.060        0.054      334.696        4.836      857.311
05/22/2013  08:09:00      -50.974      214.619       -8.538       80.122      102.388       60.760     6419.464    10483.218     3691.749        3.466        1.030      220.590       53.407        0.059      334.893        5.162      857.305
05/22/2013  08:10:00     -152.373      313.246      -40.177       95.128      183.987       67.360     9049.401    33851.052     4537.351        8.519        2.372      348.340       69.751        0.040      334.755        4.933      857.317
05/22/2013  08:11:00     -247.785      240.889      -38.132      112.921      116.473       83.608    12751.061    13566.063     6990.289        7.709        1.665      345.579       68.573        0.039      334.541        4.578      857.312
05/22/2013  08:12:00     -100.728      118.411      -12.742      128.222       90.292       63.149    16440.999     8152.699     3987.735        2.645        1.429      155.458       59.490        0.146      334.832        5.062      857.289
05/22/2013  08:13:00     -144.126      248.337      -22.820      111.916      119.238       65.596    12525.238    14217.767     4302.785        5.700        1.552      287.130       77.139        0.072      334.837        5.069      857.273
05/22/2013  08:14:00     -194.980      382.345      -58.349      134.832      102.750       69.585    18179.768    10557.505     4842.057       11.059        1.679      429.191       70.105        0.027      334.730        4.891      857.293
05/22/2013  08:15:00      -78.194      370.813      -42.346       86.766      119.482       60.062     7528.287    14275.915     3607.480        8.541        1.271      378.967       59.223        0.024      334.856        5.101      857.286
05/22/2013  08:16:00     -112.586      322.906      -27.442      112.993      141.426       61.214    12767.402    20001.350     3747.099        7.710        1.826      341.970       63.991        0.035      334.792        4.994      857.286
05/22/2013  08:17:00     -142.579      228.846      -23.580      107.738      125.972       58.638    11607.370    15868.848     3438.453        5.208        1.546      269.629       60.085        0.050      334.891        5.160      857.290
05/22/2013  08:18:00     -205.055      355.190      -42.513      141.112      169.772       77.212    19912.511    28822.446     5961.737       11.234        2.735      410.131       92.814        0.051      334.627        4.721      857.286
05/22/2013  08:19:00      -17.560      238.501        3.390      114.600      189.902       89.315    13133.145    36062.603     7977.221        5.718        2.859      239.147      107.658        0.203      334.967        5.287      857.301
05/22/2013  08:20:00      -13.792      404.162      -24.283      139.423      228.559       96.118    19438.789    52239.388     9238.657       12.251        4.046      404.397      121.584        0.090      334.876        5.134      857.292
05/22/2013  08:21:00     -109.885      471.193      -52.843       97.726      156.079       65.330     9550.444    24360.573     4267.960       13.753        1.909      483.836       77.540        0.026      334.627        4.721      857.314
05/22/2013  08:22:00      -24.109      170.834       -8.712       55.368       87.385       47.286     3065.601     7636.064     2235.944        2.139        0.647      172.526       48.812        0.080      335.251        5.759      857.319
05/22/2013  08:23:00      -31.587      296.126      -27.907      109.575       91.512       71.475    12006.573     8374.444     5108.688        5.747        1.274      297.806       61.031        0.042      334.939        5.238      857.335
05/22/2013  08:24:00      -35.008      239.453      -25.746      100.897       98.713       57.980    10180.274     9744.190     3361.690        4.125        1.164      241.999       40.810        0.028      335.063        5.447      857.349
05/22/2013  08:25:00      -43.105      564.563      -64.802      126.669      156.979       82.311    16045.116    24642.562     6775.105       18.612        2.373      566.206       81.988        0.021      334.661        4.777      857.367
05/22/2013  08:26:00       70.918      336.883      -14.579       97.104      201.971      107.908     9429.281    40792.416    11644.235        9.029        3.093      344.266      116.970        0.115      334.919        5.207      857.355
05/22/2013  08:27:00      -33.536      224.035      -16.966      108.539      116.273       66.042    11780.779    13519.488     4361.596        4.063        1.483      226.531       56.674        0.063      335.054        5.429      857.381
05/22/2013  08:28:00      -39.874      342.983      -37.924      133.353      175.134       80.951    17783.028    30672.051     6553.050        8.783        2.750      345.293       74.877        0.047      334.972        5.294      857.388
05/22/2013  08:29:00       21.322      232.656        7.848       99.038      198.835       86.015     9808.601    39535.484     7398.560        5.568        2.837      233.631      105.021        0.202      335.150        5.590      857.394
05/22/2013  08:30:00      -56.141      506.684      -55.399       92.959      156.162       53.527     8641.401    24386.592     2865.179       14.941        1.795      509.785       61.226        0.014      334.576        4.637      857.396
05/22/2013  08:31:00      -13.375      432.123      -41.092       86.599      157.811       71.861     7499.460    24904.333     5164.049       11.307        1.878      432.330       81.291        0.035      334.727        4.887      857.390
05/22/2013  08:32:00      -40.973      326.271      -26.752       88.620      115.745       66.013     7853.559    13396.924     4357.768        6.722        1.280      328.833       69.283        0.044      334.982        5.310      857.380
05/22/2013  08:33:00      -79.805      472.008      -54.689      113.906      157.625       75.913    12974.509    24845.490     5762.724       13.786        2.179      478.707       80.597        0.028      334.864        5.114      857.400
05/22/2013  08:34:00      -89.130      325.414      -11.684      127.141      153.372       89.114    16164.891    23523.027     7941.285        8.079        2.381      337.400       86.471        0.066      335.075        5.466      857.422
05/22/2013  08:35:00        7.033      394.975      -35.598       94.683      155.410       74.471     8964.872    24152.160     5545.915        9.798        1.933      395.038       77.146        0.038      334.820        5.041      857.399
05/22/2013  08:36:00      -20.795      224.070       -5.617      140.832      165.848       87.491    19833.780    27505.581     7654.760        5.282        2.750      225.033       87.143        0.150      335.039        5.407      857.369
05/22/2013  08:37:00      -71.753      186.973      -27.546       65.447      104.282       49.348     4283.359    10874.759     2435.212        2.923        0.880      200.268       39.160        0.038      335.096        5.503      857.378
05/22/2013  08:38:00     -267.084      108.961      -33.903      118.712      143.754       65.534    14092.475    20665.114     4294.739        6.170        1.953      288.455       67.926        0.055      334.829        5.057      857.379
05/22/2013  08:39:00      -21.662      224.553       -2.068      105.238      153.496       86.654    11074.959    23560.998     7508.956        4.651        2.107      225.596       88.176        0.153      335.297        5.835      857.367
05/22/2013  08:40:00      -48.270      327.377      -44.815       99.143      169.766       60.989     9829.433    28820.587     3719.666        7.693        2.118      330.916       68.860        0.043      335.072        5.460      857.336
05/22/2013  08:41:00      -42.166      255.734       -4.672       85.475      143.168       69.140     7305.892    20497.123     4780.397        4.988        1.629      259.187       82.740        0.102      335.428        6.053      857.352
05/22/2013  08:42:00      -61.626      346.390      -28.919      101.937      206.254       76.816    10391.237    42540.609     5900.673        9.171        2.942      351.829       99.823        0.081      335.192        5.661      857.360
05/22/2013  08:43:00      -56.609      574.551      -64.421      121.806      166.901       71.479    14836.676    27856.052     5109.201       19.262        2.390      577.334       74.574        0.017      334.808        5.021      857.351
05/22/2013  08:44:00      -56.924      354.514      -36.358      101.199      170.752       69.097    10241.304    29156.174     4774.361        8.720        2.209      359.055       68.609        0.037      335.156        5.599      857.365
05/22/2013  08:45:00      -54.794      307.482      -23.755      121.753      153.464       74.793    14823.841    23551.284     5593.954        7.103        2.198      312.326       83.903        0.072      335.219        5.707      857.368
05/22/2013  08:46:00      -33.185      206.683       -1.553       62.896      127.232       56.965     3955.870    16188.005     3245.060        3.360        1.169      209.330       58.038        0.077      335.419        6.040      857.371
05/22/2013  08:47:00      -33.057      205.953       -5.359      101.645      117.268       70.272    10331.729    13751.859     4938.156        3.627        1.451      208.589       66.027        0.100      335.514        6.197      857.381
05/22/2013  08:48:00      -20.016      287.743      -39.165       88.163      124.319       54.891     7772.736    15455.218     3013.036        5.548        1.312      288.438       61.878        0.046      335.499        6.171      857.404
05/22/2013  08:49:00     -120.895      549.035      -52.282       80.153      135.296       65.578     6424.501    18304.952     4300.433       17.390        1.451      562.188       58.265        0.011      334.991        5.326      857.419
05/22/2013  08:50:00       -4.000      322.007      -14.611      109.413      168.886       82.821    11971.309    28522.502     6859.258        7.563        2.368      322.032      100.182        0.097      335.465        6.115      857.431
05/22/2013  08:51:00      -77.537      308.399      -33.977       87.855      119.669       60.897     7718.542    14320.612     3708.466        6.401        1.287      317.997       57.514        0.033      335.107        5.518      857.434
05/22/2013  08:52:00      -67.395      187.781      -21.517       93.173       91.312       50.577     8681.163     8337.815     2558.035        2.992        0.979      199.509       39.769        0.040      335.274        5.798      857.425
05/22/2013  08:53:00      -55.595      428.173      -44.822      100.843      149.463       64.356    10169.323    22339.332     4141.667       11.253        1.833      431.767       74.723        0.030      335.214        5.697      857.434
05/22/2013  08:54:00      -76.560      311.797      -32.982       69.261      105.540       53.110     4797.091    11138.789     2820.625        6.146        0.938      321.058       46.874        0.021      335.338        5.903      857.439
05/22/2013  08:55:00      -59.467      332.212      -29.520       91.808      116.186       64.197     8428.734    13499.169     4121.195        7.041        1.302      337.493       53.479        0.025      335.407        6.018      857.455
05/22/2013  08:56:00      -93.280      264.882      -36.780      107.071       76.675       49.827    11464.150     5879.066     2482.698        5.002        0.991      280.827       45.751        0.027      335.342        5.908      857.457
05/22/2013  08:57:00      -60.090      352.747      -35.122       90.603      159.838       56.649     8208.935    25548.073     3209.065        8.311        1.848      357.829       55.903        0.024      335.312        5.861      857.477
05/22/2013  08:58:00      -34.893      222.762      -18.471      108.956      147.952       72.745    11871.434    21889.673     5291.856        4.511        1.953      225.479       75.708        0.113      335.603        6.343      857.466
05/22/2013  08:59:00      -89.695      136.958       -2.880      109.637      117.296       59.757    12020.328    13758.401     3570.931        2.807        1.467      163.715       67.952        0.172      335.937        6.903      857.478
05/22/2013  09:00:00     -115.250      404.972      -46.734       86.134      156.631       57.811     7419.075    24533.229     3342.090       10.737        1.765      421.052       69.388        0.027      335.306        5.851      857.516
05/22/2013  09:01:00     -114.084      406.096      -43.049       79.879      144.143       63.642     6380.623    20777.317     4050.322       10.549        1.560      421.816       61.202        0.021      335.202        5.676      857.510
05/22/2013  09:02:00      -94.523      240.863       -9.800      102.342       87.038       58.893    10473.844     7575.626     3468.396        4.428        1.076      258.746       53.501        0.043      335.464        6.112      857.506
05/22/2013  09:03:00      -81.920      168.672      -13.045       93.108      132.675       61.598     8669.134    17602.685     3794.254        3.269        1.503      187.513       65.545        0.122      335.521        6.209      857.492
05/22/2013  09:04:00      -63.643      376.884      -31.414      120.209      155.193       66.007    14450.310    24084.937     4356.983        9.498        2.145      382.220       81.012        0.045      335.332        5.894      857.508
05/22/2013  09:05:00      -84.282      303.572      -29.050       99.963      108.969       64.108     9992.601    11874.281     4109.880        6.303        1.299      315.055       59.161        0.035      335.304        5.847      857.507
05/22/2013  09:06:00     -137.905      212.379      -13.148       98.544      120.315       61.501     9710.994    14475.632     3782.374        4.613        1.398      253.224       56.135        0.049      335.462        6.110      857.504
05/22/2013  09:07:00      -87.631      262.303      -21.262       74.673      143.024       55.440     5576.111    20455.958     3073.572        5.301        1.455      276.553       55.224        0.040      335.525        6.215      857.507
05/22/2013  09:08:00     -116.707      138.417       -8.021      101.954      109.121       57.973    10394.695    11907.303     3360.835        2.925        1.283      181.052       67.603        0.139      335.615        6.365      857.492
05/22/2013  09:09:00     -204.828      184.347      -42.056       99.655      165.646       61.788     9931.026    27438.719     3817.807        5.944        2.059      275.569       59.513        0.047      335.499        6.170      857.456
05/22/2013  09:10:00     -152.365      263.527      -37.094       91.976      115.766       51.760     8459.587    13401.711     2679.087        5.928        1.227      304.404       56.099        0.034      335.686        6.483      857.486
05/22/2013  09:11:00      -71.370      126.438       -7.861       73.183       84.025       46.222     5355.814     7060.129     2136.462        1.784        0.728      145.191       43.183        0.088      336.050        7.090      857.485
05/22/2013  09:12:00      -86.364      307.473      -24.189      136.815      205.918       65.968    18718.299    42402.251     4351.749        8.401        3.274      319.372       72.213        0.051      335.716        6.533      857.487
05/22/2013  09:13:00     -116.093      404.788      -56.348      152.258      131.226       60.898    23182.405    17220.241     3708.515       11.230        2.206      421.106       66.391        0.025      335.261        5.774      857.516
05/22/2013  09:14:00      -82.066      455.949      -46.063      130.406      126.684       66.867    17005.650    16048.851     4471.188       12.713        1.876      463.276       61.149        0.017      335.280        5.807      857.507
05/22/2013  09:15:00     -149.090      264.928      -27.594      108.653      171.521       78.412    11805.366    29419.459     6148.448        7.026        2.369      303.998       92.176        0.092      335.355        5.932      857.524
05/22/2013  09:16:00     -109.723      254.369      -33.029       70.183      148.081       51.155     4925.630    21928.092     2616.831        5.365        1.474      277.025       48.263        0.030      335.293        5.828      857.506
05/22/2013  09:17:00      -34.745      435.583      -50.197       84.529      156.277       58.209     7145.076    24422.569     3388.305       11.420        1.748      436.967       67.636        0.024      335.267        5.785      857.488
05/22/2013  09:18:00     -129.902      225.893      -37.848       78.344       71.669       47.397     6137.804     5136.480     2246.504        4.142        0.676      260.580       35.990        0.019      335.397        6.001      857.494
05/22/2013  09:19:00     -143.651      482.818      -45.498      114.746      188.098       84.074    13166.689    35380.821     7068.504       15.571        2.781      503.735       87.571        0.030      335.345        5.916      857.501
05/22/2013  09:20:00      -69.739      366.411      -44.799       91.519      117.318       51.075     8375.725    13763.561     2608.644        8.293        1.237      372.989       48.901        0.017      335.461        6.107      857.501
05/22/2013  09:21:00      -27.638      403.412      -37.281       78.335      146.377       56.876     6136.409    21426.359     3234.873        9.784        1.540      404.358       65.472        0.026      335.424        6.046      857.489
05/22/2013  09:22:00     -129.410      219.142      -16.374      123.481      136.607       83.233    15247.491    18661.340     6927.785        5.293        2.042      254.500       88.207        0.120      335.788        6.652      857.502
05/22/2013  09:23:00      -75.073      323.208      -41.248      154.896      134.179       81.026    23992.922    18003.914     6565.195        8.017        2.428      331.812       76.802        0.054      335.562        6.276      857.521
05/22/2013  09:24:00     -117.059      184.946      -12.400       91.178      142.485       61.603     8313.486    20302.047     3794.871        4.023        1.621      218.878       58.823        0.072      335.746        6.583      857.491
05/22/2013  09:25:00     -124.468      126.286      -18.616       74.311      109.181       46.837     5522.131    11920.394     2193.707        2.571        0.982      177.314       44.169        0.062      335.738        6.571      857.483
05/22/2013  09:26:00      -55.977      315.393      -32.868       64.364      116.817       49.509     4142.771    13646.216     2451.096        6.196        1.012      320.322       50.951        0.025      335.412        6.027      857.501
05/22/2013  09:27:00      -34.360      189.225       -6.544       59.890      117.698       56.936     3586.819    13852.889     3241.663        2.885        1.034      192.320       62.798        0.107      335.919        6.872      857.467
05/22/2013  09:28:00      -96.749      359.556      -32.939       66.124      117.097       53.478     4372.358    13711.736     2859.920        8.033        1.047      372.345       54.454        0.021      335.508        6.186      857.465
05/22/2013  09:29:00     -130.491      298.255      -28.143       98.949      144.982       65.541     9790.849    21019.863     4295.615        7.093        1.755      325.552       74.472        0.052      335.662        6.442      857.451
05/22/2013  09:30:00     -174.561      325.217      -34.601       96.430      112.920       62.709     9298.783    12750.833     3932.455        8.170        1.299      369.104       56.123        0.023      335.646        6.417      857.449
05/22/2013  09:31:00      -46.746      338.023      -27.904      101.735      143.407       63.762    10350.078    20565.587     4065.607        7.610        1.749      341.240       55.966        0.027      335.776        6.633      857.439
05/22/2013  09:32:00      -51.952      529.640      -40.098      118.285      200.066       98.570    13991.345    40026.557     9716.107       17.427        3.187      532.182      103.595        0.038      335.675        6.464      857.410
05/22/2013  09:33:00     -123.905      450.952      -60.627       95.850      156.062       55.540     9187.263    24355.373     3084.656       12.950        1.831      467.664       54.972        0.014      335.533        6.226      857.442
05/22/2013  09:34:00      -54.101      329.103      -42.356      112.183      140.901       62.644    12585.053    19853.233     3924.216        7.469        1.818      333.520       50.377        0.023      335.593        6.327      857.436
05/22/2013  09:35:00      -33.307      300.850      -40.736       72.603      113.470       46.730     5271.204    12875.378     2183.693        5.680        1.017      302.688       55.437        0.034      335.532        6.225      857.435
05/22/2013  09:36:00      -11.817      175.226       -5.488       95.402       66.455       57.179     9101.459     4416.211     3269.395        2.383        0.839      175.624       43.724        0.062      336.129        7.222      857.397
05/22/2013  09:37:00       -1.282      395.307      -36.158      110.857      159.020       81.440    12289.247    25287.497     6632.498       10.088        2.210      395.309       89.133        0.051      335.856        6.767      857.438
05/22/2013  09:38:00       64.011      363.559      -42.059       95.337      145.674       71.675     9089.181    21220.792     5137.347        8.674        1.772      369.151       72.808        0.039      335.827        6.717      857.429
05/22/2013  09:39:00       34.569      173.839       -0.970       79.843       85.185       61.725     6374.844     7256.483     3809.992        2.443        0.872      177.243       56.512        0.102      336.262        7.443      857.408
05/22/2013  09:40:00      -27.822      379.112      -47.128      118.909      121.113       76.781    14139.311    14668.314     5895.273        9.070        1.735      380.131       81.987        0.047      335.906        6.849      857.408
05/22/2013  09:41:00      -66.447      285.100      -15.184      104.823      152.061       73.116    10987.796    23122.401     5346.008        6.268        1.973      292.741       74.318        0.064      336.160        7.273      857.429
05/22/2013  09:42:00      -90.569      400.303      -47.794      155.563      141.675       70.332    24199.947    20071.667     4946.544       10.996        2.461      410.421       63.163        0.024      335.922        6.875      857.414
05/22/2013  09:43:00       -6.547      482.825      -64.175      107.718      113.752       68.331    11603.249    12939.422     4669.150       13.324        1.461      482.869       54.155        0.013      335.720        6.539      857.400
05/22/2013  09:44:00       90.382      190.846        2.652      114.538      137.750       91.984    13118.894    18974.948     8461.061        4.257        2.028      211.166       94.660        0.201      335.913        6.862      857.384
05/22/2013  09:45:00       57.544       93.308        0.645      127.957       74.250       55.297    16373.057     5513.115     3057.808        1.848        1.247      109.625       42.930        0.153      336.103        7.178      857.357
05/22/2013  09:46:00      -86.846       45.953       -4.724       62.233      102.528       44.509     3872.961    10512.085     1981.012        1.302        0.818       98.254       29.575        0.091      336.183        7.313      857.354
05/22/2013  09:47:00      -49.079      239.649      -25.432      103.699      199.606       58.228    10753.574    39842.400     3390.521        5.723        2.699      244.623       72.292        0.087      336.304        7.516      857.351
05/22/2013  09:48:00      -53.741      266.912      -21.187       78.873      163.017       59.719     6220.916    26574.591     3566.379        5.546        1.818      272.268       54.367        0.040      336.056        7.101      857.343
05/22/2013  09:49:00      -79.784      213.349      -30.011      133.083      100.870       69.388    17711.086    10174.758     4814.633        4.274        1.635      227.779       50.221        0.049      336.179        7.304      857.328
05/22/2013  09:50:00       -3.720      431.146      -57.460       86.495      134.152       63.494     7481.387    17996.742     4031.434       10.935        1.475      431.162       58.771        0.019      336.065        7.112      857.326
05/22/2013  09:51:00       27.325      437.173      -45.848       82.722      169.943       87.514     6842.987    28880.790     7658.710       11.867        2.169      438.027       93.691        0.046      336.148        7.253      857.339
05/22/2013  09:52:00     -190.730      485.164      -63.777      115.603      139.964       62.151    13364.015    19590.011     3862.789       15.632        1.841      521.308       59.465        0.013      335.651        6.424      857.351
05/22/2013  09:53:00      -96.874      270.121      -19.497      122.895      116.302       68.654    15103.276    13526.247     4713.315        5.803        1.667      286.967       75.434        0.069      336.167        7.285      857.334
05/22/2013  09:54:00       22.272      218.712       10.344       87.411      115.969       82.982     7640.712    13448.909     6886.020        3.820        1.399      219.843       75.343        0.117      336.451        7.758      857.283
05/22/2013  09:55:00       76.150      162.600        3.888       97.076      100.062       51.050     9423.717    10012.376     2606.144        2.714        1.102      179.548       53.015        0.087      336.182        7.311      857.266
05/22/2013  09:56:00      257.023      150.418       32.777      105.349       82.666       77.331    11098.514     6833.691     5980.029        5.683        1.196      297.802       40.733        0.019      336.251        7.425      857.229
05/22/2013  09:57:00       72.797      166.429        8.549      111.918      102.111       72.561    12525.724    10426.562     5265.153        3.064        1.411      181.654       60.325        0.110      336.256        7.433      857.251
05/22/2013  09:58:00       35.653      195.577      -11.783       84.173      108.639       59.688     7085.131    11802.433     3562.642        3.105        1.123      198.800       62.727        0.100      336.551        7.926      857.262
05/22/2013  09:59:00      -64.439      149.946       -3.910      106.699       96.486       59.873    11384.663     9309.632     3584.803        2.546        1.214      163.206       60.727        0.138      336.684        8.148      857.282
05/22/2013  10:00:00      -25.398      121.312        2.673       73.914      104.108       49.025     5463.277    10838.406     2403.462        1.703        0.935      123.942       60.081        0.235      336.561        7.942      857.293
05/22/2013  10:01:00      -61.515      196.323      -23.397      151.873      159.527       64.844    23065.443    25448.773     4204.692        4.779        2.636      205.735       70.769        0.118      336.408        7.687      857.289
05/22/2013  10:02:00      -33.334      336.843      -35.852       77.396       99.433       61.819     5990.127     9886.926     3821.555        6.778        0.985      338.489       57.231        0.029      336.167        7.285      857.265
05/22/2013  10:03:00      -39.964      327.326      -41.838       72.472       90.681       38.796     5252.249     8222.992     1505.103        6.273        0.749      329.757       32.321        0.010      336.252        7.424      857.258
05/22/2013  10:04:00     -234.289      298.302      -53.107      144.940      136.720       66.176    21007.555    18692.339     4379.257        9.538        2.204      379.309       61.463        0.026      336.014        7.029      857.256
05/22/2013  10:05:00     -215.958      244.205      -45.912      114.506      135.346       62.531    13111.686    18318.573     3910.172        7.185        1.767      325.997       60.674        0.035      336.032        7.060      857.288
05/22/2013  10:06:00     -218.040       73.414      -21.075      110.301      144.076       55.055    12166.339    20757.810     3031.044        4.466        1.798      230.068       68.493        0.089      336.136        7.233      857.269
05/22/2013  10:07:00      -99.730      145.473      -15.462      150.817      152.093       68.813    22745.709    23132.239     4735.216        4.097        2.531      176.376       56.706        0.103      336.386        7.650      857.267
05/22/2013  10:08:00      -52.104      367.422      -32.031       74.024      118.318       55.446     5479.562    13999.167     3074.283        8.064        1.128      371.098       53.055        0.020      336.457        7.767      857.327
05/22/2013  10:09:00      111.053      143.558       16.205      111.808       95.191       78.173    12501.040     9061.340     6110.957        3.043        1.384      181.498       60.016        0.109      336.402        7.676      857.309
05/22/2013  10:10:00       49.584      194.591      -11.240       73.357      107.873       62.337     5381.225    11636.662     3885.918        3.067        1.045      200.809       66.872        0.111      336.475        7.801      857.308
05/22/2013  10:11:00        2.959      173.756        1.884       99.864       72.545       51.163     9972.761     5262.733     2617.701        2.402        0.893      173.781       41.327        0.057      336.326        7.550      857.289
05/22/2013  10:12:00      -25.886      310.842      -27.879       72.225      113.998       54.263     5216.459    12995.538     2944.474        5.961        1.058      311.918       48.195        0.024      336.345        7.582      857.283
05/22/2013  10:13:00      -30.941      433.504      -54.745       63.081       75.390       37.647     3979.163     5683.607     1417.298       10.148        0.554      434.607       34.038        0.006      335.934        6.896      857.282
05/22/2013  10:14:00       20.517      120.464      -28.690       56.166      110.843       39.206     3154.667    12286.119     1537.121        1.636        0.849      122.199       44.573        0.133      336.375        7.633      857.247
05/22/2013  10:15:00      -21.182       91.643       21.773       54.435       88.216       45.473     2963.161     7782.073     2067.766        1.106        0.641       94.059       43.116        0.210      336.921        8.547      857.229
05/22/2013  10:16:00        6.675       59.341       19.936       39.997       52.064       36.546     1599.749     2710.651     1335.616        0.480        0.282       59.715       33.934        0.323      337.296        9.175      857.208
05/22/2013  10:17:00      -54.356      223.879      -15.963       68.820      173.465       50.704     4736.176    30090.019     2570.900        4.536        1.870      230.383       75.972        0.109      336.762        8.280      857.210
05/22/2013  10:18:00      -71.748      246.739      -13.297       64.040       84.016       53.698     4101.168     7058.615     2883.528        4.012        0.702      256.959       46.637        0.033      336.897        8.505      857.207
05/22/2013  10:19:00       49.523      193.124       -5.283       98.953      125.795       62.314     9791.718    15824.275     3883.007        3.463        1.475      199.373       68.737        0.119      337.110        8.862      857.197
05/22/2013  10:20:00       22.262      273.872      -26.087      111.096      109.823       72.704    12342.287    12061.012     5285.878        5.293        1.484      274.775       65.875        0.057      336.573        7.961      857.191
05/22/2013  10:21:00       45.350      318.618      -21.748       95.555      130.216       93.012     9130.764    16956.214     8651.254        6.939        1.737      321.829       91.277        0.080      336.811        8.359      857.185
05/22/2013  10:22:00      -48.420      409.673      -31.574       89.189      139.560       69.249     7954.716    19476.881     4795.393       10.169        1.611      412.525       71.221        0.030      336.444        7.747      857.246
05/22/2013  10:23:00      -16.383      443.117      -42.854       76.599      168.792       69.230     5867.431    28490.812     4792.769       11.880        1.958      443.420       83.410        0.035      336.477        7.803      857.261
05/22/2013  10:24:00       31.869      409.616      -47.831       93.636       91.682       64.659     8767.648     8405.607     4180.773        9.622        1.068      410.854       55.010        0.018      336.423        7.710      857.279
05/22/2013  10:25:00       12.624      264.939      -12.862       56.639      186.313       67.620     3207.974    34712.590     4572.457        5.650        2.125      265.239       85.448        0.104      336.655        8.101      857.260
05/22/2013  10:26:00       71.631      199.547       13.221      102.236      121.553       94.076    10452.145    14775.025     8850.307        3.959        1.704      212.014       87.036        0.169      336.867        8.454      857.242
05/22/2013  10:27:00       -2.755      283.725      -35.306       49.758       92.318       40.353     2475.901     8522.536     1628.370        4.719        0.631      283.738       41.557        0.021      336.337        7.568      857.262
05/22/2013  10:28:00       52.408      132.228        0.419       93.732       84.072       49.023     8785.706     7068.150     2403.270        1.924        0.913      142.235       48.389        0.116      337.010        8.695      857.228
05/22/2013  10:29:00       87.861      106.606       30.790       87.117       79.725       65.995     7589.432     6356.084     4355.342        1.916        0.915      138.146       54.632        0.156      337.185        8.988      857.190
05/22/2013  10:30:00       95.755       57.217       -0.892       81.596       59.798       43.781     6657.907     3575.778     1916.771        1.229        0.608      111.547       22.314        0.040      337.175        8.971      857.172
05/22/2013  10:31:00      -39.474      213.440      -18.445       74.186      120.078       61.121     5503.532    14418.838     3735.795        3.555        1.183      217.060       58.081        0.072      337.209        9.028      857.187
05/22/2013  10:32:00       12.810      102.721        2.527       51.063       60.052       50.561     2607.469     3606.196     2556.459        0.974        0.439      103.516       44.199        0.182      337.848       10.100      857.202
05/22/2013  10:33:00      -35.679      254.932      -13.945      154.571      182.649       74.525    23892.083    33360.485     5554.047        6.462        3.140      257.416       96.498        0.141      337.111        8.864      857.238
05/22/2013  10:34:00     -181.231      206.749      -48.317      135.115      102.468       68.792    18255.957    10499.664     4732.371        5.570        1.674      274.937       74.208        0.073      336.696        8.168      857.258
05/22/2013  10:35:00     -105.816       98.909        1.427      110.206       93.560       50.790    12145.312     8753.468     2579.639        2.223        1.174      144.845       52.769        0.133      336.847        8.420      857.261
05/22/2013  10:36:00      -86.815       78.865       -2.536       86.405       65.276       44.213     7465.798     4260.919     1954.796        1.372        0.684      117.288       45.877        0.153      336.846        8.423      857.252
05/22/2013  10:37:00      -63.216        8.098       10.054      103.199      102.735       43.415    10650.043    10554.520     1884.871        1.362        1.154       63.733       30.532        0.230      337.215        9.039      857.254
05/22/2013  10:38:00      -82.378      103.023       -6.980       69.441      102.405       50.137     4822.015    10486.766     2513.693        1.763        0.891      131.909       48.577        0.136      337.125        8.888      857.274
05/22/2013  10:39:00     -106.755      280.229      -40.164       86.537      134.186       50.878     7488.642    18005.917     2588.529        5.980        1.404      299.875       64.916        0.047      336.680        8.141      857.298
05/22/2013  10:40:00        8.223      194.882       -9.911       49.442      101.339       55.868     2444.487    10269.660     3121.190        2.699        0.792      195.055       59.783        0.094      337.262        9.118      857.293
05/22/2013  10:41:00      -93.495      288.625      -29.554      108.802       87.039       59.947    11837.851     7575.789     3593.682        5.796        1.150      303.390       60.196        0.039      337.010        8.694      857.285
05/22/2013  10:42:00     -113.984      259.497      -29.061       90.579      124.373       55.530     8204.519    15468.666     3083.541        5.396        1.338      283.428       57.381        0.041      336.775        8.300      857.295
05/22/2013  10:43:00     -145.647      271.555      -30.457       86.433      133.337       54.865     7470.611    17778.853     3010.221        6.207        1.413      308.148       50.287        0.027      336.671        8.125      857.272
05/22/2013  10:44:00      -93.766      200.826      -15.088       82.140       89.963       57.637     6746.962     8093.383     3322.069        3.375        0.908      221.637       59.116        0.071      337.011        8.694      857.246
05/22/2013  10:45:00        6.836      175.839        5.998       69.588      149.980       72.647     4842.454    22493.954     5277.545        3.180        1.631      175.972       81.434        0.214      337.251        9.097      857.219
05/22/2013  10:46:00      127.762      151.265        3.940      144.921      100.334       63.768    21001.962    10066.874     4066.378        3.717        1.757      198.001       63.048        0.101      337.429        9.395      857.192
05/22/2013  10:47:00      105.212      149.795       -2.858      102.325      111.044       74.017    10470.497    12330.830     5478.557        3.089        1.414      183.052       58.258        0.101      337.218        9.042      857.178
05/22/2013  10:48:00       43.442      219.960      -11.252       77.455      107.506       70.845     5999.329    11557.559     5018.965        3.648        1.129      224.208       68.052        0.092      337.007        8.690      857.152
05/22/2013  10:49:00       92.504      218.491       -3.877      105.631      185.610       92.147    11157.996    34451.111     8490.985        5.519        2.705      237.266       90.553        0.146      337.140        8.910      857.141
05/22/2013  10:50:00       26.831      307.117      -27.904      106.976      163.529       86.177    11443.938    26741.657     7426.533        7.071        2.281      308.287       87.689        0.081      337.036        8.737      857.163
05/22/2013  10:51:00      -43.600      283.994      -31.025       83.193       92.042       55.659     6921.100     8471.776     3097.954        5.100        0.925      287.322       46.513        0.026      337.238        9.074      857.190
05/22/2013  10:52:00     -115.274      185.876      -21.055       73.557       83.782       55.633     5410.601     7019.482     3095.024        3.190        0.776      218.719       51.077        0.055      337.148        8.926      857.196
05/22/2013  10:53:00      -79.309      140.772       -1.848       85.618      107.240       51.491     7330.379    11500.313     2651.359        2.379        1.074      161.576       59.160        0.134      337.664        9.790      857.191
05/22/2013  10:54:00     -109.024      244.667      -28.445       82.693      105.367       51.128     6838.176    11102.131     2614.070        4.655        1.028      267.859       49.429        0.034      337.049        8.758      857.197
05/22/2013  10:55:00     -137.170      281.323      -34.613       84.648       98.801       55.260     7165.339     9761.697     3053.669        5.956        0.999      312.983       48.934        0.024      336.814        8.366      857.204
05/22/2013  10:56:00     -149.958      160.524      -29.272       80.306       85.282       47.153     6449.061     7273.078     2223.436        3.253        0.797      219.671       51.081        0.054      336.657        8.103      857.193
05/22/2013  10:57:00     -124.220      -20.224       -8.097      134.054       88.387       45.742    17970.364     7812.236     2092.317        2.188        1.394      125.856       58.457        0.216      337.299        9.179      857.150
05/22/2013  10:58:00     -211.968      178.989      -39.724      153.735      145.463       63.449    23634.596    21159.342     4025.730        6.367        2.441      277.430       85.555        0.095      336.994        8.668      857.167
05/22/2013  10:59:00     -160.641      131.540      -32.461       96.441       98.931       53.151     9300.862     9787.359     2825.036        3.303        1.096      207.625       58.458        0.079      336.987        8.655      857.169
05/22/2013  11:00:00       -2.387      101.107       12.085       48.461       85.926       49.885     2348.442     7383.228     2488.477        1.129        0.611      101.135       39.074        0.149      337.457        9.445      857.168
05/22/2013  11:01:00      -49.071       53.170       12.807      158.719       95.209       64.337    25191.631     9064.824     4139.236        2.189        1.920       72.353       62.767        0.753      337.137        8.907      857.163
05/22/2013  11:02:00       61.325       33.024       11.369       47.973       44.120       28.830     2301.413     1946.560      831.168        0.503        0.254       69.652       14.576        0.044      337.346        9.257      857.182
05/22/2013  11:03:00      -70.935      129.105      -40.721      116.173       63.938       41.831    13496.224     4088.006     1749.845        2.134        0.967      147.309       14.055        0.009      337.250        9.095      857.195
05/22/2013  11:04:00     -121.243       22.020      -23.623       69.703       79.028       35.104     4858.508     6245.440     1232.280        1.404        0.617      123.227       29.455        0.057      336.950        8.595      857.162
05/22/2013  11:05:00     -104.408      195.498      -12.244       90.734       93.886       60.420     8232.692     8814.571     3650.526        3.498        1.035      221.631       45.097        0.041      337.465        9.456      857.163
05/22/2013  11:06:00      -51.525      194.576       -3.065      104.951      114.841       63.185    11014.722    13188.409     3992.299        3.435        1.410      201.283       63.175        0.099      337.547        9.594      857.153
05/22/2013  11:07:00      -58.481      175.716       -3.070       80.197      129.483       55.301     6431.516    16765.776     3058.184        3.028        1.313      185.193       54.918        0.088      337.452        9.436      857.139
05/22/2013  11:08:00      -38.244       75.612       29.009       86.189       60.328       55.238     7428.573     3639.416     3051.240        1.107        0.706       84.734       50.169        0.351      338.054       10.445      857.136
05/22/2013  11:09:00     -124.697       72.287      -26.197       79.934       78.857       38.115     6389.395     6218.353     1452.745        1.776        0.703      144.135       40.064        0.077      336.973        8.633      857.120
05/22/2013  11:10:00      -43.392      123.484       -1.509       59.429       76.452       44.413     3531.853     5844.839     1972.479        1.424        0.567      130.886       50.209        0.147      337.482        9.488      857.094
05/22/2013  11:11:00       -9.708      128.367        2.391       48.017       90.841       44.450     2305.601     8252.068     1975.794        1.455        0.627      128.734       49.587        0.148      337.506        9.525      857.079
05/22/2013  11:12:00      -38.472      296.490      -28.825       55.973      121.518       56.910     3132.935    14766.552     3238.770        5.567        1.057      298.976       64.532        0.047      337.562        9.617      857.077
05/22/2013  11:13:00     -106.622      355.531      -29.245      101.120      133.530       69.458    10225.251    17830.373     4824.397        8.575        1.644      371.175       73.985        0.040      337.337        9.240      857.096
05/22/2013  11:14:00     -155.642      388.327      -37.427       91.082       99.584       59.519     8295.847     9916.994     3542.490        9.908        1.088      418.357       54.643        0.017      337.023        8.714      857.123
05/22/2013  11:15:00     -189.449      369.615      -40.198      109.434      103.498       67.698    11975.897    10711.908     4583.071       10.069        1.364      415.339       69.395        0.028      336.869        8.457      857.120
05/22/2013  11:16:00     -103.288      229.363      -23.650       97.718      198.568       57.658     9548.799    39429.114     3324.475        5.806        2.615      251.546       74.204        0.087      336.976        8.635      857.110
05/22/2013  11:17:00       -0.560      323.498      -43.931       26.631      121.968       35.624      709.231    14876.189     1269.088        6.171        0.843      323.498       52.632        0.026      336.637        8.069      857.105
05/22/2013  11:18:00      -69.787       91.660       -9.395       66.348       67.740       35.091     4402.109     4588.773     1231.387        1.179        0.511      115.203       39.900        0.120      337.420        9.381      857.064
05/22/2013  11:19:00      -35.799       45.518       -0.087       63.949       47.564       37.455     4089.514     2262.316     1402.874        0.555        0.388       57.909       34.926        0.364      337.738        9.917      857.031
05/22/2013  11:20:00       -2.529        3.847        8.829       59.803       38.256       25.822     3576.424     1463.557      666.792        0.290        0.285        4.604       16.215       12.404      337.902       10.192      857.001
05/22/2013  11:21:00      -41.105       58.796       -9.393       81.420       74.110       35.678     6629.290     5492.264     1272.936        0.931        0.670       71.740       30.948        0.186      337.473        9.472      856.983
05/22/2013  11:22:00      183.207      126.057       15.217      104.793       63.499       55.222    10981.491     4032.160     3049.502        3.387        0.903      222.385       30.281        0.019      337.562        9.618      857.001
05/22/2013  11:23:00       96.802       94.545        2.804       56.843       68.767       43.276     3231.096     4728.886     1872.824        1.407        0.492      135.312       18.619        0.019      337.268        9.131      856.979
05/22/2013  11:24:00      174.362      178.155       -4.681      132.250      115.451       65.050    17490.026    13328.954     4231.464        4.860        1.753      249.282       59.456        0.057      337.144        8.919      856.979
05/22/2013  11:25:00      310.077      226.958       30.865      164.500      133.454      101.297    27060.160    17810.032    10261.034       10.186        2.757      384.263       74.267        0.037      337.380        9.312      856.938
05/22/2013  11:26:00       84.597      259.197      -24.085       86.686      151.444       82.758     7514.380    22935.138     6848.927        5.610        1.865      272.653       85.520        0.098      337.135        8.903      856.951
05/22/2013  11:27:00      118.620      140.939        8.203       88.795      113.210       53.589     7884.582    12816.518     2871.811        2.878        1.179      184.214       54.970        0.089      337.774        9.973      856.936
05/22/2013  11:28:00      289.532      181.021       25.472      188.483      140.310       76.143    35525.982    19687.030     5797.681        8.912        3.051      341.463       62.889        0.034      337.678        9.812      856.939
05/22/2013  11:29:00      254.045      145.074       43.291      161.730      109.308       91.970    26156.668    11948.278     8458.528        6.700        2.328      292.550       65.586        0.050      337.557        9.608      856.925
05/22/2013  11:30:00      190.832      126.162        7.783      122.881       80.447       67.348    15099.781     6471.747     4535.704        3.925        1.305      228.766       40.692        0.032      337.557        9.609      856.944
05/22/2013  11:31:00       99.443      156.298        6.642       95.096       78.229       60.623     9043.302     6119.830     3675.200        2.660        0.942      185.251       47.248        0.065      337.750        9.933      856.937
05/22/2013  11:32:00      212.034      138.269       33.251      143.261      107.989       77.290    20523.763    11661.584     5973.737        5.166        1.908      253.134       55.450        0.048      337.620        9.714      856.893
05/22/2013  11:33:00      111.553       96.008       36.896      131.142       97.559       77.125    17198.154     9517.766     5948.338        2.784        1.633      147.179       32.173        0.048      337.850       10.101      856.876
05/22/2013  11:34:00       77.746      186.523       -2.872       87.207      115.159       73.563     7605.101    13261.487     5411.585        3.356        1.314      202.078       74.340        0.135      337.553        9.603      856.900
05/22/2013  11:35:00      -31.434      253.778      -24.409       86.795      113.777       56.121     7533.299    12945.160     3149.587        4.480        1.181      255.717       58.854        0.053      337.514        9.538      856.909
05/22/2013  11:36:00       95.376      111.869       32.849      193.433      123.936       95.372    37416.360    15360.086     9095.808        4.227        3.094      147.007       66.361        0.204      337.916       10.212      856.845
05/22/2013  11:37:00     -122.618      137.283      -18.023      127.887      150.965       67.016    16354.974    22790.342     4491.174        3.891        2.182      184.070       92.243        0.251      338.081       10.488      856.866
05/22/2013  11:38:00     -123.952      331.275      -22.655      114.272      150.790       74.327    13058.016    22737.610     5524.483        8.346        2.066      353.705       74.243        0.044      337.890       10.168      856.896
05/22/2013  11:39:00       -7.800      138.545       -3.205       83.263      105.464       64.663     6932.708    11122.724     4181.310        2.075        1.112      138.764       66.442        0.229      338.172       10.642      856.913
05/22/2013  11:40:00       32.730      316.768      -25.169       76.618      124.077       70.793     5870.256    15395.224     5011.647        6.416        1.314      318.454       72.006        0.051      337.613        9.703      856.891
05/22/2013  11:41:00      -37.353      320.564      -22.548      122.449      114.660       68.143    14993.770    13146.959     4643.450        6.872        1.639      322.733       81.400        0.064      337.415        9.373      856.870
05/22/2013  11:42:00      179.427      116.629        8.494      121.959       81.334       63.937    14873.946     6615.226     4087.944        3.572        1.279      214.001       37.336        0.030      337.489        9.495      856.848
05/22/2013  11:43:00      108.734      149.454        7.549      119.381       91.962       70.147    14251.842     8456.966     4920.554        3.092        1.381      184.823       47.485        0.066      337.464        9.454      856.837
05/22/2013  11:44:00      -65.065      177.083      -18.489       75.058       87.894       56.368     5633.744     7725.397     3177.381        2.623        0.827      188.658       48.926        0.067      337.498        9.511      856.841
05/22/2013  11:45:00      -53.000      283.899      -22.392       84.301       72.381       46.969     7106.659     5239.067     2206.085        4.923        0.728      288.803       40.228        0.019      337.450        9.427      856.796
05/22/2013  11:46:00       47.299      174.107        3.032       94.657      137.319       73.940     8959.915    18856.565     5467.077        3.291        1.664      180.418       74.445        0.170      338.044       10.427      856.798
05/22/2013  11:47:00      -96.280      278.850      -27.546      117.615      135.345       67.019    13833.377    18318.231     4491.481        6.221        1.832      295.004       57.488        0.038      337.965       10.293      856.851
05/22/2013  11:48:00      103.267      176.245       17.031      176.698       97.294       73.940    31222.029     9466.121     5467.097        4.408        2.308      204.270       60.416        0.087      337.893       10.174      856.846
05/22/2013  11:49:00      211.666      147.182       20.250       99.900       90.238       77.027     9979.943     8142.878     5933.189        4.546        1.203      257.808       39.490        0.023      337.703        9.853      856.804
05/22/2013  11:50:00      253.952      141.654       27.370      117.515       97.668       78.179    13809.702     9539.126     6111.942        5.738        1.473      290.787       35.948        0.015      337.574        9.635      856.755
05/22/2013  11:51:00       66.261      321.014      -19.731      118.564      249.725       79.807    14057.522    62362.727     6369.208        9.529        4.139      327.781      111.984        0.117      337.582        9.652      856.733
05/22/2013  11:52:00      -26.239      440.305      -45.216      106.383      122.615       58.616    11317.299    15034.475     3435.818       11.319        1.489      441.086       58.732        0.018      337.340        9.244      856.783
05/22/2013  11:53:00     -121.620      190.008      -12.622      102.057      118.080       77.450    10415.650    13942.973     5998.481        4.070        1.518      225.598       65.161        0.083      337.732        9.902      856.755
05/22/2013  11:54:00     -107.216       95.755      -16.027       73.193       88.887       43.474     5357.203     7900.815     1889.960        1.803        0.757      143.751       42.307        0.087      338.001       10.357      856.711
05/22/2013  11:55:00       24.147      216.450      -16.383      124.975      115.673       77.900    15618.644    13380.158     6068.401        4.138        1.753      217.793       76.106        0.122      338.022       10.389      856.733
05/22/2013  11:56:00      -63.174      170.762      -27.915       66.446       87.631       42.672     4415.064     7679.266     1820.913        2.392        0.696      182.073       31.696        0.030      337.507        9.527      856.709
05/22/2013  11:57:00       71.796      223.410      -29.044       58.634      126.695       64.104     3437.980    16051.535     4109.378        3.975        1.180      234.663       67.776        0.083      337.493        9.501      856.698
05/22/2013  11:58:00       85.748      126.543       -3.378       60.083       57.409       44.244     3609.943     3295.805     1957.537        1.612        0.443      152.859       27.354        0.032      337.913       10.208      856.680
05/22/2013  11:59:00        1.926      199.426       -8.349       81.496       99.255       46.828     6641.639     9851.596     2192.841        2.926        0.934      199.435       49.918        0.063      337.887       10.162      856.674
05/22/2013  12:00:00      115.929      141.297       12.288      133.342      113.249       66.509    17780.065    12825.353     4423.456        3.428        1.751      182.768       54.711        0.090      338.444       11.097      856.690
05/22/2013  12:01:00       85.579      170.606       -3.885      136.102      134.369       68.841    18523.763    18055.060     4739.032        3.887        2.066      190.867       62.053        0.106      338.578       11.322      856.688
05/22/2013  12:02:00       29.069      326.865      -40.881       59.651      122.404       60.806     3558.225    14982.801     3697.428        6.579        1.112      328.155       65.916        0.040      337.664        9.789      856.729
05/22/2013  12:03:00      -38.331      181.221      -17.137       94.446      117.331       59.243     8919.975    13766.593     3509.703        3.039        1.310      185.231       60.343        0.106      337.908       10.197      856.697
05/22/2013  12:04:00        5.817      154.054       27.179       92.801       97.404       73.858     8612.105     9487.581     5455.056        2.403        1.178      154.164       63.318        0.169      338.345       10.932      856.682
05/22/2013  12:05:00      -17.428      263.287      -23.398      100.104      156.554       75.766    10020.805    24509.175     5740.539        5.521        2.014      263.863       80.065        0.092      338.036       10.413      856.673
05/22/2013  12:06:00     -142.042      390.972      -44.000      104.448      120.440       61.943    10909.283    14505.769     3836.918       10.211        1.463      415.975       61.487        0.022      337.826       10.059      856.700
05/22/2013  12:07:00     -113.781      288.260      -39.798      114.474      139.430       64.440    13104.276    19440.616     4152.492        6.715        1.835      309.903       61.998        0.040      337.733        9.905      856.719
05/22/2013  12:08:00     -174.680      239.659      -40.309      117.460      135.409       72.647    13796.803    18335.659     5277.520        6.348        1.870      296.563       69.291        0.055      337.773        9.971      856.701
05/22/2013  12:09:00      -91.903      386.183      -51.930       99.318      123.008       54.105     9864.004    15130.858     2927.299        9.410        1.396      396.968       57.466        0.021      337.389        9.327      856.709
05/22/2013  12:10:00      -52.628      387.180      -25.544      114.243      138.081       66.928    13051.357    19066.465     4479.329        9.496        1.830      390.740       67.424        0.030      337.948       10.265      856.651
05/22/2013  12:11:00       29.669      218.943        2.016       71.895      134.203       72.380     5168.908    18010.473     5238.830        3.861        1.421      220.944       81.496        0.136      337.959       10.283      856.653
05/22/2013  12:12:00       98.523       72.465       28.710       84.668       50.940       49.305     7168.633     2594.872     2430.963        1.399        0.610      122.303       29.691        0.059      338.119       10.553      856.603
05/22/2013  12:13:00      -65.189      172.056      -22.968      134.700      119.536       52.254    18144.116    14288.855     2730.504        3.476        1.758      183.992       66.904        0.132      337.728        9.896      856.575
05/22/2013  12:14:00       29.820      247.809      -21.755      100.809      124.128       65.583    10162.460    15407.638     4301.127        4.632        1.494      249.596       67.997        0.074      337.899       10.183      856.569
05/22/2013  12:15:00        8.954      348.567      -44.323       94.156      101.662       55.512     8865.267    10335.089     3081.568        7.291        1.114      348.682       60.218        0.030      337.687        9.827      856.588
05/22/2013  12:16:00       87.582      344.038      -17.595      119.092      226.616      115.198    14182.979    51354.753    13270.691       10.256        3.940      355.011      127.682        0.129      338.007       10.363      856.563
05/22/2013  12:17:00      101.928      277.007      -16.862       90.164      181.996       96.562     8129.596    33122.413     9324.264        6.898        2.529      295.165      103.005        0.122      338.206       10.698      856.576
05/22/2013  12:18:00      -19.823      340.767      -44.521      142.451      133.978       67.172    20292.191    17950.004     4512.062        8.062        2.138      341.343       61.990        0.033      337.834       10.073      856.584
05/22/2013  12:19:00     -207.601      185.357      -25.347      151.638      108.697       75.884    22994.088    11814.981     5758.319        5.932        2.028      278.308       88.254        0.101      337.812       10.037      856.551
05/22/2013  12:20:00      124.755       99.076       31.487      123.644       85.482       54.639    15287.946     7307.093     2985.470        2.597        1.279      159.311       46.367        0.085      338.147       10.599      856.540
05/22/2013  12:21:00      225.807      201.891       22.690      138.472      118.824      102.340    19174.420    14119.239    10473.506        6.801        2.188      302.901       72.861        0.058      338.123       10.558      856.511
05/22/2013  12:22:00       93.916      276.532       -7.838      142.003      155.943      100.528    20164.769    24318.192    10105.881        6.996        2.729      292.045       99.260        0.116      337.738        9.913      856.527
05/22/2013  12:23:00       -1.060      180.853       -0.529       83.808      117.463       57.764     7023.697    13797.488     3336.624        2.843        1.208      180.856       66.070        0.133      338.021       10.387      856.549
05/22/2013  12:24:00       50.905      161.933       -4.115      105.066      174.128       66.827    11038.857    30320.515     4465.796        3.732        2.291      169.746       81.035        0.228      338.391       11.009      856.543
05/22/2013  12:25:00      109.630       69.095       19.351       71.535       76.197       53.084     5117.227     5805.964     2817.892        1.545        0.687      129.587       20.440        0.025      338.622       11.397      856.521
05/22/2013  12:26:00      176.940      163.457       19.115      213.494      114.241       84.107    45579.643    13050.951     7073.966        6.203        3.285      240.886       76.099        0.100      338.579       11.324      856.513
05/22/2013  12:27:00      217.416      206.614       29.245      180.617      114.667       93.162    32622.524    13148.565     8679.244        7.262        2.723      299.932       65.386        0.048      338.134       10.579      856.526
05/22/2013  12:28:00      320.697      216.710       31.029      187.361      142.979      107.090    35104.106    20443.132    11468.323       10.888        3.351      387.053       77.429        0.040      337.785        9.990      856.525
05/22/2013  12:29:00      168.709      194.880       10.599      146.584      105.700       71.870    21486.953    11172.561     5165.261        5.218        1.891      257.761       62.575        0.059      337.856       10.109      856.525
05/22/2013  12:30:00      180.087      219.365      -13.965      149.048      111.327       80.146    22215.228    12393.739     6423.354        6.088        2.052      283.818       71.144        0.063      338.152       10.607      856.524
05/22/2013  12:31:00      269.892      209.928       46.086      220.788      170.963      120.159    48747.287    29228.508    14438.145       10.571        4.621      341.924       88.766        0.067      338.322       10.892      856.475
05/22/2013  12:32:00      254.851      261.933       13.305      174.501      146.039      101.474    30450.471    21327.497    10296.959        9.789        3.104      365.456       71.226        0.038      337.899       10.182      856.533
05/22/2013  12:33:00      155.226      143.899       19.396      132.688      102.045       83.006    17605.998    10413.125     6890.019        4.004        1.745      211.665       49.548        0.055      337.746        9.925      856.493
05/22/2013  12:34:00      344.182      259.500       33.562      158.024      141.735       95.402    24971.693    20088.931     9101.480       12.053        2.708      431.047       69.982        0.026      337.869       10.133      856.457
05/22/2013  12:35:00      271.701      210.883       39.206      154.255      112.608       86.223    23794.529    12680.571     7434.475        8.186        2.195      343.938       38.636        0.013      337.720        9.882      856.463
05/22/2013  12:36:00      390.252      212.089       44.536      178.260      126.805       98.635    31776.666    16079.472     9728.952       12.841        2.879      444.160       77.226        0.030      337.846       10.091      856.407
05/22/2013  12:37:00      254.253      155.668       57.513      169.863      124.445       97.769    28853.316    15486.652     9558.804        7.303        2.695      298.123       90.810        0.093      338.249       10.769      856.386
05/22/2013  12:38:00      167.893      130.264       41.242      162.793      106.684       64.213    26501.423    11381.420     4123.296        4.442        2.100      212.501       15.136        0.005      338.371       10.975      856.415
05/22/2013  12:39:00      280.584      181.200       33.445      177.582      121.670       84.270    31535.543    14803.672     7101.376        8.305        2.672      334.007       33.245        0.010      338.353       10.944      856.377
05/22/2013  12:40:00      226.887      164.059      106.871      128.222      102.000      111.309    16440.916    10403.924    12389.664        6.452        1.962      279.988       63.995        0.052      338.330       10.905      856.335
05/22/2013  12:41:00      344.262      240.546       61.740      104.428       90.659       86.493    10905.240     8219.089     7480.970       10.339        1.330      419.975       44.378        0.011      337.891       10.168      856.372
05/22/2013  12:42:00      155.624      186.174       11.441      179.158       93.695       65.380    32097.578     8778.680     4274.537        5.207        2.258      242.651       55.430        0.052      338.245       10.763      856.371
05/22/2013  12:43:00      -57.429      278.561      -35.309       76.595      133.719       57.438     5866.781    17880.640     3299.134        5.459        1.352      284.419       68.020        0.057      338.534       11.250      856.366
05/22/2013  12:44:00       93.837      310.729      -41.387       80.116      149.393       77.149     6418.499    22318.284     5951.926        7.087        1.734      324.589       74.721        0.053      338.484       11.164      856.351
05/22/2013  12:45:00       14.923      194.130      -13.241      112.474      144.933       70.676    12650.489    21005.471     4995.081        3.836        1.933      194.702       82.547        0.180      338.506       11.202      856.398
05/22/2013  12:46:00       16.409      260.709      -26.503       91.570       92.138       51.631     8385.089     8489.390     2665.719        4.424        0.977      261.225       50.608        0.038      337.998       10.347      856.371
05/22/2013  12:47:00       31.527      125.284        5.475       58.588       94.513       50.110     3432.593     8932.798     2511.005        1.580        0.744      129.190       47.569        0.136      338.617       11.388      856.340
05/22/2013  12:48:00       79.780       55.291       15.212       63.283       45.016       42.589     4004.689     2026.471     1813.861        0.875        0.392       97.067       24.280        0.063      338.873       11.819      856.314
05/22/2013  12:49:00      -38.151      347.945      -42.123       99.538      185.625       63.482     9907.911    34456.659     4030.013        8.633        2.420      350.030       83.255        0.057      338.304       10.861      856.325
05/22/2013  12:50:00      -27.237      480.523      -48.178      102.594      180.323       67.739    10525.586    32516.447     4588.540       14.079        2.382      481.295       82.666        0.030      338.162       10.623      856.327
05/22/2013  12:51:00      237.609      227.774       19.663      195.757      134.618      103.152    38320.620    18121.927    10640.297        8.789        3.354      329.149       77.209        0.055      338.519       11.223      856.331
05/22/2013  12:52:00      263.158      226.487       12.194      164.554      133.308       96.547    27077.981    17771.095     9321.414        8.742        2.709      347.201       50.764        0.021      338.203       10.691      856.316
05/22/2013  12:53:00      268.875      181.640       34.009      164.045      110.743       84.125    26910.714    12263.948     7077.030        7.634        2.313      324.479       57.034        0.031      338.412       11.043      856.284
05/22/2013  12:54:00      440.809      230.433       22.992      147.276      114.537       90.201    21690.234    13118.792     8136.268       14.543        2.147      497.405       42.545        0.007      337.965       10.293      856.283
05/22/2013  12:55:00      158.827      146.032       22.372      144.873      103.737       94.784    20988.095    10761.375     8984.025        4.388        2.037      215.758       46.235        0.046      338.325       10.897      856.290
05/22/2013  12:56:00      319.534      206.863       26.300      143.823       94.808       83.483    20685.145     8988.632     6969.352        9.111        1.832      380.650       42.955        0.013      337.998       10.350      856.289
05/22/2013  12:57:00      181.062       83.755       33.546      120.580       93.287       70.010    14539.452     8702.513     4901.459        3.453        1.407      199.496       55.651        0.078      338.699       11.525      856.248
05/22/2013  12:58:00      342.485      200.114       87.761      192.740      131.471      104.866    37148.805    17284.656    10996.854       11.522        3.272      396.663       98.797        0.062      338.313       10.876      856.184
05/22/2013  12:59:00      244.335      212.170      104.726      168.222      140.182      127.852    28298.608    19650.887    16346.031        8.998        3.215      323.598      100.146        0.096      338.366       10.966      856.100
05/22/2013  13:00:00      239.117      192.609       23.586      152.308      127.672       96.360    23197.772    16300.252     9285.344        7.180        2.439      307.043       67.047        0.048      338.402       11.027      856.171
05/22/2013  13:01:00      145.013      127.444        0.900       97.288      131.577       72.813     9465.031    17312.589     5301.698        3.467        1.604      193.056       80.361        0.173      338.585       11.335      856.214
05/22/2013  13:02:00      156.012      158.634       26.841      127.521       94.137       88.534    16261.597     8861.791     7838.248        4.159        1.648      222.496       43.027        0.037      338.977       11.993      856.210
05/22/2013  13:03:00      267.562      168.239       48.969      167.333      101.757       67.874    28000.198    10354.487     4606.903        7.262        2.148      316.060       59.134        0.035      338.650       11.444      856.159
05/22/2013  13:04:00      184.521       86.447       47.074      141.175      100.703       90.599    19930.493    10141.080     8208.161        4.100        1.914      203.767       65.964        0.105      338.747       11.606      856.185
05/22/2013  13:05:00      137.625      123.795       83.665      146.721      101.351       97.251    21527.125    10272.015     9457.789        4.125        2.063      185.110       83.114        0.202      338.861       11.799      856.149
05/22/2013  13:06:00      285.959      220.264       41.883      176.778       93.767       98.785    31250.599     8792.340     9758.545        9.091        2.490      360.955       73.996        0.042      338.694       11.518      856.150
05/22/2013  13:07:00      379.360      237.064       55.952      171.466      127.854      102.793    29400.518    16346.754    10566.432       12.977        2.816      447.341       53.343        0.014      338.309       10.869      856.120
05/22/2013  13:08:00      360.886      280.557       29.663      168.463      124.804      105.637    28379.704    15576.077    11159.123       13.246        2.756      457.111       90.607        0.039      338.310       10.871      856.131
05/22/2013  13:09:00      283.361      185.176       42.643      124.380       82.951       81.688    15470.477     6880.844     6673.005        7.271        1.451      338.502       37.650        0.012      338.528       11.237      856.132
05/22/2013  13:10:00      272.356      185.091       26.973      113.631       75.005       77.359    12911.920     5625.719     5984.397        6.684        1.226      329.297       48.998        0.022      338.068       10.464      856.140
05/22/2013  13:11:00      175.476      128.281       25.522      151.169       93.934       70.623    22852.211     8823.527     4987.667        4.227        1.833      217.365       47.811        0.048      338.717       11.557      856.123
05/22/2013  13:12:00       -5.899      326.702      -64.532       84.862      146.910       38.064     7201.568    21582.445     1448.867        7.058        1.512      326.755       49.066        0.023      338.001       10.354      856.157
05/22/2013  13:13:00       29.171      128.805       -5.159       63.206      117.626       50.009     3994.963    13835.870     2500.851        1.890        1.017      132.067       53.921        0.167      338.366       10.968      856.148
05/22/2013  13:14:00       46.688       61.442       17.057       67.004       62.919       28.085     4489.530     3958.850      788.769        0.774        0.462       77.168       20.402        0.070      338.328       10.905      856.094
05/22/2013  13:15:00       40.472      198.279       -7.080       60.601      138.181       59.509     3672.462    19093.897     3541.328        3.365        1.315      202.368       76.702        0.144      338.768       11.642      856.075
05/22/2013  13:16:00      322.710      212.470        6.735      154.168      102.751       90.876    23767.871    10557.675     8258.520        9.595        2.129      386.374       57.387        0.022      338.550       11.274      856.103
05/22/2013  13:17:00      206.387      118.335       29.789      150.148      103.148       90.340    22544.534    10639.429     8161.359        4.941        2.067      237.905       51.944        0.048      338.405       11.032      856.103
05/22/2013  13:18:00       84.359      112.067       -7.873       83.871       72.939       57.972     7034.414     5320.058     3360.772        1.772        0.786      140.269       29.819        0.045      338.796       11.691      856.078
05/22/2013  13:19:00       -4.276      167.641      -18.454       66.583       76.489       41.408     4433.288     5850.594     1714.634        2.023        0.600      167.696       17.311        0.011      338.604       11.367      856.090
05/22/2013  13:20:00       18.387      112.008      125.742       52.305       70.556       64.462     2735.771     4978.159     4155.399        2.028        0.593      113.507       50.720        0.200      338.684       11.502      856.050
05/22/2013  13:21:00       33.599       95.766      126.600       66.372       64.481       34.796     4405.186     4157.863     1210.756        1.805        0.489      101.489       24.179        0.057      338.916       11.893      856.026
05/22/2013  13:22:00       89.151       82.853       42.852      119.562       82.531       69.757    14295.052     6811.433     4866.063        2.131        1.299      121.706       42.000        0.119      339.120       12.235      856.066
05/22/2013  13:23:00      182.634      118.406        2.386       84.906       66.515       63.366     7209.108     4424.254     4015.192        3.151        0.782      217.659       37.151        0.029      338.533       11.246      856.060
05/22/2013  13:24:00       55.696       85.092        8.993       71.874       73.146       43.892     5165.839     5350.270     1926.489        1.143        0.622      101.698       34.320        0.114      338.659       11.460      856.038
05/22/2013  13:25:00       65.792       51.084       32.954       48.053       35.682       29.259     2309.085     1273.197      856.115        0.623        0.222       83.296       15.391        0.034      338.535       11.252      856.032
05/22/2013  13:26:00      122.356      108.458       -0.396       71.579       69.045       41.535     5123.589     4767.196     1725.180        1.917        0.581      163.506       36.077        0.049      338.538       11.256      856.010
05/22/2013  13:27:00       64.493       87.995       -8.142       48.690       67.893       42.102     2370.728     4609.484     1772.587        1.036        0.438      109.098       32.283        0.088      339.449       12.789      855.998
05/22/2013  13:28:00      117.352      231.823       -4.847      126.483      157.182       87.526    15998.042    24706.297     7660.765        5.794        2.418      259.834       86.219        0.110      338.930       11.914      856.018
05/22/2013  13:29:00      -74.642      292.181      -37.756      103.404      118.359       70.704    10692.453    14008.906     4999.116        6.103        1.485      301.565       69.991        0.054      338.838       11.760      856.037
05/22/2013  13:30:00     -215.216       95.452      -37.822       74.102      149.530       42.683     5491.180    22359.092     1821.860        4.326        1.484      235.433       46.283        0.039      338.507       11.203      856.005
05/22/2013  13:31:00       21.930       -4.768       19.114       58.566       51.427       43.318     3429.931     2644.690     1876.451        0.441        0.398       22.443       31.436        1.962      339.324       12.580      855.929
05/22/2013  13:32:00      123.813      111.589       17.386       90.919       65.354       68.021     8266.208     4271.088     4626.797        2.262        0.858      166.678       44.768        0.072      338.901       11.865      855.969
05/22/2013  13:33:00      290.200      174.766       73.076      148.874       99.566       85.135    22163.481     9913.456     7247.943        7.970        1.966      338.762       53.070        0.025      339.021       12.067      855.891
05/22/2013  13:34:00      175.818      155.017       26.855      142.862      106.824       82.547    20409.594    11411.396     6813.976        4.714        1.932      234.398       55.741        0.057      339.115       12.226      855.932
05/22/2013  13:35:00      246.100      153.365       40.153      201.319      106.478       83.650    40529.212    11337.516     6997.264        7.227        2.943      289.976       71.201        0.060      339.193       12.358      855.960
05/22/2013  13:36:00      119.814      217.189       23.915      181.972      161.877       91.237    33113.705    26204.223     8324.136        6.486        3.382      248.045       82.960        0.112      339.245       12.445      855.946
05/22/2013  13:37:00       84.816      169.581        2.838       96.278      123.967       76.504     9269.446    15367.929     5852.917        3.322        1.525      189.609       72.542        0.146      339.090       12.183      856.000
05/22/2013  13:38:00       77.898      280.154      -12.759      158.913      123.576       92.056    25253.334    15270.919     8474.279        6.685        2.450      290.783       93.463        0.103      338.754       11.617      855.966
05/22/2013  13:39:00       68.402      264.022      -14.247      115.151      195.074       92.031    13259.644    38053.863     8469.664        6.717        2.989      272.739      100.854        0.137      339.292       12.523      855.946
05/22/2013  13:40:00       37.690      122.662       -1.649       84.559       85.341       52.788     7150.277     7283.149     2786.613        1.684        0.861      128.322       45.682        0.127      339.613       13.066      855.955
05/22/2013  13:41:00       95.010      192.286       -8.975      124.132      106.996       68.711    15408.662    11448.106     4721.158        3.882        1.579      214.478       58.707        0.075      339.078       12.164      855.943
05/22/2013  13:42:00     -137.199      182.624      -28.727       84.782      131.058       43.881     7188.010    17176.250     1925.586        3.964        1.314      228.418       42.704        0.035      338.932       11.917      855.968
05/22/2013  13:43:00     -139.885      263.290      -24.035       95.623      183.781       54.363     9143.854    33775.384     2955.306        6.766        2.294      298.144       64.084        0.046      338.845       11.771      855.935
05/22/2013  13:44:00      -90.916      -58.046        8.118      103.047       96.131       47.411    10618.711     9241.252     2247.830        1.690        1.105      107.866       56.277        0.272      339.525       12.917      855.876
05/22/2013  13:45:00        1.717      -20.896       55.507       36.306       95.945       56.530     1318.152     9205.408     3195.685        0.862        0.686       20.967       63.339        9.126      339.678       13.177      855.829
05/22/2013  13:46:00       19.817       56.204       80.175       46.655       58.586       36.361     2176.673     3432.264     1322.144        0.845        0.347       59.595       28.595        0.230      339.758       13.312      855.801
05/22/2013  13:47:00       48.661       82.383       49.937       63.367       56.615       56.161     4015.396     3205.216     3154.031        1.101        0.519       95.681       37.814        0.156      339.549       12.959      855.810
05/22/2013  13:48:00       16.874       40.418       -7.372       73.113      106.927       50.011     5345.498    11433.453     2501.079        1.062        0.964       43.799       61.131        1.948      339.216       12.399      855.791
05/22/2013  13:49:00       72.577       58.066       44.266       49.157       45.477       37.603     2416.421     2068.123     1414.006        0.825        0.295       92.947       24.931        0.072      339.754       13.304      855.766
05/22/2013  13:50:00       63.259       66.483       40.149       73.695       58.246       48.313     5430.907     3392.634     2334.139        1.059        0.558       91.770       37.799        0.170      340.229       14.106      855.746
05/22/2013  13:51:00       44.986       44.734       -6.877       76.419       74.543       45.841     5839.821     5556.713     2101.417        0.878        0.675       63.442       33.746        0.283      339.908       13.564      855.734
05/22/2013  13:52:00       56.229      153.357       -5.389       74.994      142.377       62.434     5624.172    20271.318     3898.060        2.825        1.490      163.340       69.265        0.180      339.523       12.913      855.760
05/22/2013  13:53:00       58.799      132.401      -17.362       45.440       84.575       47.503     2064.833     7152.954     2256.521        1.638        0.574      144.870       42.906        0.088      338.925       11.908      855.769
05/22/2013  13:54:00      135.225      127.082        6.983       94.148       71.415       56.590     8863.836     5100.085     3202.424        2.582        0.858      185.569       29.198        0.025      339.428       12.752      855.740
05/22/2013  13:55:00       61.772       35.612      -11.608       55.926       74.663       40.436     3127.741     5574.519     1635.070        0.778        0.517       71.302       19.700        0.076      339.973       13.674      855.728
05/22/2013  13:56:00      212.199      108.539       18.864      107.164       77.152       74.795    11484.103     5952.445     5594.344        4.009        1.152      238.346       28.493        0.014      339.419       12.736      855.729
05/22/2013  13:57:00       73.313      223.055      -27.833      173.587      118.189       49.593    30132.599    13968.752     2459.424        5.122        2.328      234.794       69.456        0.088      338.882       11.832      855.744
05/22/2013  13:58:00      -18.467      263.691      -12.842       76.244      131.603       57.189     5813.119    17319.292     3270.536        4.822        1.320      264.337       64.928        0.060      339.558       12.971      855.741
05/22/2013  13:59:00      -90.284      380.180      -47.364       82.611      100.363       40.985     6824.565    10072.639     1679.761        8.675        0.929      390.753       47.407        0.015      338.706       11.536      855.767
05/22/2013  14:00:00     -226.153       81.673      -31.932      104.458      101.926       48.539    10911.380    10388.810     2355.993        4.124        1.183      240.449       51.946        0.047      339.137       12.263      855.723
05/22/2013  14:01:00     -114.206      117.136      -13.042       87.947      111.364       53.423     7734.701    12401.910     2854.017        2.496        1.150      163.597       45.084        0.076      339.238       12.433      855.701
05/22/2013  14:02:00      -15.383      112.259       25.257       92.809      129.386       53.844     8613.562    16740.622     2899.204        2.086        1.413      113.308       49.796        0.193      339.482       12.845      855.710
05/22/2013  14:03:00       65.021      239.900      -17.234       83.470      127.197       70.538     6967.290    16179.006     4975.567        4.509        1.406      248.555       73.094        0.086      339.202       12.371      855.727
05/22/2013  14:04:00      142.182      214.772      -36.535       88.560      131.408       69.802     7842.959    17267.993     4872.320        4.882        1.499      257.571       67.609        0.069      339.011       12.050      855.736
05/22/2013  14:05:00       49.019       47.166       30.436       50.282       63.324       40.408     2528.271     4009.879     1632.808        0.686        0.409       68.026       36.204        0.283      339.611       13.064      855.702
05/22/2013  14:06:00       44.288       71.144       37.527       90.378       57.282       44.300     8168.227     3281.200     1962.533        1.092        0.671       83.803       36.287        0.187      339.808       13.396      855.672
05/22/2013  14:07:00      209.023      158.120       49.096      132.216       78.300       89.800    17480.956     6130.836     8064.039        5.138        1.584      262.093       57.812        0.049      339.248       12.448      855.670
05/22/2013  14:08:00      131.265      122.960      108.747       91.722       69.981       60.392     8412.913     4897.279     3647.209        3.056        0.848      179.860       57.394        0.102      339.084       12.171      855.663
05/22/2013  14:09:00       15.754      159.455       26.451       58.706      143.162       79.192     3446.437    20495.339     6271.395        2.829        1.511      160.231       96.080        0.360      339.508       12.890      855.637
05/22/2013  14:10:00      109.194      118.746       27.937      112.297       83.502       70.221    12610.507     6972.660     4930.997        2.565        1.226      161.319       55.489        0.118      339.322       12.574      855.607
05/22/2013  14:11:00      108.694      163.454       18.666      104.792      116.937       84.189    10981.305    13674.203     7087.832        3.531        1.587      196.295       69.334        0.125      339.904       13.555      855.606
05/22/2013  14:12:00       26.815      115.969      -19.260      106.266       77.777       51.957    11292.452     6049.191     2699.560        1.729        1.002      119.028       53.117        0.199      339.324       12.578      855.641
05/22/2013  14:13:00     -110.223      130.680      -28.932       57.704       88.288       40.317     3329.751     7794.706     1625.492        2.140        0.637      170.957       31.730        0.034      339.219       12.402      855.621
05/22/2013  14:14:00      -21.421       79.515        1.500       76.789       59.545       42.662     5896.585     3545.590     1820.006        0.902        0.563       82.350       44.101        0.287      339.707       13.225      855.613
05/22/2013  14:15:00       81.096      110.706       50.850      108.811       60.214       76.763    11839.800     3625.679     5892.544        2.138        1.068      137.231       29.633        0.047      339.652       13.129      855.614
05/22/2013  14:16:00      233.194      136.102        8.324       69.654       58.679       52.627     4851.645     3443.178     2769.645        4.202        0.553      270.006       18.459        0.005      338.789       11.676      855.623
05/22/2013  14:17:00      205.280      165.786       43.307      133.066       78.272       75.227    17706.619     6126.452     5659.112        5.049        1.475      263.866       39.031        0.022      339.255       12.461      855.582
05/22/2013  14:18:00      176.273       86.729       42.550      121.621      104.670       76.413    14791.771    10955.744     5838.932        3.599        1.579      196.454       25.652        0.017      339.771       13.331      855.564
05/22/2013  14:19:00      181.614      118.521       41.279      177.147      136.582       83.072    31381.026    18654.710     6900.901        5.282        2.847      216.866       63.102        0.085      339.646       13.120      855.514
05/22/2013  14:20:00      -58.267      238.398      -24.037       84.450      153.177       64.422     7131.802    23463.127     4150.151        4.777        1.737      245.415       68.836        0.079      339.652       13.129      855.546
05/22/2013  14:21:00      -48.441      589.719      -73.168       96.161      114.832       47.291     9246.883    13186.403     2236.449       19.006        1.233      591.705       41.610        0.005      338.880       11.828      855.538
05/22/2013  14:22:00     -135.287      345.057      -38.582       93.627      198.252       56.011     8766.030    39303.921     3137.180        9.502        2.560      370.630       70.582        0.036      339.008       12.045      855.549
05/22/2013  14:23:00      -59.812      329.102      -26.045       72.199      153.808       62.416     5212.741    23656.908     3895.798        7.266        1.638      334.493       84.707        0.064      339.069       12.148      855.557
05/22/2013  14:24:00      -77.264      250.139      -16.925       71.579       89.025       46.936     5123.528     7925.479     2202.977        4.204        0.763      261.800       44.404        0.029      339.067       12.144      855.550
05/22/2013  14:25:00        3.831       45.787      -20.591       30.971       81.554       22.658      959.216     6651.052      513.376        0.533        0.406       45.947       22.511        0.240      338.980       12.001      855.497
05/22/2013  14:26:00       -4.208        7.390      -11.024       19.978       32.374       18.595      399.128     1048.069      345.781        0.099        0.090        8.504       16.247        3.650      339.101       12.204      855.435
05/22/2013  14:27:00      -77.049       35.219      -14.250       45.423       66.279       27.418     2063.273     4392.852      751.721        0.729        0.360       84.716       27.712        0.107      339.400       12.706      855.417
05/22/2013  14:28:00      -26.427       16.015       15.597       51.746       37.165       40.815     2677.615     1381.261     1665.886        0.346        0.286       30.901       36.201        1.373      339.641       13.114      855.420
05/22/2013  14:29:00       -8.189      146.648      -10.305       49.366      124.184       44.157     2437.036    15421.614     1949.877        2.074        0.990      146.876       58.715        0.160      339.398       12.702      855.426
05/22/2013  14:30:00       57.100       72.341       -5.178       49.080       47.986       37.882     2408.860     2302.661     1435.011        0.733        0.307       92.161       30.850        0.112      339.306       12.549      855.440
05/22/2013  14:31:00      112.472       58.869       -0.970       62.680       54.583       40.293     3928.831     2979.255     1623.492        1.232        0.427      126.947       14.296        0.013      339.237       12.432      855.410
05/22/2013  14:32:00       63.476       96.816       14.654       57.574       79.123       51.505     3314.751     6260.502     2652.809        1.292        0.611      115.769       46.003        0.158      339.554       12.966      855.383
05/22/2013  14:33:00      145.235      137.723       11.671       98.809       80.456       64.411     9763.152     6473.150     4148.801        3.029        1.019      200.152       43.125        0.046      339.405       12.714      855.367
05/22/2013  14:34:00       38.298      285.633      -42.735      105.149      121.276       50.881    11056.405    14707.751     2588.907        5.661        1.418      288.189       62.522        0.047      339.416       12.730      855.363
05/22/2013  14:35:00       -6.502      332.673      -38.276       67.683       96.497       53.988     4581.008     9311.621     2914.713        6.449        0.840      332.737       50.308        0.023      339.221       12.402      855.376
05/22/2013  14:36:00       -4.991      176.659      -23.683       54.426       72.568       40.472     2962.230     5266.047     1637.947        2.083        0.493      176.730       40.651        0.053      339.347       12.617      855.361
05/22/2013  14:37:00        5.119      158.264       -9.866       68.949      101.937       52.898     4753.897    10391.122     2798.197        2.155        0.897      158.347       56.256        0.126      339.775       13.338      855.349
05/22/2013  14:38:00      176.851      160.856       -2.608      135.597       85.868       74.977    18386.642     7373.245     5621.487        4.426        1.569      239.063       48.832        0.042      339.470       12.822      855.352
05/22/2013  14:39:00       32.439       32.819        6.233       36.661       55.160       33.025     1344.057     3042.581     1090.659        0.382        0.274       46.145       23.602        0.262      339.369       12.654      855.358
05/22/2013  14:40:00      -49.549       38.319       12.644       49.378       36.296       36.652     2438.195     1317.388     1343.342        0.459        0.255       62.637       35.694        0.325      339.541       12.947      855.290
05/22/2013  14:41:00       48.058      -51.408        4.517       41.745       66.257       31.995     1742.674     4389.948     1023.697        0.606        0.358       70.373       31.814        0.204      339.402       12.710      855.263
05/22/2013  14:42:00       98.604      -65.118       22.518       44.184       80.186       31.994     1952.212     6429.842     1023.604        1.194        0.470      118.165       35.253        0.089      339.126       12.245      855.275
05/22/2013  14:43:00       12.104       25.475       25.592      131.369       96.275       54.734    17257.785     9268.912     2995.817        1.548        1.476       28.204       50.619        3.221      339.695       13.204      855.293
05/22/2013  14:44:00      189.555      221.906      -11.741      157.764      135.002       96.340    24889.368    18225.540     9281.318        6.884        2.620      291.844       79.983        0.075      339.861       13.481      855.312
05/22/2013  14:45:00      265.160      171.790       31.020      162.472      116.125       95.376    26397.011    13485.086     9096.644        7.487        2.449      315.945       75.208        0.057      339.555       12.966      855.308
05/22/2013  14:46:00      -11.282      254.753      -32.380       53.375      114.949       45.300     2848.928    13213.244     2052.053        4.209        0.906      255.003       55.816        0.048      339.443       12.777      855.354
05/22/2013  14:47:00       68.255      120.352       -2.144      124.995       74.950       58.239    15623.670     5617.446     3391.836        2.189        1.232      138.359       50.505        0.133      339.833       13.436      855.348
05/22/2013  14:48:00      -28.455      166.662      -24.796      122.145      102.340       52.823    14919.301    10473.516     2790.241        2.869        1.409      169.074       47.402        0.079      339.633       13.099      855.359
05/22/2013  14:49:00     -217.656       96.108      -36.341      100.859      103.220       57.856    10172.592    10654.431     3347.369        4.105        1.209      237.931       62.487        0.069      339.441       12.774      855.308
05/22/2013  14:50:00     -177.228       47.460      -20.732       97.115      120.227       59.977     9431.246    14454.430     3597.237        3.078        1.374      183.473       55.563        0.092      339.680       13.176      855.264
05/22/2013  14:51:00     -101.269       65.180       21.855       86.339       89.857       54.658     7454.341     8074.277     2987.530        1.674        0.926      120.432       40.771        0.115      340.343       14.299      855.230
05/22/2013  14:52:00     -127.101      119.137       -2.240      105.336       61.934       52.519    11095.724     3835.876     2758.196        2.402        0.884      174.207       49.466        0.081      339.774       13.337      855.249
05/22/2013  14:53:00      -28.128       84.868        8.690       49.224       62.540       48.287     2422.998     3911.238     2331.655        0.837        0.433       89.408       30.332        0.115      340.049       13.801      855.230
05/22/2013  14:54:00     -140.792      120.931      -23.772       74.256       80.965       50.023     5513.925     6555.261     2502.303        2.479        0.729      185.599       38.677        0.043      340.126       13.931      855.208
05/22/2013  14:55:00     -142.227       93.765      -20.124       94.685       88.637       54.802     8965.190     7856.448     3003.276        2.462        0.991      170.354       45.206        0.070      340.072       13.839      855.199
05/22/2013  14:56:00     -121.205       42.506        0.515       79.150       59.378       45.490     6264.706     3525.759     2069.305        1.418        0.593      128.442       45.236        0.124      340.384       14.367      855.163
05/22/2013  14:57:00      -57.487       60.618        9.901       79.450       92.400       56.505     6312.296     8537.676     3192.846        1.256        0.902       83.543       42.323        0.257      340.445       14.469      855.153
05/22/2013  14:58:00      -80.499      191.894      -17.213       64.825      116.471       50.910     4202.304    13565.569     2591.827        3.198        1.018      208.095       56.929        0.075      339.887       13.526      855.169
05/22/2013  14:59:00      -57.185      206.305       -7.218       56.180       97.684       46.114     3156.163     9542.139     2126.462        3.035        0.741      214.084       46.379        0.047      339.782       13.349      855.144
05/22/2013  15:00:00      -71.107       78.122      -10.702       57.726       71.227       34.608     3332.302     5073.254     1197.733        1.044        0.480      105.637       28.948        0.075      339.731       13.264      855.162
05/22/2013  15:01:00      162.912      110.456        7.200      113.505       97.400       60.552    12883.279     9486.745     3666.544        3.241        1.302      196.827       38.869        0.039      339.600       13.043      855.151
05/22/2013  15:02:00      245.075      137.422        7.404       86.745       72.369       62.359     7524.708     5237.287     3888.625        4.782        0.833      280.974       27.329        0.009      339.269       12.485      855.142
05/22/2013  15:03:00      123.847       82.698        8.401       67.650       41.127       43.521     4576.558     1691.453     1894.056        1.520        0.408      148.920       32.079        0.046      339.270       12.488      855.129
05/22/2013  15:04:00      341.641      206.440       68.121      185.048      121.037      112.123    34242.812    14649.931    12571.499       11.271        3.073      399.169       41.372        0.011      339.594       13.032      855.081
05/22/2013  15:05:00      247.186      118.120       31.490      142.951       99.384       67.954    20434.942     9877.232     4617.782        5.548        1.746      273.959       39.499        0.021      339.456       12.799      855.105
05/22/2013  15:06:00      192.427      168.738       95.927      134.062       79.665       80.580    17972.691     6346.543     6493.201        5.275        1.541      255.931       65.109        0.065      339.858       13.477      855.084
05/22/2013  15:07:00      247.454      188.624       31.745      185.143      100.389       80.929    34277.962    10077.886     6549.540        7.435        2.545      311.147       37.132        0.014      339.478       12.836      855.090
05/22/2013  15:08:00      151.061       83.134       18.138       95.865       81.196       58.407     9190.081     6592.860     3411.376        2.462        0.960      172.426       48.339        0.079      339.744       13.286      855.119
05/22/2013  15:09:00       -5.097      127.711      -17.528       57.222       84.659       34.993     3274.399     7167.171     1224.480        1.415        0.583      127.813       39.581        0.096      339.641       13.114      855.100
05/22/2013  15:10:00      118.095      136.368       17.240      143.632       83.554       62.789    20630.222     6981.197     3942.454        3.219        1.578      180.396       46.866        0.067      339.810       13.396      855.082
05/22/2013  15:11:00      299.205      218.313       47.225      111.687      100.524       89.783    12474.006    10104.995     8060.926        8.502        1.532      370.383       61.722        0.028      339.477       12.834      855.076
05/22/2013  15:12:00      189.210      121.166       49.937      133.911      133.302       87.174    17932.076    17769.541     7599.290        4.813        2.165      224.681       45.245        0.041      339.722       13.248      855.083
05/22/2013  15:13:00      255.959      203.961       63.298      153.822       95.365       96.607    23661.102     9094.412     9332.876        7.660        2.104      327.285      100.572        0.094      339.469       12.820      855.100
05/22/2013  15:14:00      155.110      180.333      160.417      136.898      123.397      105.971    18741.145    15226.939    11229.944        6.375        2.260      237.863       93.966        0.156      339.479       12.839      855.075
05/22/2013  15:15:00      119.463      108.697       41.407      119.382       80.563       76.132    14252.032     6490.459     5796.077        2.716        1.327      161.513       42.413        0.069      339.582       13.012      855.077
05/22/2013  15:16:00       26.658      259.943      -33.528       71.128      135.130       67.454     5059.237    18259.993     4550.074        4.863        1.393      261.306       84.524        0.105      339.589       13.023      855.124
05/22/2013  15:17:00       41.256       54.952        7.739       76.907       62.079       50.724     5914.683     3853.814     2572.915        0.856        0.617       68.715       39.046        0.323      339.943       13.624      855.087
05/22/2013  15:18:00      -56.681      129.265       -6.431       63.148       73.367       44.363     3987.670     5382.777     1968.075        1.565        0.567      141.146       32.007        0.051      339.777       13.342      855.071
05/22/2013  15:19:00      -15.027       36.743        7.045       84.952       71.729       53.887     7216.850     5145.023     2903.810        0.844        0.763       39.697       35.716        0.809      340.003       13.724      855.026
05/22/2013  15:20:00       30.531       11.028       22.936       37.367       72.222       33.023     1396.258     5216.085     1090.539        0.464        0.385       32.462        8.771        0.073      340.119       13.919      855.034
05/22/2013  15:21:00       75.762       61.109       25.537       86.119       52.028       51.119     7416.549     2706.956     2613.104        1.143        0.637       97.336       36.569        0.141      339.883       13.521      855.020
05/22/2013  15:22:00      211.211      100.256       25.402       95.337      101.473       55.668     9089.078    10296.744     3098.885        3.889        1.124      233.797       44.302        0.036      339.798       13.376      855.000
05/22/2013  15:23:00      155.660       97.472       17.207      106.251       64.495       52.708    11289.247     4159.621     2778.175        2.612        0.911      183.659       27.927        0.023      340.119       13.916      855.008
05/22/2013  15:24:00      167.796      148.879       41.840      133.673      108.860       82.158    17868.520    11850.539     6749.910        4.426        1.823      224.322       72.773        0.105      339.807       13.391      855.009
05/22/2013  15:25:00       78.433      208.991      -23.789       85.903      117.017       79.184     7379.270    13693.069     6270.116        3.886        1.367      223.224       75.167        0.113      339.471       12.825      855.045
05/22/2013  15:26:00       37.423      164.639      -17.391       58.169       97.855       59.062     3383.688     9575.625     3488.376        2.262        0.822      168.839       55.910        0.110      339.532       12.927      855.057
05/22/2013  15:27:00       32.194       70.336      -13.498       41.158       68.556       37.381     1693.986     4699.967     1397.356        0.698        0.390       77.354       28.977        0.140      339.557       12.972      855.050
05/22/2013  15:28:00      -65.569       79.658       -4.629       51.319       69.650       30.751     2633.661     4851.065      945.634        0.955        0.422      103.173       39.591        0.147      339.913       13.572      854.994
05/22/2013  15:29:00      -19.549       41.694       14.702       45.528       31.181       34.897     2072.775      972.227     1217.774        0.330        0.213       46.049       29.622        0.414      340.006       13.728      854.982
05/22/2013  15:30:00     -148.781       68.091      -28.197       79.294       54.348       34.735     6287.602     2953.753     1206.549        1.901        0.522      163.622       31.139        0.036      340.013       13.741      854.978
05/22/2013  15:31:00      -44.975      190.174      -17.202      236.910      143.274       65.114    56126.502    20527.433     4239.794        5.967        4.045      195.420       84.920        0.189      340.204       14.060      854.965
05/22/2013  15:32:00      226.515      169.519       33.949      172.522      114.365       82.961    29763.723    13079.295     6882.554        6.545        2.486      282.924       50.252        0.032      339.945       13.624      854.985
05/22/2013  15:33:00      222.355      129.090       36.522      127.868       91.971       81.010    16350.196     8458.663     6562.606        4.940        1.569      257.111       46.403        0.033      339.986       13.693      855.006
05/22/2013  15:34:00      101.268      219.086       28.482      123.258      145.849       89.005    15192.608    21271.880     7921.896        5.172        2.219      241.359       86.363        0.128      339.925       13.591      855.002
05/22/2013  15:35:00      -33.388      368.341      -51.665       81.601      105.353       51.542     6658.731    11099.203     2656.530        7.993        1.021      369.851       53.208        0.021      339.617       13.068      855.038
05/22/2013  15:36:00       71.895      206.563       -7.078      114.167      120.971       75.955    13034.025    14634.026     5769.109        4.066        1.672      218.717       61.026        0.078      339.869       13.495      855.052
05/22/2013  15:37:00      -63.988      294.999      -48.760       91.012      105.395       43.093     8283.163    11108.068     1856.998        5.737        1.062      301.859       47.257        0.025      339.351       12.622      855.085
05/22/2013  15:38:00     -101.411      137.107      -24.627       70.646       84.784       40.418     4990.809     7188.324     1633.595        2.175        0.691      170.536       45.969        0.073      339.487       12.852      855.069
05/22/2013  15:39:00      -55.295        2.197       -6.033       54.280       49.773       22.100     2946.351     2477.385      488.412        0.450        0.296       55.339       23.691        0.183      339.723       13.253      855.029
05/22/2013  15:40:00        3.919       41.943        5.321       37.650       34.140       31.171     1417.487     1165.541      971.646        0.268        0.178       42.126       11.060        0.069      339.646       13.122      854.988
05/22/2013  15:41:00      132.108       76.544       61.690      143.993       83.067       95.109    20734.099     6900.181     9045.676        3.189        1.834      152.681       49.983        0.107      339.742       13.282      854.993
05/22/2013  15:42:00      161.337       88.994       42.973      110.741       78.591       72.547    12263.470     6176.511     5263.108        2.974        1.185      184.254       65.087        0.125      339.516       12.900      854.993
05/22/2013  15:43:00      -47.487       58.423       58.305      104.145      104.356       99.297    10846.077    10890.202     9859.798        2.033        1.580       75.287       96.821        1.654      339.662       13.149      854.953
05/22/2013  15:44:00      182.334       94.960       42.534      117.229       88.792       82.182    13742.739     7883.997     6753.891        3.622        1.419      205.580       53.179        0.067      339.446       12.782      854.959
05/22/2013  15:45:00      148.841       86.282       36.347      167.693       99.754       59.987    28120.996     9950.907     3598.422        3.629        2.084      172.041       63.577        0.137      339.737       13.273      854.946
05/22/2013  15:46:00       78.909      199.509       -8.251       96.518      133.275       72.625     9315.639    17762.163     5274.394        3.922        1.618      214.547       71.246        0.110      339.706       13.221      854.968
05/22/2013  15:47:00       45.408      218.852      -35.163       84.081      108.112       49.869     7069.696    11688.141     2486.908        3.622        1.062      223.513       30.397        0.018      339.415       12.729      855.000
05/22/2013  15:48:00      132.706      125.695       22.423      113.860       71.021       53.481    12964.022     5043.964     2860.247        2.739        1.043      182.784       45.486        0.062      339.499       12.870      854.980
05/22/2013  15:49:00      190.973      104.806       30.988       82.730       65.960       55.628     6844.336     4350.720     3094.505        3.135        0.714      217.842       29.772        0.019      339.652       13.128      854.980
05/22/2013  15:50:00       -0.045      210.892      -20.490       70.211      159.322       58.305     4929.570    25383.448     3399.526        3.930        1.686      210.892       84.822        0.162      339.570       12.991      854.990
05/22/2013  15:51:00     -109.877      333.615      -50.926      132.078       92.475       46.904    17444.645     8551.672     2199.943        7.707        1.410      351.244       52.157        0.022      339.336       12.594      854.978
05/22/2013  15:52:00     -168.394      292.776      -49.951      101.048      119.398       61.656    10210.793    14255.964     3801.440        7.241        1.413      337.749       61.766        0.033      339.346       12.614      854.975
05/22/2013  15:53:00     -104.977       84.311       -5.450      110.439       85.288       52.279    12196.763     7273.991     2733.058        2.018        1.110      134.642       59.966        0.198      339.767       13.323      854.912
05/22/2013  15:54:00     -176.751       12.810      -12.862       85.559      125.636       50.541     7320.330    15784.393     2554.368        2.861        1.283      177.215       32.158        0.033      339.639       13.107      854.898
05/22/2013  15:55:00     -245.707      175.850      -61.287       98.547      107.560       42.856     9711.439    11569.087     1836.638        5.908        1.156      302.151       43.920        0.021      339.346       12.613      854.933
05/22/2013  15:56:00     -146.597      102.771      -28.215       70.553      143.418       58.740     4977.665    20568.695     3450.381        3.092        1.450      179.032       55.016        0.094      339.776       13.338      854.903
05/22/2013  15:57:00     -207.814      -41.663      -24.892       85.855      129.169       53.916     7371.012    16684.502     2906.935        3.625        1.348      211.949       64.676        0.093      339.467       12.819      854.898
05/22/2013  15:58:00     -267.632     -150.652      -21.011       93.250       93.820       53.070     8695.473     8802.170     2816.444        5.754        1.016      307.121       56.068        0.033      339.359       12.636      854.832
05/22/2013  15:59:00     -163.506      -56.487      -11.710      100.185       34.020       31.641    10037.116     1157.339     1001.155        2.113        0.610      172.988       32.410        0.035      339.329       12.585      854.804
05/22/2013  16:00:00     -104.584      -27.977        8.721       83.979       53.744       34.007     7052.422     2888.437     1156.443        1.144        0.555      108.261       39.527        0.133      339.812       13.401      854.791
05/22/2013  16:01:00       19.218       28.420       25.309       47.220       38.727       24.590     2229.756     1499.811      604.657        0.307        0.217       34.308       18.405        0.288      340.093       13.874      854.800
05/22/2013  16:02:00       93.328       77.025       30.517       69.180       45.202       50.085     4785.836     2043.200     2508.499        1.245        0.467      121.008       28.316        0.055      339.726       13.256      854.803
05/22/2013  16:03:00      175.440      120.264       21.807      120.488       79.547       49.873    14517.282     6327.698     2487.295        3.452        1.167      212.703       39.769        0.035      339.697       13.205      854.793
05/22/2013  16:04:00       58.100      120.439       -1.392       82.179      103.462       58.422     6753.326    10704.390     3413.097        1.937        1.044      133.720       64.430        0.232      339.900       13.547      854.784
05/22/2013  16:05:00      254.434      196.810       34.417      112.310       85.119       76.689    12613.474     7245.235     5881.221        6.519        1.287      321.668       44.257        0.019      339.690       13.193      854.794
05/22/2013  16:06:00      145.213       75.789       19.458      101.635       63.990       51.319    10329.644     4094.725     2633.676        2.213        0.853      163.801       26.593        0.026      339.700       13.212      854.781
05/22/2013  16:07:00       80.284       61.981       53.606       60.715       52.560       64.465     3686.283     2762.583     4155.734        1.188        0.530      101.426       38.082        0.141      339.883       13.522      854.749
05/22/2013  16:08:00      148.470      113.807       25.644       80.648       72.637       79.015     6504.020     5276.075     6243.325        2.683        0.901      187.071       34.715        0.034      339.618       13.073      854.748
05/22/2013  16:09:00       16.569      200.588        1.096      140.269      180.921       76.073    19675.400    32732.362     5787.133        4.934        2.910      201.271       96.451        0.230      339.775       13.336      854.772
05/22/2013  16:10:00      -60.634      479.122      -51.781       94.403      160.296       64.391     8911.886    25694.823     4146.153       13.733        1.938      482.943       69.413        0.021      339.660       13.142      854.790
05/22/2013  16:11:00       -6.755      288.984      -40.920      116.613      133.691       58.226    13598.529    17873.349     3390.241        6.004        1.743      289.063       62.039        0.046      339.766       13.320      854.821
05/22/2013  16:12:00      -79.883      344.375      -38.989       75.194      114.794       54.598     5654.191    13177.722     2980.895        7.415        1.091      353.519       53.138        0.023      339.561       12.975      854.833
05/22/2013  16:13:00      -96.100      223.936      -21.269       85.074       89.092       52.835     7237.594     7937.366     2791.561        3.890        0.898      243.685       44.355        0.033      339.691       13.194      854.833
05/22/2013  16:14:00      -26.338      118.500       -9.379       80.711       87.618       61.235     6514.210     7676.968     3749.764        1.638        0.897      121.392       44.437        0.134      339.667       13.157      854.817
05/22/2013  16:15:00       65.734      219.178      -15.734      152.783      127.352       80.020    23342.787    16218.633     6403.214        4.928        2.298      228.823       81.404        0.127      339.607       13.053      854.799
05/22/2013  16:16:00      -20.138      235.517      -20.230       61.762      125.073       57.373     3814.513    15643.342     3291.681        3.951        1.137      236.377       70.152        0.088      339.554       12.963      854.832
05/22/2013  16:17:00        8.814      430.919      -61.203      103.837      128.320       71.391    10782.054    16465.910     5096.731       11.092        1.617      431.009       51.218        0.014      339.592       13.028      854.833
05/22/2013  16:18:00       73.655      385.407      -45.202      106.078      168.454       82.332    11252.630    28376.744     6778.507       10.120        2.320      392.382       96.510        0.060      339.494       12.861      854.862
05/22/2013  16:19:00       81.879      219.522      -19.174       96.830      117.235       75.104     9375.953    13744.117     5640.672        4.201        1.438      234.295       73.101        0.097      339.540       12.941      854.843
05/22/2013  16:20:00      189.997      166.730       27.481       99.581       79.939       72.140     9916.402     6390.279     5204.159        4.308        1.076      252.780       53.091        0.044      339.483       12.843      854.806
05/22/2013  16:21:00      207.800      129.303       16.758       95.359       77.102       61.521     9093.371     5944.761     3784.863        3.950        0.941      244.745       42.102        0.030      339.584       13.014      854.796
05/22/2013  16:22:00      208.173      130.407       27.386       82.014       74.493       56.476     6726.323     5549.274     3189.509        3.828        0.773      245.646       25.402        0.011      339.592       13.026      854.780
05/22/2013  16:23:00       98.630      159.649       -5.192       91.687       58.346       48.714     8406.571     3404.271     2373.048        2.471        0.709      187.658       39.208        0.044      339.797       13.374      854.767
05/22/2013  16:24:00      118.324      130.713       20.497      100.000       89.573       60.856     9999.904     8023.378     3703.513        2.661        1.086      176.313       60.680        0.118      339.955       13.640      854.746
05/22/2013  16:25:00      112.588      107.474       22.641       92.890       60.720       49.741     8628.503     3686.906     2474.179        1.976        0.739      155.650       34.977        0.050      339.742       13.282      854.711
05/22/2013  16:26:00      151.358      132.003       31.630       75.516       58.528       61.241     5702.707     3425.536     3750.419        2.710        0.644      200.834       42.178        0.044      339.857       13.476      854.687
05/22/2013  16:27:00      163.429      163.970       14.752      205.452      118.993       87.695    42210.627    14159.323     7690.379        5.892        3.203      231.506       64.779        0.078      340.089       13.866      854.659
05/22/2013  16:28:00      -24.792      113.751       -5.819       90.714       89.221       55.284     8229.046     7960.347     3056.353        1.641        0.962      116.421       54.663        0.220      340.494       14.553      854.708
05/22/2013  16:29:00       88.158      182.692      -18.793       97.465      104.236       60.841     9499.386    10865.053     3701.645        3.278        1.203      202.850       61.363        0.092      340.060       13.818      854.726
05/22/2013  16:30:00       59.373       93.103       -1.654       54.423       77.281       52.250     2961.907     5972.411     2730.052        1.193        0.583      110.424       43.654        0.156      339.703       13.218      854.709
05/22/2013  16:31:00       62.401      124.427        3.066       71.977       69.614       47.782     5180.750     4846.141     2283.145        1.585        0.616      139.198       35.220        0.064      339.555       12.968      854.692
05/22/2013  16:32:00      -57.490      121.607      -25.776       71.372       78.487       31.229     5093.976     6160.177      975.240        1.549        0.611      134.512       32.466        0.058      339.679       13.177      854.696
05/22/2013  16:33:00       42.872       57.962       17.784       59.116       38.582       31.542     3494.644     1488.573      994.870        0.574        0.299       72.094       22.388        0.096      339.947       13.629      854.699
05/22/2013  16:34:00       71.667       67.186        5.664       85.051       49.079       43.495     7233.729     2408.768     1891.777        1.061        0.577       98.236       26.594        0.073      340.020       13.753      854.683
05/22/2013  16:35:00      120.441      145.981       16.316      141.165       78.602       64.639    19927.618     6178.332     4178.156        3.318        1.514      189.252       54.280        0.082      340.062       13.821      854.666
05/22/2013  16:36:00      165.513       86.806       17.447       79.408       60.725       56.084     6305.699     3687.488     3145.367        2.418        0.657      186.895       20.440        0.012      339.985       13.692      854.675
05/22/2013  16:37:00       24.672      117.017      -11.404       59.447       83.522       47.184     3533.931     6975.871     2226.321        1.358        0.637      119.589       50.239        0.176      339.840       13.449      854.684
05/22/2013  16:38:00       62.076      171.018        8.642       79.257       94.505       57.558     6281.689     8931.184     3312.933        2.585        0.926      181.936       60.518        0.111      339.799       13.377      854.676
05/22/2013  16:39:00       36.936      207.346      -19.695       70.884      104.756       58.826     5024.594    10973.880     3460.459        3.210        0.973      210.610       61.389        0.085      339.911       13.566      854.663
05/22/2013  16:40:00       59.725      187.819       -5.951       76.477      104.190       68.404     5848.719    10855.552     4679.135        3.013        1.069      197.087       65.566        0.111      340.027       13.761      854.675
05/22/2013  16:41:00       51.831      206.733      -10.139       97.449      121.214       67.389     9496.242    14692.780     4541.344        3.712        1.437      213.132       73.423        0.119      339.811       13.397      854.680
05/22/2013  16:42:00      168.233      108.606       21.912      165.023      100.583       65.074    27232.720    10116.965     4234.587        4.107        2.079      200.244       37.019        0.034      339.788       13.359      854.676
05/22/2013  16:43:00       76.009      144.402       33.160      134.399      136.469       92.152    18063.082    18623.656     8491.909        3.644        2.259      163.185       80.766        0.245      339.713       13.232      854.702
05/22/2013  16:44:00       89.782      150.704       17.053       91.307      103.634       71.277     8337.038    10739.985     5080.421        2.761        1.208      175.421       68.298        0.152      339.648       13.123      854.706
05/22/2013  16:45:00      102.261      241.193      -30.346      114.333      155.062       96.538    13072.083    24044.225     9319.595        5.798        2.322      261.976       88.465        0.114      339.486       12.850      854.704
05/22/2013  16:46:00       29.806      294.966      -29.793      129.390      195.303       69.417    16741.649    38143.193     4818.654        7.423        2.985      296.468       83.746        0.080      339.491       12.858      854.724
05/22/2013  16:47:00      -70.773      437.596      -55.517       60.937       99.368       32.900     3713.311     9874.055     1082.386       10.712        0.733      443.282       31.663        0.005      339.352       12.623      854.739
05/22/2013  16:48:00      -68.634      344.504      -41.882      119.718      127.431       64.498    14332.426    16238.547     4160.034        7.993        1.737      351.275       70.291        0.040      339.502       12.876      854.736
05/22/2013  16:49:00      -30.098      192.234      -15.023       62.647      105.889       44.198     3924.607    11212.507     1953.448        2.758        0.855      194.575       51.854        0.071      339.533       12.930      854.722
05/22/2013  16:50:00      -83.132      122.464       -9.137       71.385       76.391       42.520     5095.772     5835.641     1807.923        1.736        0.637      148.015       39.465        0.071      339.665       13.153      854.698
05/22/2013  16:51:00       17.574      271.400      -10.922      117.524      129.723       79.534    13811.980    16828.003     6325.617        5.552        1.848      271.969       77.737        0.082      339.581       13.010      854.731
05/22/2013  16:52:00       78.818      222.369       -0.042      124.447      137.906       90.064    15487.179    19018.014     8111.486        4.913        2.131      235.924       87.498        0.138      339.495       12.864      854.733
05/22/2013  16:53:00      239.469      230.926       25.145      160.963      131.287       90.218    25908.933    17236.338     8139.218        8.128        2.564      332.674       84.845        0.065      339.566       12.985      854.741
05/22/2013  16:54:00      132.739      188.380      -17.187       81.138      135.341       70.790     6583.346    18317.204     5011.213        4.165        1.496      230.449       76.568        0.110      339.411       12.723      854.755
05/22/2013  16:55:00      130.822       85.896       14.979       67.403       45.949       36.696     4543.205     2111.315     1346.612        1.636        0.400      156.501       21.351        0.019      339.471       12.824      854.723
05/22/2013  16:56:00      167.397      126.405       18.330      126.694       86.085       63.354    16051.417     7410.656     4013.675        3.590        1.374      209.761       30.942        0.022      339.500       12.874      854.731
05/22/2013  16:57:00       86.495      102.566        2.711       69.719       79.376       57.416     4860.701     6300.507     3296.606        1.623        0.723      134.169       48.245        0.129      339.640       13.110      854.727
05/22/2013  16:58:00      226.133      151.878       19.849      107.712       57.505       57.779    11601.894     3306.818     3338.372        4.642        0.912      272.402       43.460        0.025      339.643       13.114      854.706
05/22/2013  16:59:00       96.228       92.385       54.928      113.300       80.910       73.559    12836.782     6546.390     5410.981        2.280        1.240      133.397       67.570        0.257      339.898       13.546      854.686
05/22/2013  17:00:00      164.633      111.296       75.676      159.449       98.982       80.571    25424.130     9797.420     6491.699        4.346        2.086      198.723       90.876        0.209      339.906       13.558      854.692
05/22/2013  17:01:00      117.371      174.586        3.760      121.370      101.045       63.781    14730.600    10210.012     4067.998        3.663        1.450      210.371       56.133        0.071      339.779       13.343      854.706
05/22/2013  17:02:00      135.862      200.295      -16.899      127.899      104.983       74.411    16358.080    11021.432     5536.982        4.588        1.646      242.026       63.873        0.070      339.817       13.407      854.704
05/22/2013  17:03:00      280.913      193.067       45.465      130.166       97.366       86.837    16943.190     9480.067     7540.657        7.610        1.698      340.862       51.890        0.023      339.484       12.845      854.704
05/22/2013  17:04:00      165.607      137.721       30.755      128.401       86.101       79.547    16486.940     7413.407     6327.676        3.878        1.511      215.389       51.498        0.057      339.649       13.124      854.707
05/22/2013  17:05:00       48.144      237.882      -23.964       84.366      144.799       70.086     7117.695    20966.727     4912.018        4.623        1.650      242.705       82.137        0.115      339.676       13.171      854.748
05/22/2013  17:06:00      232.809      199.037       16.751      134.542       97.276       69.052    18101.612     9462.555     4768.131        6.321        1.617      306.294       53.922        0.031      339.552       12.959      854.742
05/22/2013  17:07:00      212.932      115.399       17.823      100.071       71.716       57.148    10014.164     5143.230     3265.863        3.870        0.921      242.191       36.357        0.023      339.418       12.733      854.709
05/22/2013  17:08:00      282.498      218.026      115.351      210.043      121.751      102.546    44118.179    14823.342    10515.752       10.504        3.473      356.848       97.829        0.075      339.499       12.871      854.656
05/22/2013  17:09:00      217.635      189.977       15.804      164.690      135.989       96.497    27122.794    18493.088     9311.735        6.931        2.746      288.888       67.157        0.054      339.438       12.769      854.686
05/22/2013  17:10:00      235.877      123.845       41.615      127.768       78.404       70.762    16324.710     6147.183     5007.296        5.009        1.374      266.412       58.687        0.049      339.543       12.945      854.707
05/22/2013  17:11:00       78.589       87.470        7.970       88.616       69.203       46.945     7852.795     4789.019     2203.820        1.437        0.742      117.589       40.316        0.118      339.529       12.924      854.711
05/22/2013  17:12:00      165.997      108.804       33.553       86.167       66.403       52.659     7424.738     4409.295     2773.009        2.756        0.730      198.477       30.084        0.023      339.419       12.737      854.691
05/22/2013  17:13:00      167.467      111.546       18.547       91.142       77.634       60.655     8306.918     6027.072     3679.059        2.942        0.901      201.215       48.746        0.059      339.450       12.789      854.685
05/22/2013  17:14:00      151.730       99.548        2.551       56.741       44.004       36.947     3219.487     1936.383     1365.049        1.973        0.326      181.471       19.619        0.012      339.539       12.940      854.689
05/22/2013  17:15:00       67.578      115.357       -3.091       79.915       88.187       43.250     6386.431     7776.861     1870.586        1.696        0.802      133.694       46.184        0.119      339.586       13.021      854.699
05/22/2013  17:16:00       -8.388      254.911      -31.524       53.749       90.909       36.812     2888.983     8264.391     1355.110        3.927        0.625      255.049       43.938        0.030      339.574       12.996      854.700
05/22/2013  17:17:00       43.341      153.113       -0.420       71.547      111.092       66.915     5119.021    12341.497     4477.631        2.363        1.097      159.129       70.779        0.198      339.616       13.070      854.696
05/22/2013  17:18:00      -94.228      182.548      -23.117       62.828       92.069       36.383     3947.311     8476.734     1323.759        2.824        0.687      205.433       41.880        0.042      339.715       13.236      854.698
05/22/2013  17:19:00     -113.761      222.531      -31.664       99.985       92.223       52.080     9996.999     8505.010     2712.341        4.233        1.061      249.923       50.506        0.041      339.823       13.417      854.701
05/22/2013  17:20:00      -77.841      353.010      -40.790       74.925      131.921       43.640     5613.822    17403.191     1904.482        7.862        1.246      361.490       40.236        0.012      339.668       13.156      854.713
05/22/2013  17:21:00     -209.315      306.629      -58.279       65.582      104.656       53.277     4300.954    10952.802     2838.453        7.966        0.905      371.260       48.167        0.017      339.521       12.908      854.723
05/22/2013  17:22:00     -157.743      143.565      -33.003       83.905       96.795       55.162     7040.036     9369.194     3042.858        3.301        0.973      213.292       61.392        0.083      339.754       13.299      854.721
05/22/2013  17:23:00     -121.079      155.779      -29.688       57.319       80.989       43.914     3285.466     6559.190     1928.420        2.579        0.589      197.300       45.825        0.054      339.595       13.034      854.739
05/22/2013  17:24:00      -33.376       10.582      -10.304       60.894       54.915       49.491     3708.078     3015.617     2449.360        0.525        0.459       35.013       42.914        1.502      339.535       12.935      854.706
05/22/2013  17:25:00      -68.553       51.025       -1.816       72.844       88.962       35.537     5306.314     7914.236     1262.878        1.089        0.724       85.458       24.084        0.079      340.004       13.726      854.701
05/22/2013  17:26:00      -73.424       12.881       32.686       86.727       42.699       42.267     7521.592     1823.215     1786.498        0.888        0.557       74.545       46.194        0.384      340.192       14.043      854.698
05/22/2013  17:27:00      -16.366       57.396       25.390       50.859       43.106       35.113     2586.631     1858.089     1232.909        0.494        0.284       59.684       35.437        0.353      340.078       13.849      854.698
05/22/2013  17:28:00      -55.344       71.080       -4.741       69.203       65.253       36.980     4789.073     4257.956     1367.525        0.927        0.521       90.085       25.180        0.078      340.100       13.887      854.704
05/22/2013  17:29:00      -78.252       76.924      -16.874       71.039       65.203       39.504     5046.488     4251.491     1560.531        1.159        0.543      109.730       33.626        0.094      340.016       13.744      854.723
05/22/2013  17:30:00     -144.244      146.682      -34.668       55.311       58.334       33.669     3059.346     3402.891     1133.598        2.556        0.380      205.723       34.667        0.028      339.856       13.473      854.733
05/22/2013  17:31:00      -19.279       99.471       -2.003       48.225       40.402       32.995     2325.674     1632.289     1088.673        0.766        0.252      101.322       22.634        0.050      339.960       13.652      854.727
05/22/2013  17:32:00      -21.885      107.302       -4.873       62.993       66.807       43.601     3968.110     4463.122     1901.050        1.117        0.517      109.511       32.962        0.091      339.910       13.566      854.717
05/22/2013  17:33:00      -23.945      206.836      -27.039       31.285       63.715       21.473      978.744     4059.627      461.092        2.479        0.275      208.218       20.939        0.010      339.738       13.275      854.713
05/22/2013  17:34:00      -31.467      170.975      -25.111       85.849      139.703       40.941     7369.981    19516.798     1676.147        2.970        1.428      173.847       37.300        0.046      339.678       13.173      854.693
05/22/2013  17:35:00      -56.007       60.666      -36.447       47.105       96.003       32.862     2218.859     9216.668     1079.894        1.033        0.626       82.566       30.445        0.136      339.717       13.243      854.680
05/22/2013  17:36:00     -179.135      168.969      -45.618       52.968       82.816       38.047     2805.622     6858.444     1447.543        3.691        0.556      246.252       36.861        0.022      339.747       13.289      854.718
05/22/2013  17:37:00     -177.203      117.234      -13.174      102.581       66.723       43.888    10522.813     4451.946     1926.141        3.111        0.845      212.473       43.154        0.041      339.788       13.361      854.707
05/22/2013  17:38:00      -94.876       90.086      -27.252       71.079       71.579       37.537     5052.251     5123.577     1409.015        1.472        0.579      130.831       43.932        0.113      339.739       13.277      854.699
05/22/2013  17:39:00      -24.797       63.530       -1.853       55.130       68.931       36.711     3039.313     4751.473     1347.719        0.689        0.457       68.198       26.824        0.155      339.986       13.696      854.701
05/22/2013  17:40:00      -57.210      185.628       -6.436       59.249       80.685       43.490     3510.391     6510.040     1891.412        2.484        0.596      194.244       47.901        0.061      339.774       13.336      854.710
05/22/2013  17:41:00      -81.822      190.920      -15.953       68.013       91.677       37.904     4625.756     8404.635     1436.703        2.893        0.723      207.714       28.955        0.019      339.831       13.432      854.732
05/22/2013  17:42:00      -25.406      137.774       -5.957       68.550       96.026       50.912     4699.076     9221.041     2591.987        1.808        0.826      140.097       31.488        0.051      339.912       13.569      854.727
05/22/2013  17:43:00      -51.305       96.463      -26.063       39.199       58.824       30.543     1536.578     3460.244      932.883        0.927        0.296      109.258       29.151        0.071      339.865       13.492      854.710
05/22/2013  17:44:00       -4.379      159.659      -15.434       37.519       75.067       35.198     1407.648     5635.003     1238.905        1.701        0.414      159.719       39.868        0.062      339.971       13.670      854.709
05/22/2013  17:45:00      -83.065      353.217      -38.405       65.946       87.489       36.670     4348.862     7654.245     1344.708        7.324        0.667      362.853       34.766        0.009      339.665       13.150      854.727
05/22/2013  17:46:00      -93.962      354.722      -44.944       76.554      141.452       52.215     5860.503    20008.710     2726.379        8.263        1.430      366.956       66.492        0.033      339.552       12.961      854.712
05/22/2013  17:47:00     -150.801      182.793      -39.542       64.386       70.591       40.418     4145.596     4983.158     1633.627        3.424        0.538      236.969       37.508        0.025      339.848       13.460      854.695
05/22/2013  17:48:00     -131.409      346.762      -40.486       84.010      105.038       57.499     7057.664    11032.947     3306.155        8.027        1.070      370.827       47.405        0.016      339.636       13.101      854.690
05/22/2013  17:49:00     -105.501      229.658      -27.124       45.380      103.172       37.144     2059.320    10644.481     1379.666        3.934        0.704      252.731       38.774        0.024      339.598       13.038      854.689
05/22/2013  17:50:00     -152.862       96.651      -27.713       66.168       59.463       44.098     4378.153     3535.851     1944.621        2.167        0.493      180.854       38.622        0.046      339.858       13.478      854.655
05/22/2013  17:51:00       16.378      128.038        2.946       55.155       91.875       50.979     3042.061     8440.986     2598.816        1.537        0.704      129.081       57.870        0.201      339.921       13.585      854.633
05/22/2013  17:52:00       21.731      100.639        8.671       68.398       66.835       41.728     4678.247     4466.889     1741.187        1.078        0.544      102.959       42.741        0.172      339.716       13.239      854.625
05/22/2013  17:53:00      -49.576      142.957        0.542       80.930      118.095       49.832     6549.613    13946.523     2483.183        2.293        1.149      151.309       62.095        0.168      339.774       13.336      854.631
05/22/2013  17:54:00      -50.952      253.974      -28.153       72.707       85.170       42.506     5286.311     7253.975     1806.744        4.112        0.717      259.035       32.262        0.016      339.724       13.251      854.643
05/22/2013  17:55:00       -6.647      149.351       -6.223       77.905      126.890       60.124     6069.186    16101.041     3614.938        2.408        1.289      149.499       66.523        0.198      339.908       13.563      854.635
05/22/2013  17:56:00      -75.436      215.642      -26.546       51.236      109.666       47.069     2625.172    12026.567     2215.534        3.488        0.843      228.456       46.993        0.042      339.765       13.322      854.636
05/22/2013  17:57:00       30.415      212.061       -3.658       88.795      129.430       74.132     7884.476    16752.163     5495.615        3.801        1.507      214.231       76.772        0.128      339.773       13.335      854.641
05/22/2013  17:58:00       43.011      353.721      -51.258       76.963       72.144       53.515     5923.349     5204.709     2863.836        7.179        0.700      356.326       39.108        0.012      339.666       13.153      854.653
05/22/2013  17:59:00        4.422      191.563      -32.980       75.803       91.344       47.563     5746.160     8343.656     2262.202        2.707        0.818      191.614       52.332        0.075      339.869       13.497      854.662
05/22/2013  18:00:00      -58.417      297.384      -33.944       60.075       76.437       40.702     3608.987     5842.639     1656.693        5.205        0.555      303.067       38.886        0.016      339.765       13.319      854.678
05/22/2013  18:01:00      -53.038      194.382      -27.448       46.601       46.644       27.194     2171.614     2175.669      739.488        2.322        0.254      201.488       18.611        0.009      339.691       13.195      854.668
05/22/2013  18:02:00      -59.876      148.044      -16.989       37.137       52.136       24.553     1379.150     2718.122      602.828        1.524        0.235      159.694       18.770        0.014      339.732       13.266      854.653
05/22/2013  18:03:00     -106.306      124.233      -25.626       75.167       79.699       41.382     5650.026     6351.873     1712.494        2.055        0.686      163.508       35.757        0.048      339.903       13.553      854.662
05/22/2013  18:04:00      -28.528      103.298      -16.429       46.328       54.159       30.322     2146.285     2933.166      919.398        0.888        0.300      107.165       26.672        0.062      339.755       13.304      854.649
05/22/2013  18:05:00     -126.761        2.746      -21.875       45.778       46.183       30.156     2095.669     2132.907      909.394        1.085        0.257      126.791       20.574        0.026      339.840       13.449      854.621
05/22/2013  18:06:00     -151.929       21.168       -5.671      129.006      131.019       54.655    16642.530    17166.096     2987.130        3.017        1.840      153.397       53.247        0.120      339.928       13.595      854.579
05/22/2013  18:07:00       13.389      253.215      -31.197       57.863      143.279       45.809     3348.084    20528.921     2098.419        4.562        1.299      253.568       59.331        0.055      339.772       13.331      854.594
05/22/2013  18:08:00       70.669       67.079       26.561      106.522       63.804       58.707    11346.848     4070.888     3446.481        1.453        0.943       97.435       52.403        0.289      339.903       13.555      854.593
05/22/2013  18:09:00        4.889      200.161      -19.038       69.605      136.310       49.379     4844.883    18580.510     2438.254        3.315        1.293      200.220       62.371        0.097      339.831       13.431      854.602
05/22/2013  18:10:00      -35.604      295.773      -27.038       68.934       93.074       52.081     4751.835     8662.731     2712.434        5.280        0.806      297.908       53.032        0.032      339.712       13.230      854.606
05/22/2013  18:11:00      -24.353      245.029      -32.004       79.259      109.829       52.604     6281.964    12062.374     2767.169        4.138        1.056      246.236       59.930        0.059      339.683       13.180      854.614
05/22/2013  18:12:00        7.174      279.373      -38.949       71.301      112.793       59.570     5083.822    12722.302     3548.634        5.048        1.068      279.465       60.009        0.046      339.609       13.057      854.620
05/22/2013  18:13:00       -1.184      202.327      -32.442       59.670       91.274       40.590     3560.451     8330.877     1647.521        2.776        0.677      202.330       47.292        0.055      339.671       13.161      854.630
05/22/2013  18:14:00        4.707      103.770       -3.112       61.333       66.972       35.278     3761.739     4485.197     1244.560        1.014        0.475      103.877       33.761        0.106      339.724       13.252      854.625
05/22/2013  18:15:00      -27.605      271.102      -45.001       76.476      143.538       40.594     5848.582    20603.300     1647.894        5.219        1.405      272.503       54.867        0.041      339.605       13.050      854.638
05/22/2013  18:16:00       -9.582      213.681      -31.680       50.606       68.395       26.496     2560.998     4677.842      702.054        2.735        0.397      213.895       25.580        0.014      339.551       12.959      854.641
05/22/2013  18:17:00        3.421      264.330      -36.628       85.698      108.529       48.538     7344.149    11778.575     2355.917        4.635        1.074      264.352       55.436        0.044      339.626       13.085      854.647
05/22/2013  18:18:00     -117.992      185.945      -31.020       67.499      100.184       41.743     4556.061    10036.837     1742.479        3.289        0.817      220.222       48.980        0.049      339.684       13.182      854.655
05/22/2013  18:19:00      -15.980      121.406       -8.900       93.153       68.230       42.726     8677.439     4655.365     1825.473        1.511        0.758      122.453       42.210        0.119      339.669       13.160      854.670
05/22/2013  18:20:00       32.444       38.734       16.285       68.612       34.036       33.003     4707.673     1158.459     1089.213        0.489        0.348       50.526       19.486        0.149      339.752       13.300      854.653
05/22/2013  18:21:00      -78.328       58.765      -15.580       93.870       62.648       34.111     8811.531     3924.764     1163.589        1.186        0.695       97.921       28.998        0.088      340.071       13.839      854.654
05/22/2013  18:22:00     -104.047      252.734      -38.598       73.758      145.716       46.456     5440.253    21233.250     2158.126        5.250        1.442      273.314       56.742        0.043      339.666       13.153      854.666
05/22/2013  18:23:00       16.635      350.685      -64.549       53.333       61.179       27.534     2844.407     3742.822      758.141        6.738        0.367      351.079       17.216        0.002      339.529       12.923      854.665
05/22/2013  18:24:00        3.461      253.864      -42.208       88.016       89.794       37.338     7746.843     8062.913     1394.101        4.172        0.860      253.888       33.519        0.017      339.707       13.220      854.654
05/22/2013  18:25:00      -21.701      412.882      -62.834       83.977      115.069       42.597     7052.087    13240.894     1814.469        9.849        1.105      413.452       53.431        0.017      339.499       12.871      854.676
05/22/2013  18:26:00     -105.588      308.356      -40.463       71.044       80.660       47.414     5047.213     6505.964     2248.063        6.083        0.690      325.933       41.739        0.016      339.549       12.954      854.693
05/22/2013  18:27:00     -129.429      233.468      -48.116       70.705       79.993       40.616     4999.241     6398.956     1649.687        4.331        0.652      266.944       36.962        0.019      339.594       13.030      854.687
05/22/2013  18:28:00      -72.050      191.845      -24.061       47.035       99.401       41.734     2212.250     9880.497     1741.757        2.820        0.692      204.928       48.059        0.055      339.600       13.042      854.676
05/22/2013  18:29:00      -89.987      114.431      -17.895       76.312       83.753       39.890     5823.451     7014.637     1591.190        1.797        0.721      145.576       44.697        0.094      339.629       13.093      854.661
05/22/2013  18:30:00       75.353      199.349      -22.897       77.835      121.832       62.525     6058.338    14843.115     3909.331        3.537        1.241      213.115       67.363        0.100      339.476       12.832      854.657
05/22/2013  18:31:00       50.411      176.452      -15.762       69.875      121.707       58.341     4882.509    14812.583     3403.705        2.851        1.155      183.512       74.053        0.163      339.500       12.873      854.647
05/22/2013  18:32:00       38.428      211.987      -27.199       66.199       73.897       46.797     4382.314     5460.809     2189.967        2.959        0.602      215.442       45.457        0.045      339.559       12.973      854.634
05/22/2013  18:33:00       19.331      281.929      -50.454       62.126       82.240       35.524     3859.582     6763.437     1261.921        4.714        0.594      282.591       28.601        0.010      339.595       13.034      854.639
05/22/2013  18:34:00       63.974      101.078       -6.752       81.287       74.164       61.097     6607.556     5500.349     3732.876        1.509        0.792      119.622       43.711        0.134      339.683       13.185      854.639
05/22/2013  18:35:00       83.030      180.834       -8.127       83.572      123.069       79.994     6984.218    15146.016     6399.028        3.409        1.426      198.985       77.769        0.153      339.614       13.068      854.643
05/22/2013  18:36:00       53.082      278.632      -42.124       54.699      123.036       49.445     2991.988    15137.744     2444.845        5.140        1.029      283.643       63.213        0.050      339.585       13.018      854.636
05/22/2013  18:37:00       95.780      230.050      -20.294       95.030      124.448       69.648     9030.705    15487.284     4850.853        4.593        1.468      249.192       66.004        0.070      339.574       12.998      854.626
05/22/2013  18:38:00       44.098      163.041      -21.576       86.947       93.207       52.794     7559.812     8687.572     2787.256        2.401        0.952      168.899       50.304        0.089      339.614       13.067      854.625
05/22/2013  18:39:00       32.727      168.687      -20.545       63.812       80.081       52.002     4071.948     6412.887     2704.163        2.157        0.659      171.832       45.142        0.069      339.681       13.179      854.618
05/22/2013  18:40:00       82.064      240.803      -31.005       69.865      153.443       73.406     4881.102    23544.612     5388.482        4.974        1.691      254.403       80.762        0.101      339.647       13.121      854.599
05/22/2013  18:41:00        1.841      179.958        2.619       63.060      144.187       57.148     3976.585    20790.015     3265.846        3.021        1.402      179.968       79.896        0.197      339.727       13.255      854.627
05/22/2013  18:42:00       21.164      177.296      -22.392       85.592       90.350       50.089     7326.055     8163.089     2508.878        2.519        0.900      178.555       45.601        0.065      339.686       13.188      854.624
05/22/2013  18:43:00     -118.132      228.084      -17.637       88.645      122.726       63.136     7857.921    15061.729     3986.139        4.659        1.345      256.861       68.125        0.070      339.678       13.173      854.634
05/22/2013  18:44:00      -29.426      179.148      -16.793       74.742      111.582       50.752     5586.423    12450.478     2575.756        2.692        1.031      181.549       57.468        0.100      339.744       13.282      854.629
05/22/2013  18:45:00        4.542      219.734       -1.778      107.449      122.805       80.413    11545.285    15081.189     6466.243        4.069        1.655      219.781       82.628        0.141      339.673       13.165      854.633
05/22/2013  18:46:00        2.001      161.584       -3.409       70.812      113.868       50.565     5014.341    12965.858     2556.829        2.333        1.027      161.596       54.946        0.116      339.744       13.285      854.636
05/22/2013  18:47:00      -57.920      374.945      -47.895       66.701       99.310       39.626     4449.013     9862.525     1570.232        8.105        0.794      379.392       39.916        0.011      339.703       13.214      854.638
05/22/2013  18:48:00      -43.370      226.952      -29.812       54.398      101.026       38.192     2959.145    10206.210     1458.595        3.445        0.731      231.059       45.024        0.038      339.699       13.207      854.624
05/22/2013  18:49:00      -64.268      222.783       -5.364       81.400      103.207       66.447     6626.001    10651.750     4415.209        3.774        1.085      231.867       47.977        0.043      339.684       13.184      854.615
05/22/2013  18:50:00      -66.388      201.992      -34.920       76.936       94.026       44.743     5919.114     8840.852     2001.957        3.159        0.838      212.622       37.063        0.030      339.700       13.210      854.620
05/22/2013  18:51:00       -0.362      203.918      -10.315       97.679      119.510       67.214     9541.232    14282.574     4517.687        3.501        1.417      203.919       74.972        0.135      339.644       13.116      854.619
05/22/2013  18:52:00       -3.366      217.615      -17.418      100.283       95.029       54.308    10056.763     9030.506     2949.389        3.485        1.102      217.641       49.907        0.053      339.677       13.170      854.610
05/22/2013  18:53:00      -50.877      203.553      -19.729       76.357      108.574       44.846     5830.331    11788.261     2011.174        3.202        0.981      209.815       47.232        0.051      339.683       13.181      854.622
05/22/2013  18:54:00     -100.892      341.571      -43.995      139.781       96.144       56.547    19538.726     9243.726     3197.607        8.038        1.599      356.160       52.846        0.022      339.485       12.848      854.627
05/22/2013  18:55:00      -97.327      263.369      -24.006       84.641      100.024       52.265     7164.169    10004.796     2731.673        4.965        0.995      280.777       49.112        0.031      339.513       12.893      854.625
05/22/2013  18:56:00      -65.698      253.513      -31.248       96.210      104.447       50.775     9256.397    10909.124     2578.093        4.615        1.137      261.887       43.407        0.027      339.517       12.902      854.640
05/22/2013  18:57:00      -24.008      257.293      -37.934       72.004       65.880       38.733     5184.517     4340.206     1500.274        3.962        0.551      258.411       38.617        0.022      339.479       12.834      854.649
05/22/2013  18:58:00      -28.288      267.773      -37.320       68.249       71.545       38.344     4657.895     5118.681     1470.244        4.257        0.562      269.263       33.945        0.016      339.514       12.893      854.659
05/22/2013  18:59:00      -86.858      195.164      -19.680       63.298       93.901       40.749     4006.611     8817.357     1660.492        3.025        0.724      213.620       37.559        0.031      339.658       13.141      854.675
05/22/2013  19:00:00     -101.652      252.666      -34.237       57.383      103.896       38.736     3292.842    10794.482     1500.508        4.546        0.779      272.348       45.326        0.028      339.552       12.959      854.690
05/22/2013  19:01:00     -106.802      380.877      -40.026       57.662       99.421       45.907     3324.945     9884.495     2107.471        8.669        0.766      395.568       32.167        0.007      339.369       12.652      854.696
05/22/2013  19:02:00     -154.280      146.261      -27.463       98.252       92.115       52.357     9653.544     8485.237     2741.216        3.341        1.044      212.590       62.377        0.086      339.563       12.979      854.693
05/22/2013  19:03:00      -83.755      162.021      -15.913       54.337      100.089       38.300     2952.544    10017.837     1466.857        2.398        0.722      182.389       35.550        0.038      339.564       12.983      854.691
05/22/2013  19:04:00      -96.671      212.652      -17.020       67.727       87.463       42.684     4586.995     7649.721     1821.887        3.445        0.703      233.594       38.177        0.027      339.540       12.941      854.687
05/22/2013  19:05:00      -41.173      232.125      -23.962       63.830      131.967       52.433     4074.263    17415.209     2749.168        4.019        1.212      235.748       65.709        0.078      339.466       12.817      854.682
05/22/2013  19:06:00      -66.879      164.397      -21.800       50.132       76.980       39.257     2513.223     5925.948     1541.115        2.098        0.499      177.480       40.656        0.052      339.501       12.877      854.684
05/22/2013  19:07:00      -28.617      305.263      -28.767       50.811       70.764       31.399     2581.715     5007.593      985.923        5.170        0.429      306.602       27.339        0.008      339.412       12.722      854.667
05/22/2013  19:08:00      -39.854      314.846      -32.436       50.381       83.211       46.876     2538.295     6924.074     2197.385        5.671        0.583      317.358       31.928        0.010      339.387       12.680      854.654
05/22/2013  19:09:00      -49.186      303.474      -34.065       56.065       69.628       36.706     3143.322     4848.047     1347.310        5.251        0.467      307.434       28.381        0.009      339.345       12.610      854.647
05/22/2013  19:10:00     -141.983      225.904      -30.949       73.731      115.443       47.761     5436.208    13327.080     2281.128        4.659        1.052      266.818       49.314        0.034      339.438       12.768      854.644
05/22/2013  19:11:00      -94.597       88.489      -19.019       44.548       73.340       31.516     1984.497     5378.824      993.268        1.275        0.418      129.534       16.139        0.016      339.670       13.162      854.633
05/22/2013  19:12:00     -107.157      132.754      -26.255       70.770       70.464       45.427     5008.331     4965.236     2063.628        2.091        0.602      170.605       31.565        0.034      339.600       13.041      854.632
05/22/2013  19:13:00      -87.361      145.009       -1.084       58.145       75.666       44.966     3380.837     5725.288     2021.907        1.989        0.556      169.292       47.194        0.078      339.622       13.081      854.638
05/22/2013  19:14:00      -89.462       58.854      -12.317       74.104       57.273       33.208     5491.424     3280.211     1102.778        1.074        0.494      107.085       14.487        0.018      339.704       13.219      854.645
05/22/2013  19:15:00     -110.494        5.753      -10.482       79.207       76.195       38.426     6273.760     5805.682     1476.557        1.295        0.678      110.644       32.665        0.087      339.704       13.220      854.640
05/22/2013  19:16:00     -188.165      251.713      -42.444       92.007      175.157       55.191     8465.207    30679.929     3046.053        7.137        2.110      314.270       71.628        0.052      339.496       12.865      854.653
05/22/2013  19:17:00     -196.854      236.882      -42.356       99.270       98.190       61.868     9854.453     9641.308     3827.594        5.999        1.166      308.001       65.202        0.045      339.402       12.706      854.654
05/22/2013  19:18:00     -179.697      172.443      -42.309       59.418       96.300       43.606     3530.440     9273.702     1901.503        3.926        0.735      249.054       39.247        0.025      339.523       12.911      854.645
05/22/2013  19:19:00     -213.741      178.595      -50.895       93.422       75.875       53.323     8727.635     5756.998     2843.371        4.875        0.866      278.534       56.787        0.042      339.484       12.845      854.638
05/22/2013  19:20:00      -89.700      126.586       -8.739       83.252       64.860       45.621     6930.934     4206.792     2081.231        1.868        0.661      155.145       41.214        0.071      339.524       12.914      854.616
05/22/2013  19:21:00      -60.832      177.912      -15.707       47.740       65.949       43.735     2279.070     4349.257     1912.722        2.207        0.427      188.025       34.048        0.033      339.482       12.844      854.596
05/22/2013  19:22:00     -129.013      132.228      -21.801       86.957       89.530       44.416     7561.493     8015.686     1972.751        2.607        0.877      184.739       43.519        0.055      339.583       13.013      854.594
05/22/2013  19:23:00     -142.512       93.483      -27.880       70.295       56.280       34.065     4941.422     3167.433     1160.403        1.955        0.463      170.436       23.705        0.019      339.617       13.070      854.588
05/22/2013  19:24:00     -154.982      161.422      -34.653       51.664       90.527       37.556     2669.128     8195.060     1410.474        3.177        0.614      223.777       38.148        0.029      339.638       13.106      854.588
05/22/2013  19:25:00     -187.402      156.887      -31.472       86.245       80.972       47.998     7438.217     6556.443     2303.791        3.851        0.815      244.403       43.830        0.032      339.537       12.934      854.599
05/22/2013  19:26:00     -158.090      162.036      -24.361       98.495       79.781       58.250     9701.339     6364.972     3393.053        3.565        0.973      226.381       45.860        0.041      339.488       12.853      854.602
05/22/2013  19:27:00     -104.803      152.520       -9.567       66.540      107.051       53.586     4427.553    11459.890     2871.508        2.654        0.938      185.057       50.415        0.074      339.553       12.962      854.587
05/22/2013  19:28:00     -133.963      151.910      -21.904       57.076      103.425       39.791     3257.642    10696.631     1583.304        2.852        0.777      202.540       32.977        0.027      339.588       13.022      854.599
05/22/2013  19:29:00      -97.185      107.944      -15.343       65.862       64.641       39.485     4337.863     4178.520     1559.045        1.570        0.504      145.248       35.023        0.058      339.592       13.029      854.580
05/22/2013  19:30:00      -78.731       28.994       -7.590       75.054       40.106       39.822     5633.112     1608.486     1585.753        0.796        0.441       83.900       41.054        0.239      339.577       13.006      854.579
05/22/2013  19:31:00      -66.235       65.342        1.653       71.903       63.880       38.505     5170.112     4080.597     1482.621        0.969        0.537       93.041       37.357        0.161      339.639       13.111      854.586
05/22/2013  19:32:00      -84.343      128.271       -9.009       65.684       70.667       51.091     4314.441     4993.806     2610.334        1.778        0.596      153.516       32.600        0.045      339.531       12.927      854.583
05/22/2013  19:33:00     -133.481      101.951      -34.206       66.695      105.232       40.162     4448.214    11073.878     1613.013        2.325        0.857      167.961       40.619        0.058      339.578       13.007      854.574
05/22/2013  19:34:00      -98.569       88.610       -0.076       56.710      114.939       51.949     3216.066    13211.067     2698.651        1.834        0.956      132.543       39.492        0.089      339.566       12.986      854.580
05/22/2013  19:35:00     -151.350      -25.475      -34.657      100.342       49.650       46.391    10068.447     2465.103     2152.164        1.972        0.734      153.479       44.229        0.083      339.595       13.035      854.591
05/22/2013  19:36:00      -63.755       19.686      -14.450       59.187       48.702       39.102     3503.127     2371.872     1528.979        0.603        0.370       66.725       33.901        0.258      339.616       13.071      854.596
05/22/2013  19:37:00     -131.860       35.530      -18.476       60.910       62.709       42.173     3710.089     3932.448     1778.531        1.420        0.471      136.563       30.675        0.050      339.578       13.007      854.600
05/22/2013  19:38:00      -82.696       45.437      -11.047       95.533       74.289       44.328     9126.610     5518.886     1964.955        1.281        0.831       94.357       30.161        0.102      339.540       12.943      854.619
05/22/2013  19:39:00     -213.770       80.482      -24.292       83.970       65.989       45.124     7050.928     4354.609     2036.157        3.310        0.672      228.419       45.977        0.041      339.491       12.859      854.624
05/22/2013  19:40:00     -169.008        4.058      -20.952       74.007       95.899       37.478     5477.063     9196.628     1404.570        2.255        0.804      169.057       28.486        0.028      339.429       12.754      854.622
05/22/2013  19:41:00     -161.289      -22.674       -8.599      102.811       90.709       44.934    10570.172     8228.139     2019.109        2.371        1.041      162.875       35.899        0.049      339.361       12.638      854.617
05/22/2013  19:42:00      -87.538      -42.223       -6.397       88.878       55.500       49.553     7899.343     3080.255     2455.524        1.146        0.672       97.189       56.601        0.339      339.427       12.753      854.629
05/22/2013  19:43:00     -186.133      -55.057       -2.668       66.828       47.426       34.655     4465.963     2249.269     1200.957        2.280        0.396      194.105       27.822        0.021      339.321       12.572      854.632
05/22/2013  19:44:00     -152.943      -10.203      -13.166       66.491       51.993       34.596     4421.052     2703.266     1196.877        1.599        0.416      153.283       34.284        0.050      339.314       12.561      854.629
05/22/2013  19:45:00     -219.608      -11.532      -18.525       51.141       50.271       31.836     2615.444     2527.180     1013.554        2.743        0.308      219.910       22.305        0.010      339.265       12.477      854.624
05/22/2013  19:46:00     -139.246       58.612      -31.695       55.727       93.333       37.668     3105.545     8710.992     1418.888        1.853        0.662      151.079       47.021        0.097      339.271       12.489      854.622
05/22/2013  19:47:00     -138.743        4.427      -23.933       55.125       95.681       37.623     3038.776     9154.780     1415.490        1.672        0.680      138.814       22.144        0.025      339.255       12.464      854.624
05/22/2013  19:48:00     -140.905       17.581      -30.309       73.571       50.487       32.991     5412.680     2548.975     1088.412        1.506        0.453      141.998       29.717        0.044      339.226       12.415      854.619
05/22/2013  19:49:00     -202.876       30.756      -22.535       62.588       70.757       35.630     3917.272     5006.595     1269.519        2.640        0.510      205.194       31.128        0.023      339.206       12.378      854.624
05/22/2013  19:50:00     -235.343       73.281      -30.737       82.371       84.600       49.953     6784.985     7157.186     2495.336        3.907        0.822      246.488       45.329        0.034      339.163       12.305      854.625
05/22/2013  19:51:00     -136.861       60.716      -15.610       53.130       64.865       39.752     2822.816     4207.434     1580.250        1.563        0.431      149.724       21.150        0.020      339.141       12.272      854.628
05/22/2013  19:52:00      -98.626      102.416       -1.235       54.709       61.742       39.514     2993.073     3812.126     1561.330        1.429        0.418      142.184       31.743        0.050      339.158       12.299      854.640
05/22/2013  19:53:00      -72.552       66.542       -9.437       71.541       59.615       52.252     5118.164     3553.914     2730.253        1.059        0.570       98.446       40.507        0.169      339.191       12.356      854.650
05/22/2013  19:54:00     -135.901       92.239      -34.446       56.326       68.770       40.778     3172.651     4729.254     1662.827        1.886        0.478      164.247       29.419        0.032      339.178       12.332      854.668
05/22/2013  19:55:00      -93.870       -5.691      -18.030       42.251       33.941       25.112     1785.140     1151.986      630.636        0.637        0.178       94.042       19.439        0.043      339.198       12.367      854.677
05/22/2013  19:56:00      -83.884       32.993       -6.993       76.388       68.521       38.178     5835.092     4695.150     1457.581        1.008        0.599       90.139       27.755        0.095      339.116       12.230      854.701
05/22/2013  19:57:00      -96.049       29.649        2.186       60.778       75.613       41.302     3693.959     5717.333     1705.891        1.061        0.556      100.521       34.451        0.117      339.081       12.170      854.714
05/22/2013  19:58:00     -113.846       94.068      -10.631       85.882       90.540       45.547     7375.798     8197.544     2074.507        1.978        0.882      147.681       50.319        0.116      339.101       12.202      854.717
05/22/2013  19:59:00      -74.630       49.383       -4.134       49.033       62.696       41.285     2404.226     3930.833     1704.475        0.803        0.402       89.489       37.874        0.179      339.094       12.191      854.733
05/22/2013  20:00:00      -83.623       86.593       -9.418       28.400       67.643       30.629      806.576     4575.515      938.162        1.045        0.316      120.379       29.505        0.060      339.108       12.215      854.738
05/22/2013  20:01:00      -63.672       47.592       -5.918       62.324       47.375       29.074     3884.265     2244.435      845.309        0.666        0.349       79.493       26.676        0.113      339.055       12.126      854.741
05/22/2013  20:02:00     -116.896       23.011      -21.497       68.073       42.312       20.571     4633.889     1790.307      423.179        1.075        0.342      119.140       17.334        0.021      339.068       12.147      854.751
05/22/2013  20:03:00      -42.604       29.704       -7.696       44.629       56.978       29.818     1991.709     3246.436      889.125        0.444        0.306       51.937       23.454        0.204      338.984       12.008      854.764
05/22/2013  20:04:00      -48.094       73.322       -5.728       34.149       42.041       22.749     1166.153     1767.407      517.519        0.559        0.173       87.688       19.464        0.049      339.019       12.066      854.779
05/22/2013  20:05:00      -28.249      136.414      -11.862       64.368       38.037       29.634     4143.265     1446.821      878.156        1.301        0.323      139.308       27.473        0.039      339.076       12.160      854.799
05/22/2013  20:06:00      -48.058       72.741       -6.642       44.816       25.576       25.366     2008.483      654.137      643.412        0.547        0.165       87.182       25.617        0.086      339.052       12.121      854.813
05/22/2013  20:07:00      -38.988       65.739       -2.760       35.577       37.033       20.483     1265.709     1371.440      419.544        0.445        0.153       76.431       19.410        0.064      339.096       12.197      854.817
05/22/2013  20:08:00      -13.002       -9.677       12.773       34.791       23.940       19.256     1210.411      573.133      370.796        0.129        0.108       16.208       18.677        1.328      338.942       11.936      854.825
05/22/2013  20:09:00      -80.830      -53.316        1.635       56.060       35.105       25.072     3142.731     1232.377      628.624        0.719        0.250       96.830       32.573        0.113      338.720       11.564      854.840
05/22/2013  20:10:00      -73.606       -2.874        4.220       44.076       28.628       22.330     1942.693      819.535      498.619        0.435        0.163       73.662       21.398        0.084      338.686       11.505      854.858
05/22/2013  20:11:00      -82.983      -58.796       -1.716       42.770       26.221       21.314     1829.281      687.535      454.293        0.666        0.149      101.701       22.899        0.051      338.735       11.588      854.874
05/22/2013  20:12:00      -67.340      -14.542        1.604       27.691       32.043       23.819      766.793     1026.747      567.366        0.355        0.118       68.893       20.827        0.091      338.766       11.641      854.885
05/22/2013  20:13:00      -50.681        9.146       -5.674       14.996       12.565       13.209      224.891      157.878      174.485        0.162        0.028       51.500        8.650        0.028      338.812       11.716      854.905
05/22/2013  20:14:00      -54.936       20.781      -13.444       20.781       13.081       13.006      431.845      171.114      169.161        0.220        0.039       58.735       10.338        0.031      338.841       11.766      854.919
05/22/2013  20:15:00      -73.056        7.925      -16.062       29.942       15.565       17.571      896.501      242.258      308.734        0.355        0.072       73.485       11.852        0.026      338.912       11.886      854.920
05/22/2013  20:16:00        5.654       27.908       -2.655       23.547       25.377       17.042      554.452      643.982      290.427        0.115        0.074       28.475       13.194        0.215      338.835       11.756      854.936
05/22/2013  20:17:00       19.208       25.227       15.107       34.097       45.985       37.788     1162.623     2114.662     1427.943        0.297        0.235       31.707       21.082        0.442      338.861       11.799      854.940
05/22/2013  20:18:00        8.373       41.640       -6.472       16.412       11.451        9.278      269.349      131.116       86.082        0.117        0.024       42.474        8.694        0.042      338.816       11.724      854.949
05/22/2013  20:19:00       18.131       69.331        8.434       29.799       44.099       24.390      887.985     1944.684      594.871        0.432        0.171       71.662       15.595        0.047      338.857       11.794      854.958
05/22/2013  20:20:00       -9.646       46.732        0.628       15.889       29.972       12.310      252.447      898.340      151.528        0.179        0.065       47.717        9.063        0.036      338.887       11.843      854.951
05/22/2013  20:21:00       27.388       44.493       -0.145       24.263       18.943       16.001      588.692      358.824      256.040        0.197        0.060       52.247       11.827        0.051      338.802       11.700      854.961
05/22/2013  20:22:00       42.582       20.941       -9.613       19.115       22.369       17.380      365.387      500.376      302.052        0.176        0.058       47.453       15.338        0.104      338.958       11.964      854.971
05/22/2013  20:23:00       25.365       20.029        6.552       16.941       27.442       29.685      286.985      753.086      881.176        0.150        0.096       32.319       20.704        0.410      338.830       11.746      854.992
05/22/2013  20:24:00       12.529       13.219       19.355       13.024       12.084        8.605      169.612      146.032       74.044        0.055        0.019       18.213        7.933        0.190      338.708       11.542      855.013
05/22/2013  20:25:00       13.597       12.489       -2.262        9.372       11.491        5.217       87.830      132.044       27.217        0.030        0.012       18.462        3.223        0.030      338.788       11.678      855.026
05/22/2013  20:26:00        7.311       -1.687       11.561       10.534        9.300        8.765      110.967       86.490       76.824        0.023        0.014        7.503        4.769        0.404      338.788       11.676      855.035
05/22/2013  20:27:00        1.046      -45.738       -5.185       20.645       18.145       13.286      426.215      329.253      176.517        0.153        0.047       45.750        8.196        0.032      338.917       11.893      855.046
05/22/2013  20:28:00      -27.473      -39.742        4.602       28.163       36.731       18.117      793.166     1349.203      328.217        0.241        0.124       48.314       16.506        0.117      338.787       11.675      855.057
05/22/2013  20:29:00      -38.950      -37.036        2.180       38.057       34.165       20.704     1448.329     1167.220      428.673        0.297        0.152       53.748       22.154        0.170      338.723       11.568      855.063
05/22/2013  20:30:00      -36.081      -10.509       10.104       35.828       38.494       23.420     1283.628     1481.801      548.515        0.241        0.166       37.580       23.664        0.397      338.677       11.492      855.069
05/22/2013  20:31:00      -79.954        2.648       -4.197       40.626       31.071       23.829     1650.458      965.412      567.832        0.480        0.159       79.998       18.394        0.053      338.649       11.444      855.071
05/22/2013  20:32:00      -77.745      -38.655        1.236       43.274       34.404       21.196     1872.647     1183.614      449.270        0.552        0.175       86.825       21.384        0.061      338.549       11.276      855.067
05/22/2013  20:33:00      -57.752      -36.213        3.129       34.396       31.010       19.684     1183.118      961.608      387.473        0.359        0.127       68.167       21.492        0.099      338.668       11.475      855.072
05/22/2013  20:34:00      -37.453      -33.702        2.132       35.214       19.291       18.856     1240.013      372.162      355.531        0.225        0.098       50.384       20.625        0.168      338.679       11.492      855.086
05/22/2013  20:35:00     -101.691      -54.054      -10.540       35.107       26.193       16.792     1232.503      686.072      281.961        0.779        0.110      115.164       14.662        0.016      338.747       11.608      855.103
05/22/2013  20:36:00      -98.305      -52.028       -0.733       67.513       48.337       22.720     4558.055     2336.507      516.218        0.989        0.371      111.224       32.452        0.085      338.658       11.458      855.128
05/22/2013  20:37:00     -132.292      -28.463      -12.577      101.034       33.898       29.249    10207.887     1149.083      855.487        1.534        0.611      135.319       40.795        0.091      338.633       11.417      855.146
05/22/2013  20:38:00     -124.366      -37.730        1.903       51.059       40.958       25.362     2607.012     1677.573      643.243        1.091        0.246      129.963       24.091        0.034      338.612       11.383      855.160
05/22/2013  20:39:00      -65.333      -30.081        6.358       58.325       39.730       27.000     3401.795     1578.461      728.999        0.546        0.285       71.925       25.030        0.121      338.610       11.378      855.187
05/22/2013  20:40:00     -102.312      -18.076       -2.251       56.725       39.098       23.687     3217.770     1528.633      561.073        0.805        0.265      103.897       24.245        0.054      338.488       11.172      855.204
05/22/2013  20:41:00      -98.019       -2.232       -8.364       44.497       24.908       22.576     1979.980      620.394      509.693        0.640        0.156       98.044       25.380        0.067      338.430       11.077      855.210
05/22/2013  20:42:00      -91.547      -42.326      -13.702       29.867       16.024       14.709      892.030      256.756      216.364        0.586        0.068      100.858       16.624        0.027      338.492       11.182      855.208
05/22/2013  20:43:00     -130.909      -58.140       -2.456       43.590       29.363       22.426     1900.121      862.175      502.929        1.189        0.163      143.239       23.797        0.028      338.464       11.133      855.220
05/22/2013  20:44:00     -111.963       -5.030       -6.399       39.809       49.003       15.359     1584.796     2401.297      235.906        0.841        0.211      112.076       17.990        0.026      338.492       11.179      855.223
05/22/2013  20:45:00     -180.222        6.337      -12.562       53.949       41.798       17.947     2910.537     1747.032      322.111        1.883        0.249      180.333       17.241        0.009      338.487       11.169      855.230
05/22/2013  20:46:00     -150.527        3.162      -15.821       42.627       33.965       25.794     1817.060     1153.625      665.327        1.328        0.182      150.560       22.726        0.023      338.419       11.058      855.245
05/22/2013  20:47:00     -181.672      -36.338      -19.974       44.934       42.672       21.732     2019.044     1820.922      472.271        1.952        0.216      185.271       19.941        0.012      338.427       11.068      855.255
05/22/2013  20:48:00     -159.487       -2.481      -18.760       53.541       34.799       19.780     2866.623     1210.966      391.262        1.513        0.223      159.506       24.770        0.024      338.439       11.091      855.272
05/22/2013  20:49:00     -117.653       -3.845       -6.309       48.883       44.837       27.170     2389.502     2010.390      738.222        0.952        0.257      117.716       28.032        0.057      338.729       11.578      855.268
05/22/2013  20:50:00      -66.241       22.527       -4.886       26.239       16.251        9.583      688.492      264.096       91.843        0.298        0.052       69.967        5.529        0.006      338.540       11.261      855.274
05/22/2013  20:51:00      -73.581       60.998      -17.256       16.266       25.790       13.386      264.596      665.099      179.179        0.527        0.055       95.577       12.720        0.018      338.513       11.216      855.290
05/22/2013  20:52:00     -122.218       91.437      -32.897       36.669       29.159       19.717     1344.580      850.254      388.747        1.348        0.129      152.637       23.987        0.025      338.427       11.070      855.317
05/22/2013  20:53:00     -131.842       26.996      -17.790       39.976       37.844       28.188     1598.081     1432.185      794.552        1.113        0.191      134.578       21.824        0.026      338.365       10.968      855.339
05/22/2013  20:54:00      -68.609       43.166       -5.706       50.778       31.839       25.117     2578.415     1013.747      630.885        0.541        0.211       81.058       22.562        0.077      338.334       10.914      855.346
05/22/2013  20:55:00      -47.289      112.525      -14.947       40.923       29.137       19.002     1674.720      848.972      361.088        0.900        0.144      122.058       17.858        0.021      338.430       11.076      855.346
05/22/2013  20:56:00       28.438       98.432       -9.228       25.068       34.148       23.184      628.389     1166.116      537.496        0.646        0.117      102.458       18.712        0.033      338.402       11.029      855.329
05/22/2013  20:57:00       -1.312      100.986      -14.205       34.865       34.421       21.964     1215.563     1184.823      482.435        0.664        0.144      100.994       17.074        0.029      338.329       10.906      855.324
05/22/2013  20:58:00      -35.724       76.174      -16.333       32.660       34.043       11.913     1066.683     1158.922      141.930        0.486        0.118       84.135        7.282        0.007      338.427       11.072      855.370
05/22/2013  20:59:00      -53.649       24.838      -10.313       16.290       21.357       11.891      265.359      456.126      141.395        0.223        0.043       59.120       10.508        0.032      338.387       11.005      855.392
05/22/2013  21:00:00      -67.752       12.275       -7.499       20.754       18.729        9.564      430.717      350.779       91.461        0.283        0.044       68.855        6.940        0.010      338.297       10.854      855.413
05/22/2013  21:01:00      -75.346        3.509       -3.115       26.875       10.013        9.736      722.281      100.252       94.799        0.331        0.046       75.428       10.262        0.019      338.386       11.003      855.412
05/22/2013  21:02:00      -21.916       77.360       -8.681       22.924       43.534       13.461      525.531     1895.230      181.194        0.457        0.130       80.404       14.938        0.035      338.442       11.096      855.403
05/22/2013  21:03:00       18.618       99.011       -9.185       30.917       55.378       24.697      955.846     3066.752      609.942        0.743        0.232      100.747       30.779        0.093      338.296       10.850      855.373
05/22/2013  21:04:00       46.250      148.326      -32.597       39.519       40.211       19.529     1561.749     1616.908      381.386        1.438        0.178      155.369       18.130        0.014      338.218       10.720      855.352
05/22/2013  21:05:00      -30.611      132.542      -22.110       31.719       42.449       21.516     1006.092     1801.945      462.950        1.113        0.164      136.031       19.502        0.021      338.186       10.667      855.366
05/22/2013  21:06:00      -64.510       22.002      -16.154       29.026       38.898       25.547      842.505     1513.076      652.655        0.396        0.150       68.159       19.406        0.081      338.331       10.909      855.380
05/22/2013  21:07:00     -106.212      -46.398       -5.182       66.061       55.845       29.336     4364.051     3118.633      860.583        1.090        0.417      115.904       25.850        0.050      338.283       10.830      855.381
05/22/2013  21:08:00     -165.037        4.210      -33.196       30.700       44.716       24.290      942.517     1999.500      590.022        1.594        0.177      165.091       19.347        0.014      338.357       10.954      855.376
05/22/2013  21:09:00     -148.062       12.800       -9.654       46.759       39.514       25.697     2186.436     1561.367      660.332        1.329        0.220      148.614       24.794        0.028      338.336       10.916      855.372
05/22/2013  21:10:00      -68.482        4.381       -4.824       26.109       33.910       15.193      681.667     1149.863      230.814        0.340        0.103       68.622       11.745        0.029      338.346       10.936      855.365
05/22/2013  21:11:00     -122.397       47.090      -17.254       43.192       33.651       22.513     1865.549     1132.378      506.844        1.050        0.175      131.143       18.546        0.020      338.398       11.024      855.348
05/22/2013  21:12:00     -115.225       47.417      -18.574       33.743       36.381       24.769     1138.601     1323.563      613.490        0.947        0.154      124.600       19.326        0.024      338.250       10.773      855.345
05/22/2013  21:13:00      -77.102      109.112      -12.093       33.290       37.929       23.230     1108.244     1438.616      539.623        1.054        0.154      133.604       19.080        0.020      338.153       10.610      855.328
05/22/2013  21:14:00      -73.947      119.463       -8.252       28.813       29.573       25.636      830.205      874.535      657.188        1.108        0.118      140.498       17.101        0.015      338.197       10.685      855.318
05/22/2013  21:15:00      -88.358       63.748      -20.483       26.234       47.772       24.226      688.222     2282.123      586.909        0.792        0.178      108.954       17.602        0.026      338.300       10.858      855.320
05/22/2013  21:16:00      -56.591       21.604       -6.293       15.154       25.672       13.016      229.630      659.077      169.420        0.238        0.053       60.575        9.903        0.027      338.226       10.732      855.309
05/22/2013  21:17:00      -53.544       12.167      -14.389       23.352       20.523       12.372      545.331      421.188      153.073        0.217        0.056       54.909       12.600        0.053      338.247       10.769      855.313
05/22/2013  21:18:00      -55.996       10.075       -7.069       22.770       22.551       12.331      518.456      508.528      152.065        0.223        0.059       56.895       10.348        0.033      338.296       10.851      855.322
05/22/2013  21:19:00      -88.778       21.705       -5.459       33.165       17.797       15.924     1099.906      316.749      253.560        0.503        0.084       91.393       11.022        0.015      338.267       10.803      855.338
05/22/2013  21:20:00     -124.967      -16.821      -13.240       33.098       23.206       19.782     1095.470      538.530      391.334        0.905        0.101      126.094       15.943        0.016      338.026       10.398      855.343
05/22/2013  21:21:00      -57.774        7.026       -3.138       33.416       29.250       19.191     1116.638      855.588      368.287        0.287        0.117       58.200       20.123        0.120      338.042       10.425      855.358
05/22/2013  21:22:00      -64.537       48.611       -5.209       40.832       28.795       22.041     1667.262      829.165      485.818        0.477        0.149       80.796       20.551        0.065      338.105       10.531      855.366
05/22/2013  21:23:00     -108.771       54.206      -17.775       37.183       31.189       21.502     1382.597      972.761      462.329        0.895        0.141      121.530       12.630        0.011      338.155       10.614      855.383
05/22/2013  21:24:00     -104.253      109.595      -26.285       42.510       45.666       29.901     1807.139     2085.385      894.043        1.418        0.239      151.260       25.533        0.028      338.101       10.525      855.391
05/22/2013  21:25:00      -98.418      105.227      -28.494       27.817       34.373       20.391      773.801     1181.530      415.780        1.197        0.119      144.079       16.114        0.013      338.054       10.446      855.407
05/22/2013  21:26:00      -59.590       66.778      -10.083       34.667       34.850       20.180     1201.777     1214.544      407.224        0.547        0.141       89.500       19.582        0.048      338.016       10.382      855.413
05/22/2013  21:27:00      -63.142       57.788      -15.353       39.883       35.913       19.176     1590.631     1289.765      367.726        0.540        0.162       85.594       21.402        0.063      337.967       10.299      855.409
05/22/2013  21:28:00      -50.260       72.376       -8.580       54.498       36.590       24.651     2970.025     1338.864      607.655        0.638        0.246       88.116       24.356        0.076      337.960       10.287      855.415
05/22/2013  21:29:00       11.503      109.661        0.810       22.875       64.446       29.440      523.273     4153.237      866.720        0.885        0.277      110.262       35.749        0.105      337.935       10.245      855.412
05/22/2013  21:30:00        6.489      105.558      -15.349       29.725       31.730       22.813      883.577     1006.823      520.451        0.692        0.121      105.757       19.753        0.035      337.901       10.190      855.409
05/22/2013  21:31:00      -35.974       83.025       -9.582       42.202       46.059       28.271     1780.992     2121.428      799.275        0.649        0.235       90.483       22.285        0.061      337.967       10.297      855.404
05/22/2013  21:32:00      -22.060      121.374       -5.768       40.141       65.397       32.092     1611.290     4276.766     1029.889        1.108        0.346      123.362       38.002        0.095      337.980       10.321      855.415
05/22/2013  21:33:00      -29.425      195.756      -15.330       44.529       44.497       32.802     1982.863     1980.003     1075.954        2.223        0.252      197.956       24.121        0.015      337.987       10.330      855.417
05/22/2013  21:34:00        9.475      184.155      -29.719       24.062       36.494       18.372      578.994     1331.790      337.518        1.857        0.112      184.399       12.045        0.004      337.889       10.168      855.412
05/22/2013  21:35:00       28.636       82.783       -6.644       26.120       38.803       22.661      682.263     1505.645      513.531        0.521        0.135       87.596       18.837        0.046      337.736        9.911      855.406
05/22/2013  21:36:00       15.641       53.718       -3.440       36.935       32.494       20.624     1364.169     1055.852      425.330        0.299        0.142       55.949       19.397        0.120      337.733        9.908      855.405
05/22/2013  21:37:00        0.216      124.002      -12.542       29.948       45.958       18.589      896.911     2112.172      345.569        0.944        0.168      124.002       19.399        0.024      337.798       10.015      855.410
05/22/2013  21:38:00      -23.357      131.645      -14.611       31.126       36.262       13.309      968.835     1314.943      177.126        1.027        0.123      133.701        4.749        0.001      337.872       10.140      855.422
05/22/2013  21:39:00     -103.558       70.887      -27.036       30.232       48.500       19.777      913.985     2352.296      391.121        1.007        0.183      125.496       26.873        0.046      337.910       10.203      855.443
05/22/2013  21:40:00      -63.563      154.354      -23.986       55.160       40.984       29.405     3042.624     1679.711      864.680        1.701        0.279      166.929       25.882        0.024      337.772        9.970      855.438
05/22/2013  21:41:00        6.261      132.334      -14.366       22.632       30.397       14.940      512.188      923.994      223.195        0.971        0.083      132.482       13.735        0.011      337.731        9.903      855.424
05/22/2013  21:42:00      -13.271       53.341       -4.884       24.607       50.885       19.702      605.516     2589.308      388.175        0.331        0.179       54.967       26.401        0.231      337.699        9.850      855.421
05/22/2013  21:43:00      -35.812        6.410       -4.478       22.983       20.472       10.727      528.212      419.087      115.065        0.120        0.053       36.381        6.978        0.037      337.894       10.177      855.435
05/22/2013  21:44:00      -37.261       43.379      -10.616       29.132       38.636       15.040      848.695     1492.730      226.191        0.297        0.128       57.185        9.977        0.030      337.907       10.198      855.417
05/22/2013  21:45:00       36.480       59.313        2.444       40.104       45.853       30.501     1608.292     2102.480      930.287        0.475        0.232       69.634       29.976        0.185      337.731        9.903      855.391
05/22/2013  21:46:00      -60.473       96.577      -15.262       59.106       34.996       24.636     3493.493     1224.716      606.933        0.927        0.266      113.948       23.767        0.044      337.862       10.124      855.381
05/22/2013  21:47:00     -101.386       68.203      -14.298       33.083       25.533       20.353     1094.484      651.927      414.258        0.865        0.108      122.192       13.867        0.013      337.885       10.160      855.382
05/22/2013  21:48:00     -119.100       80.375      -20.745       55.234       34.427       26.023     3050.840     1185.201      677.186        1.299        0.246      143.684       30.245        0.044      337.892       10.172      855.389
05/22/2013  21:49:00      -59.628       65.880       -6.721       34.295       29.313       20.557     1176.120      859.252      422.610        0.520        0.123       88.857       17.074        0.037      337.928       10.234      855.385
05/22/2013  21:50:00      -71.343       53.781       -3.458       45.657       29.550       22.133     2084.572      873.215      489.882        0.572        0.172       89.343       12.587        0.020      337.939       10.252      855.367
05/22/2013  21:51:00      -51.246       18.014       -0.836       32.764       23.714       19.014     1073.474      562.363      361.545        0.247        0.100       54.320       10.423        0.037      337.880       10.154      855.369
05/22/2013  21:52:00     -109.058       21.552       -9.849       43.447       37.452       19.949     1887.631     1402.633      397.964        0.807        0.184      111.167       10.687        0.009      337.910       10.204      855.393
05/22/2013  21:53:00      -72.811      -23.035        5.314       44.596       57.680       22.626     1988.830     3327.027      511.949        0.584        0.291       76.368       26.020        0.116      337.864       10.125      855.404
05/22/2013  21:54:00      -57.101      -20.335       -3.772       45.050       32.445       16.933     2029.463     1052.674      286.728        0.353        0.168       60.614       19.689        0.106      337.858       10.116      855.389
05/22/2013  21:55:00      -32.165       35.737      -10.246       18.191       16.733       12.257      330.925      279.998      150.238        0.159        0.038       48.080        8.382        0.030      337.784        9.992      855.368
05/22/2013  21:56:00      -74.349       90.844      -17.346       32.073       40.774       25.556     1028.655     1662.493      653.101        0.871        0.167      117.390       23.711        0.041      337.863       10.124      855.370
05/22/2013  21:57:00      -76.516       81.687      -11.408       43.019       62.828       25.368     1850.598     3947.364      643.531        0.955        0.322      111.926        9.446        0.007      337.798       10.016      855.383
05/22/2013  21:58:00      -81.879       55.673      -14.046       32.479       31.287       25.326     1054.914      978.858      641.404        0.634        0.134       99.013       18.441        0.035      337.736        9.911      855.395
05/22/2013  21:59:00     -107.684       50.412      -10.072       42.976       54.256       29.489     1846.964     2943.706      869.625        0.995        0.283      118.900       20.765        0.030      337.752        9.938      855.392
05/22/2013  22:00:00      -82.050       14.231       -7.367       53.524       52.732       28.125     2864.779     2780.678      791.040        0.671        0.322       83.275       28.559        0.118      337.783        9.990      855.419
05/22/2013  22:01:00      -80.700      -11.426        2.584       58.581       32.038       30.624     3431.735     1026.403      937.818        0.602        0.270       81.505       21.447        0.069      337.587        9.661      855.427
05/22/2013  22:02:00     -105.222      -34.314      -17.867       31.973       21.609       19.866     1022.257      466.932      394.661        0.723        0.094      110.676        7.957        0.005      337.628        9.730      855.442
05/22/2013  22:03:00      -65.848       49.571      -11.626       32.578       39.008       24.481     1061.331     1521.648      599.330        0.505        0.159       82.421       25.101        0.093      337.575        9.642      855.438
05/22/2013  22:04:00      -46.856       77.403      -16.311       35.392       41.387       20.133     1252.628     1712.868      405.318        0.591        0.169       90.481       16.689        0.034      337.603        9.688      855.440
05/22/2013  22:05:00      -85.264       49.153      -14.741       38.650       41.073       28.801     1493.815     1687.013      829.510        0.696        0.201       98.417       25.006        0.065      337.645        9.759      855.428
05/22/2013  22:06:00      -93.446       95.259      -18.548       59.882       44.354       32.075     3585.804     1967.297     1028.810        1.236        0.329      133.441       35.840        0.072      337.538        9.579      855.429
05/22/2013  22:07:00      -16.936      117.688       -9.424       37.666       44.984       30.130     1418.745     2023.557      907.845        0.929        0.218      118.901       29.474        0.061      337.531        9.569      855.390
05/22/2013  22:08:00      -34.342       98.249       -1.368       36.845       60.118       25.286     1357.565     3614.218      639.371        0.822        0.281      104.078       28.165        0.073      337.534        9.573      855.384
05/22/2013  22:09:00      -43.319      182.033      -22.087       39.704       66.995       29.712     1576.378     4488.277      882.795        2.122        0.347      187.116       25.529        0.019      337.582        9.652      855.435
05/22/2013  22:10:00      -59.941      255.937      -30.825       49.335       75.570       30.414     2433.967     5710.790      925.000        3.956        0.453      262.862       32.801        0.016      337.622        9.717      855.436
05/22/2013  22:11:00      -68.784      270.374      -23.310       45.696       69.268       38.878     2088.139     4798.090     1511.484        4.339        0.420      278.987       41.267        0.022      337.511        9.530      855.444
05/22/2013  22:12:00     -103.528      186.558      -28.369       59.917       47.789       34.527     3590.078     2283.818     1192.142        2.669        0.353      213.359       30.331        0.020      337.505        9.521      855.449
05/22/2013  22:13:00     -122.926      140.869      -35.488       52.091       57.855       34.833     2713.465     3347.236     1213.357        2.174        0.364      186.962       22.363        0.014      337.524        9.555      855.463
05/22/2013  22:14:00      -91.915      117.899      -20.096       49.176       50.971       34.382     2418.248     2598.034     1182.115        1.447        0.310      149.495       30.311        0.041      337.535        9.574      855.463
05/22/2013  22:15:00     -139.910      134.364      -24.716       53.252       46.157       33.575     2835.756     2130.510     1127.301        2.217        0.305      193.981       29.919        0.024      337.468        9.461      855.477
05/22/2013  22:16:00      -92.100      136.298      -22.786       64.129       69.426       34.134     4112.502     4820.019     1165.140        1.884        0.505      164.498       37.856        0.053      337.467        9.458      855.479
05/22/2013  22:17:00     -160.749      167.599      -38.814       53.336       70.700       36.593     2844.721     4998.529     1339.082        3.231        0.459      232.228       29.122        0.016      337.524        9.552      855.479
05/22/2013  22:18:00      -95.914      133.163      -17.308       43.411       66.881       30.998     1884.524     4473.035      960.876        1.727        0.366      164.109       25.990        0.025      337.442        9.418      855.480
05/22/2013  22:19:00     -129.445      191.725      -31.535       49.749       67.580       36.088     2474.981     4567.018     1302.324        3.143        0.417      231.332       28.858        0.016      337.517        9.541      855.478
05/22/2013  22:20:00     -120.050      216.614      -29.682       80.772       76.648       38.528     6524.092     5874.866     1484.417        3.805        0.694      247.656       33.042        0.018      337.560        9.613      855.487
05/22/2013  22:21:00     -122.158      126.803      -30.684       45.997       54.124       30.820     2115.731     2929.364      949.848        1.897        0.300      176.073       25.523        0.021      337.606        9.693      855.477
05/22/2013  22:22:00     -109.931      132.381      -19.947       40.905       52.084       28.618     1673.227     2712.738      818.979        1.761        0.260      172.075       20.393        0.014      337.528        9.562      855.469
05/22/2013  22:23:00     -123.943      172.635      -37.644       60.607       78.132       41.326     3673.206     6104.599     1707.832        2.903        0.574      212.520       39.300        0.034      337.558        9.611      855.470
05/22/2013  22:24:00      -87.445      109.587      -11.297       74.969       64.162       39.180     5620.333     4116.802     1535.104        1.553        0.564      140.199       45.932        0.107      337.497        9.510      855.459
05/22/2013  22:25:00     -167.242      134.660      -32.986       47.906       69.007       36.491     2295.006     4761.900     1331.562        2.779        0.419      214.716       30.060        0.020      337.592        9.668      855.467
05/22/2013  22:26:00     -107.647      154.814      -33.408       54.349       73.534       36.435     2953.766     5407.217     1327.519        2.318        0.484      188.561       30.435        0.026      337.579        9.647      855.451
05/22/2013  22:27:00      -87.796      103.205      -20.568       35.620       42.917       30.049     1268.769     1841.826      902.962        1.140        0.201      135.497       21.343        0.025      337.553        9.604      855.456
05/22/2013  22:28:00     -122.100      103.625      -22.785       81.733       43.731       35.945     6680.357     1912.426     1292.068        1.802        0.494      160.145       36.581        0.052      337.556        9.609      855.452
05/22/2013  22:29:00     -113.395      134.632      -15.736       69.589       70.728       43.882     4842.617     5002.381     1925.651        2.150        0.589      176.023       45.727        0.067      337.486        9.492      855.443
05/22/2013  22:30:00     -120.975      139.180      -32.301       74.672       48.666       32.699     5575.861     2368.395     1069.254        2.203        0.451      184.407       39.280        0.045      337.519        9.545      855.435
05/22/2013  22:31:00     -101.240      120.057      -17.184       68.264       69.267       42.035     4659.964     4797.982     1766.971        1.809        0.561      157.046       38.518        0.060      337.435        9.406      855.436
05/22/2013  22:32:00     -116.269      201.826      -19.555       89.516       68.447       56.455     8013.093     4685.038     3187.140        3.526        0.794      232.921       58.326        0.063      337.465        9.455      855.427
05/22/2013  22:33:00     -187.727      167.954      -39.318       71.333       95.749       45.216     5088.402     9167.790     2044.518        4.064        0.815      251.893       46.934        0.035      337.494        9.502      855.424
05/22/2013  22:34:00     -118.427       87.110      -11.555       63.812       60.258       39.133     4071.985     3631.051     1531.375        1.549        0.462      147.014       34.991        0.057      337.473        9.469      855.421
05/22/2013  22:35:00     -123.725       32.762      -19.055       55.413       56.234       31.561     3070.564     3162.207      996.088        1.199        0.361      127.989       22.776        0.032      337.525        9.558      855.436
05/22/2013  22:36:00     -121.595      -17.725       -8.600       44.771       44.084       27.880     2004.435     1943.379      777.269        0.995        0.236      122.880       25.674        0.044      337.544        9.588      855.433
05/22/2013  22:37:00     -125.317       28.260       -9.313      101.161       75.267       44.574    10233.649     5665.153     1986.824        1.723        0.894      128.464       52.786        0.169      337.497        9.508      855.431
05/22/2013  22:38:00      -82.471       45.926       -6.733       34.796       47.083       28.646     1210.789     2216.784      820.610        0.660        0.212       94.396       20.036        0.045      337.493        9.503      855.414
05/22/2013  22:39:00     -117.050       78.145       -6.629       50.429       71.876       39.706     2543.112     5166.111     1576.552        1.457        0.464      140.739       44.202        0.099      337.539        9.579      855.393
05/22/2013  22:40:00     -117.873       90.796      -24.171       35.417       47.067       31.522     1254.373     2215.264      993.660        1.359        0.223      148.788       24.216        0.026      337.424        9.388      855.384
05/22/2013  22:41:00     -131.493       61.332      -23.744       54.346       82.905       25.337     2953.466     6873.234      641.985        1.604        0.523      145.093       26.128        0.032      337.435        9.406      855.384
05/22/2013  22:42:00      -94.513       15.219       -6.207       39.324       80.437       29.628     1546.344     6470.145      877.825        0.905        0.445       95.731       26.570        0.077      337.414        9.372      855.385
05/22/2013  22:43:00      -76.282      -31.101       12.483       73.943       54.536       35.816     5467.545     2974.204     1282.764        0.833        0.486       82.378       38.796        0.222      337.353        9.270      855.387
05/22/2013  22:44:00     -154.734      -47.408        2.847      100.636       63.469       34.018    10127.518     4028.371     1157.229        2.075        0.766      161.833       32.671        0.041      337.235        9.072      855.396
05/22/2013  22:45:00     -156.649      -42.057       -6.195       82.536       46.740       33.907     6812.117     2184.663     1149.686        1.824        0.507      162.197       32.498        0.040      337.103        8.849      855.403
05/22/2013  22:46:00     -134.147        1.034      -13.790       76.797       83.933       43.336     5897.799     7044.818     1877.984        1.650        0.741      134.151       32.364        0.058      337.159        8.942      855.395
05/22/2013  22:47:00      -74.511       -3.154       -1.464       53.321       36.111       25.522     2843.115     1304.029      651.375        0.518        0.240       74.578       16.697        0.050      337.119        8.877      855.402
05/22/2013  22:48:00     -118.914       26.884      -19.778       32.916       66.888       29.272     1083.454     4474.011      856.857        1.083        0.321      121.915       29.753        0.060      337.200        9.012      855.406
05/22/2013  22:49:00      -66.301        8.634      -12.009       34.624       39.047       19.023     1198.789     1524.652      361.890        0.385        0.154       66.860       15.404        0.053      337.186        8.991      855.390
05/22/2013  22:50:00      -82.566       25.502       -8.812       34.879       53.721       21.445     1216.513     2885.904      459.901        0.605        0.228       86.415       10.533        0.015      337.171        8.964      855.365
05/22/2013  22:51:00     -265.000      -31.024      -23.316      153.525       47.785       42.675    23569.965     2283.401     1821.140        4.970        1.384      266.810       50.446        0.036      337.551        9.600      855.343
05/22/2013  22:52:00     -254.489       -5.161      -22.705       86.303       37.560       32.029     7448.257     1410.727     1025.883        3.759        0.494      254.541       39.676        0.024      337.477        9.474      855.352
05/22/2013  22:53:00     -180.529      -58.738      -16.239       71.761       47.511       38.529     5149.648     2257.278     1484.517        2.260        0.445      189.845       38.757        0.042      337.462        9.451      855.359
05/22/2013  22:54:00     -303.656      -28.842      -29.138       96.243       92.344       49.900     9262.656     8527.392     2489.997        5.708        1.014      305.023       45.027        0.022      337.528        9.559      855.362
05/22/2013  22:55:00     -283.607      -85.221       -6.599       92.745       90.829       48.729     8601.643     8249.953     2374.526        5.348        0.961      296.134       49.340        0.028      337.569        9.628      855.350
05/22/2013  22:56:00     -230.959       -5.651      -15.224       59.457       87.875       39.248     3535.135     7721.937     1540.400        3.320        0.640      231.028       31.512        0.019      337.539        9.577      855.372
05/22/2013  22:57:00     -170.624       25.131      -14.717       70.428       56.021       37.296     4960.100     3138.407     1390.988        1.972        0.474      172.465       28.101        0.027      337.535        9.571      855.375
05/22/2013  22:58:00     -153.903      -43.764      -11.225       73.679       67.657       41.234     5428.565     4577.516     1700.208        1.871        0.585      160.004       46.684        0.085      337.538        9.578      855.385
05/22/2013  22:59:00     -168.055        3.824      -10.034       76.182       48.349       32.736     5803.650     2337.661     1071.643        1.878        0.461      168.099       39.612        0.056      337.519        9.546      855.398
05/22/2013  23:00:00     -138.585       24.397      -15.088       74.384       94.676       44.362     5533.028     8963.615     1967.963        1.824        0.823      140.716       35.398        0.063      337.582        9.652      855.386
05/22/2013  23:01:00      -99.342      -50.088        9.633       97.899       85.083       47.300     9584.201     7239.138     2237.265        1.576        0.953      111.254       45.595        0.168      337.541        9.584      855.364
05/22/2013  23:02:00     -223.871      -54.328       -5.453      101.639       67.418       41.219    10330.396     4545.148     1699.004        3.483        0.829      230.369       38.398        0.028      337.535        9.571      855.366
05/22/2013  23:03:00     -188.202      -23.830       -2.314       89.690       64.638       43.800     8044.283     4178.135     1918.453        2.506        0.707      189.705       46.157        0.059      337.547        9.591      855.351
05/22/2013  23:04:00     -204.602      -82.548       -5.422       98.122       74.885       45.631     9627.900     5607.731     2082.152        3.301        0.866      220.627       50.903        0.053      337.485        9.486      855.340
05/22/2013  23:05:00     -238.378      -31.537      -13.485       75.315       57.528       45.307     5672.359     3309.414     2052.763        3.452        0.552      240.455       41.924        0.030      337.457        9.440      855.327
05/22/2013  23:06:00     -207.931      -52.365      -14.751       58.461       69.071       29.527     3417.648     4770.793      871.838        2.763        0.453      214.424       30.150        0.020      337.428        9.393      855.319
05/22/2013  23:07:00     -239.173      -79.194      -15.472       61.055       52.449       41.176     3727.671     2750.927     1695.461        3.594        0.409      251.944       34.616        0.019      337.410        9.362      855.315
05/22/2013  23:08:00     -284.412      -55.700      -11.807      126.752       83.791       55.703    16066.157     7020.919     3102.850        5.516        1.309      289.815       57.602        0.040      337.390        9.330      855.309
05/22/2013  23:09:00     -206.562      -63.962       -0.589       93.975       68.072       41.459     8831.329     4633.850     1718.875        3.097        0.759      216.238       46.502        0.046      337.358        9.274      855.315
05/22/2013  23:10:00     -233.207     -110.558       -1.521      102.944       75.143       42.260    10597.376     5646.537     1785.947        4.232        0.901      258.086       45.888        0.032      337.381        9.312      855.312
05/22/2013  23:11:00     -223.007      -71.232        4.874       99.730       70.858       45.808     9946.015     5020.841     2098.346        3.594        0.853      234.107       50.584        0.047      337.336        9.239      855.309
05/22/2013  23:12:00     -267.196      -98.204       -5.675       96.154       78.605       43.366     9245.526     6178.820     1880.597        4.918        0.865      284.671       45.475        0.026      337.339        9.244      855.321
05/22/2013  23:13:00     -221.783      -89.925       -2.881       77.701       72.786       40.959     6037.499     5297.840     1677.604        3.514        0.651      239.320       34.972        0.021      337.316        9.204      855.312
05/22/2013  23:14:00     -213.263      -28.866       -8.888       80.503       83.204       39.969     6480.755     6922.929     1597.543        3.069        0.750      215.208       39.025        0.033      337.310        9.197      855.316
05/22/2013  23:15:00     -297.764      -35.181      -24.768       86.251       79.771       49.724     7439.285     6363.353     2472.467        5.339        0.814      299.835       49.035        0.027      337.363        9.283      855.320
05/22/2013  23:16:00     -249.282      -49.543       -3.317      111.414       78.114       53.261    12413.096     6101.752     2836.694        4.297        1.068      254.157       59.637        0.055      337.354        9.269      855.319
05/22/2013  23:17:00     -210.562        4.131       -3.344      147.288       78.169       43.813    21693.613     6110.462     1919.550        3.704        1.486      210.602       62.430        0.088      337.405        9.355      855.330
05/22/2013  23:18:00     -294.381      -68.586      -28.029       73.443       71.476       48.739     5393.893     5108.750     2375.457        5.251        0.644      302.265       37.405        0.015      337.476        9.472      855.323
05/22/2013  23:19:00     -179.191      -65.802      -18.705       87.804       49.429       40.135     7709.546     2443.179     1610.806        2.427        0.588      190.890       40.358        0.045      337.487        9.491      855.325
05/22/2013  23:20:00     -227.289     -103.837      -16.708       86.586       66.808       36.920     7497.120     4463.356     1363.072        3.802        0.666      249.884       27.221        0.012      337.457        9.441      855.340
05/22/2013  23:21:00     -185.960      -60.720       -4.272       62.951       55.079       46.556     3962.850     3033.688     2167.451        2.372        0.458      195.622       42.917        0.048      337.402        9.350      855.344
05/22/2013  23:22:00     -263.111      -67.428      -28.416       75.966       81.559       41.905     5770.783     6651.887     1755.993        4.438        0.709      271.613       36.592        0.018      337.412        9.365      855.340
05/22/2013  23:23:00     -156.807      -56.406       -8.686       68.388       58.222       39.750     4676.865     3389.779     1580.031        1.874        0.482      166.644       44.262        0.071      337.353        9.269      855.343
05/22/2013  23:24:00     -237.406       -6.383      -17.315       65.111       79.298       33.273     4239.434     6288.184     1107.115        3.417        0.582      237.492       32.114        0.018      337.347        9.255      855.333
05/22/2013  23:25:00     -262.380      -28.294      -24.203       82.860       66.716       42.878     6865.820     4451.044     1838.524        4.169        0.658      263.902       41.779        0.025      337.300        9.177      855.321
05/22/2013  23:26:00     -154.276      -18.796      -11.982       59.204       61.759       33.262     3505.127     3814.190     1106.354        1.636        0.421      155.417       31.460        0.041      337.266        9.124      855.297
05/22/2013  23:27:00     -163.650      -23.492      -19.185       54.607       40.463       28.864     2981.949     1637.242      833.137        1.658        0.273      165.327       30.779        0.035      337.279        9.144      855.290
05/22/2013  23:28:00     -163.804      -66.417       -1.948       70.372       56.989       39.276     4952.195     3247.695     1542.609        2.049        0.487      176.756       29.367        0.028      337.224        9.054      855.273
05/22/2013  23:29:00     -225.200      -41.496      -19.478       91.072       72.590       45.333     8294.105     5269.368     2055.100        3.421        0.781      228.991       52.800        0.053      337.219        9.043      855.267
05/22/2013  23:30:00     -245.350     -112.523       -7.707       85.016       86.603       43.824     7227.749     7500.008     1920.557        4.478        0.832      269.922       33.958        0.016      337.192        8.996      855.265
05/22/2013  23:31:00     -255.673      -39.875       -8.527       88.280       82.723       49.270     7793.418     6843.071     2427.564        4.204        0.853      258.764       49.630        0.037      337.207        9.023      855.256
05/22/2013  23:32:00     -295.545      -78.339      -14.930      129.264      101.815       51.353    16709.256    10366.271     2637.095        6.170        1.486      305.752       64.468        0.044      337.243        9.082      855.254
05/22/2013  23:33:00     -268.304     -102.867      -20.002       78.498       72.844       41.926     6161.984     5306.212     1757.770        4.809        0.661      287.348       35.730        0.015      337.255        9.103      855.236
05/22/2013  23:34:00     -281.145       -9.002      -23.399       90.163       74.635       47.849     8129.429     5570.314     2289.515        4.783        0.799      281.289       50.904        0.033      337.268        9.124      855.234
05/22/2013  23:35:00     -202.571      -14.651      -23.871       79.127       68.740       33.844     6261.084     4725.200     1145.411        2.697        0.607      203.100       30.890        0.023      337.231        9.063      855.215
05/22/2013  23:36:00      -82.572      -10.046       -6.127       44.799       54.025       25.830     2006.957     2918.699      667.210        0.627        0.280       83.180       15.381        0.034      337.214        9.037      855.207
05/22/2013  23:37:00     -171.671      -14.316      -33.592       48.241       76.982       32.038     2327.190     5926.281     1026.436        2.004        0.464      172.267       18.391        0.011      337.195        9.006      855.198
05/22/2013  23:38:00     -185.036      -65.839       -7.395       93.190       74.300       37.837     8684.454     5520.547     1431.611        2.713        0.782      196.401       45.034        0.053      337.101        8.845      855.194
05/22/2013  23:39:00      -99.968      -41.958       -5.720       80.566       78.773       36.288     6490.871     6205.126     1316.819        1.290        0.701      108.416       29.340        0.073      337.125        8.886      855.182
05/22/2013  23:40:00     -177.812      -34.155       -2.682      114.277       64.925       42.801    13059.247     4215.290     1831.902        2.594        0.955      181.063       51.685        0.081      337.069        8.792      855.193
05/22/2013  23:41:00     -145.770      -55.502       -5.095       65.428       41.610       30.425     4280.841     1731.380      925.692        1.565        0.347      155.978       26.862        0.030      337.095        8.836      855.202
05/22/2013  23:42:00     -187.077       -8.848      -12.942       75.233       45.206       34.981     5660.039     2043.566     1223.669        2.208        0.446      187.286       39.059        0.043      337.099        8.842      855.210
05/22/2013  23:43:00     -131.549      -44.931       -0.872       74.482       57.665       35.050     5547.595     3325.256     1228.495        1.471        0.505      139.010       27.963        0.040      337.120        8.879      855.221
05/22/2013  23:44:00     -169.114      -28.620       -5.668       95.350       66.794       32.724     9091.601     4461.387     1070.890        2.203        0.731      171.518       31.265        0.033      337.061        8.778      855.235
05/22/2013  23:45:00     -161.700      -25.331       -3.960       62.950       64.008       31.965     3962.689     4097.071     1021.784        1.794        0.454      163.672       32.107        0.038      337.077        8.807      855.251
05/22/2013  23:46:00     -146.250      -17.697      -17.585       92.357       45.292       29.815     8529.872     2051.364      888.964        1.674        0.574      147.316       38.777        0.069      337.023        8.715      855.256
05/22/2013  23:47:00     -164.719      -42.638       -5.813       65.483       57.694       33.380     4288.000     3328.593     1114.208        1.886        0.437      170.148       34.096        0.040      336.985        8.651      855.253
05/22/2013  23:48:00      -83.534      -53.390        0.686       62.964       39.830       27.667     3964.410     1586.436      765.447        0.807        0.316       99.138       30.590        0.095      336.994        8.667      855.240
05/22/2013  23:49:00      -98.140      -41.976       -5.389       50.903       62.538       28.028     2591.134     3910.968      785.596        0.935        0.364      106.741       27.616        0.067      336.969        8.625      855.234
05/22/2013  23:50:00     -103.853      -23.145        2.331       54.295       59.571       25.862     2947.957     3548.675      668.819        0.924        0.358      106.400       30.459        0.082      336.960        8.610      855.234
05/22/2013  23:51:00     -112.058      -37.729       -3.991       67.424       53.455       31.776     4545.996     2857.392     1009.702        1.120        0.421      118.239       27.711        0.055      336.920        8.544      855.229
05/22/2013  23:52:00     -198.390        1.951      -21.411       47.383       43.343       25.996     2245.119     1878.653      675.770        2.231        0.240      198.399       15.039        0.006      336.956        8.602      855.236
05/22/2013  23:53:00     -113.707      -29.296       -9.396       38.199       42.064       20.022     1459.184     1769.368      400.874        0.875        0.181      117.420       18.117        0.024      336.934        8.566      855.227
05/22/2013  23:54:00      -50.645      -19.327      -10.258       42.096       22.918       12.627     1772.085      525.236      159.451        0.275        0.123       54.208       12.049        0.049      336.858        8.443      855.230
05/22/2013  23:55:00      -49.258      -41.441       -1.940       48.088       27.680       15.788     2312.409      766.165      249.247        0.374        0.166       64.372       19.275        0.090      336.921        8.546      855.229
05/22/2013  23:56:00     -100.759      -63.311       -8.170       32.894       38.566       23.156     1081.986     1487.307      536.217        0.867        0.155      118.999       13.596        0.013      336.866        8.455      855.235
05/22/2013  23:57:00     -108.138      -20.271        0.280       48.727       42.076       23.750     2374.282     1770.421      564.049        0.841        0.235      110.021       21.163        0.037      336.828        8.391      855.234
05/22/2013  23:58:00     -198.089       -3.987      -14.302       58.663       52.041       27.786     3441.378     2708.231      772.084        2.319        0.346      198.129       28.714        0.021      336.815        8.367      855.218
05/22/2013  23:59:00     -156.406       29.618       -5.339       36.354       39.290       26.444     1321.602     1543.718      699.279        1.447        0.178      159.186       20.714        0.017      336.782        8.316      855.204
